GFSSGP_sfc_dewp_003.txt.gz
Dewpoint
46 32 31 25 17 17 13 14 13 42 48 52 51 47 52 55 48 45 61 60 64 67 68 68 70 71 71 70 71 71 71 71 70 69 69 68 68 68 68 67 65 63 63 64 65 64 66 68 68
41 24 23 21 16 15 23 25 26 48 53 53 53 54 54 54 61 59 58 61 64 66 67 68 70 71 71 71 71 71 71 71 70 69 68 68 68 68 68 67 63 63 63 64 65 66 65 66 66
32 15 18 19 16 15 30 32 49 53 51 51 53 55 56 56 61 58 59 61 64 65 67 68 70 70 70 71 72 72 72 72 71 70 69 69 68 68 68 66 63 64 64 64 65 66 67 67 68
22 15 15 23 20 18 32 43 52 50 47 53 53 51 56 59 61 61 57 61 62 63 66 68 68 69 70 69 69 70 70 70 70 69 69 69 68 68 66 66 65 64 65 65 65 65 64 65 67
14 15 17 22 23 26 30 37 49 44 44 48 50 52 54 59 62 58 60 62 60 62 65 65 68 68 69 68 68 68 69 69 69 69 69 68 68 66 65 64 65 65 65 65 65 65 64 63 64
12 14 18 20 18 8 25 34 39 40 45 49 52 52 53 61 60 60 61 61 60 60 64 64 67 68 68 68 68 68 68 68 68 68 68 68 67 67 66 65 64 63 63 63 63 64 65 65 65
12 12 7 7 6 4 9 9 26 37 40 37 50 49 55 60 60 61 61 59 61 62 62 64 63 64 66 66 66 66 67 67 67 67 66 66 66 65 64 63 62 62 62 62 62 62 62 62 62
10 10 5 4 3 2 3 11 14 21 32 44 48 45 53 58 61 62 61 60 61 62 62 63 63 61 62 63 65 66 66 67 66 65 64 64 64 62 62 60 61 61 62 61 61 60 60 59 60
12 10 5 3 3 7 10 10 13 23 38 32 37 50 49 59 62 62 62 60 61 62 62 62 61 60 59 61 62 64 65 66 66 64 63 62 62 60 59 60 60 60 60 60 59 58 57 56 56
12 13 10 9 7 11 14 9 10 18 29 35 41 46 56 60 61 61 61 59 60 60 61 61 62 61 59 57 62 63 63 64 66 64 64 62 62 61 60 60 60 60 60 59 59 58 56 53 53
17 15 16 15 10 14 17 17 15 19 23 30 31 46 57 59 61 60 60 59 59 60 61 60 62 62 60 58 61 61 61 63 64 65 65 63 63 63 62 61 60 60 59 58 57 58 59 59 59
18 17 18 18 19 18 17 18 17 16 16 22 36 50 57 57 59 60 60 60 60 61 61 62 62 63 64 62 61 61 60 61 62 63 64 64 62 62 61 59 59 61 60 60 60 60 58 57 57
21 20 20 21 18 18 21 19 19 19 20 20 35 52 56 57 56 59 60 60 60 60 61 63 64 64 65 63 62 62 62 61 62 63 63 62 61 61 60 59 59 60 60 59 59 57 50 48 48
25 23 22 22 23 23 21 21 20 19 20 18 34 46 54 57 57 55 55 56 57 58 60 61 61 62 61 59 61 60 61 61 62 62 63 63 61 61 59 59 59 59 59 59 57 51 46 46 48
24 19 19 21 22 20 19 18 17 18 18 17 18 37 51 56 57 56 55 54 54 56 56 57 59 60 60 57 55 55 54 55 57 58 61 60 60 59 59 59 59 59 59 59 53 49 47 45 45
19 20 17 19 25 23 19 19 20 19 22 23 25 18 41 51 54 53 51 48 51 52 53 54 55 57 58 57 56 55 55 55 53 53 54 56 56 57 58 57 57 58 59 57 53 49 44 40 41
20 11 16 18 26 27 26 23 24 27 27 27 26 21 28 42 40 35 36 42 47 49 50 52 55 55 56 55 53 54 55 53 52 52 51 53 54 55 56 54 54 56 54 54 52 48 45 39 40
17 14 18 19 22 28 26 26 27 23 24 26 24 23 26 33 32 34 35 37 42 47 48 51 51 52 53 50 48 45 45 45 46 46 47 49 50 53 54 53 53 53 50 50 48 47 43 40 40
19 19 21 22 25 28 28 25 22 23 25 25 25 25 25 29 32 34 37 38 41 45 47 47 46 47 45 41 41 41 41 40 41 40 43 44 44 48 51 50 51 52 50 49 49 46 45 41 42
21 21 18 23 25 28 27 23 24 24 26 29 30 30 31 32 32 35 37 39 43 44 44 41 39 39 38 38 40 41 41 40 40 41 43 43 44 44 44 48 48 49 48 50 50 48 44 42 43
23 20 21 23 25 27 25 22 25 25 25 27 29 31 30 32 32 33 34 38 40 40 40 37 38 40 42 42 39 40 41 40 38 36 37 39 43 43 44 45 45 47 48 47 49 49 47 42 42
24 23 27 26 27 23 26 18 25 25 23 26 27 29 30 31 32 32 34 35 37 39 42 43 42 40 40 41 39 39 36 35 37 38 37 39 42 43 42 43 44 45 46 47 47 47 48 46 42
28 30 29 28 28 26 26 20 24 26 24 25 28 29 31 32 33 34 36 39 40 42 43 43 41 41 41 39 39 39 40 39 39 38 39 39 40 42 41 41 42 43 43 44 46 46 46 44 43
31 29 27 29 28 25 26 23 24 25 25 27 28 30 33 34 34 35 39 39 39 41 43 43 41 41 42 40 39 40 41 41 39 39 38 37 38 39 39 39 41 40 40 40 40 40 41 40 39
32 26 24 28 28 25 26 23 24 28 28 28 30 34 37 39 39 39 38 38 39 40 42 41 41 40 42 42 38 40 42 42 39 38 37 37 36 37 38 39 40 39 40 40 40 41 41 40 40
31 29 28 19 23 25 27 23 26 31 32 32 34 34 35 35 38 39 38 39 40 41 41 41 40 40 42 43 39 40 41 39 37 38 38 37 36 37 39 39 39 40 41 41 41 41 41 40 39
30 31 31 28 25 29 26 28 29 30 31 33 32 34 35 35 36 37 38 40 41 41 42 43 41 40 42 43 39 41 40 38 38 38 37 36 37 38 39 41 39 39 39 39 38 38 37 38 38
31 32 28 31 25 21 23 26 24 28 30 31 31 34 36 36 36 37 38 40 41 41 42 43 42 40 41 42 39 38 38 37 36 35 36 36 38 39 37 35 34 34 34 34 35 35 36 36 36
32 31 31 31 30 28 26 23 31 30 31 32 32 35 37 37 37 37 38 39 41 42 41 41 42 40 41 38 38 38 37 34 33 34 35 36 37 34 33 32 33 34 35 34 34 34 32 30 30
32 30 29 27 23 30 29 24 30 32 31 33 32 35 36 38 38 38 38 40 41 41 40 41 42 41 38 37 37 37 33 30 32 34 35 37 36 34 33 32 34 35 32 34 31 29 27 25 24

GFSSGP_sfc_dewp_006.txt.gz
Dewpoint
41 29 31 26 17 22 25 28 37 44 44 49 48 44 47 52 46 45 58 59 56 61 65 66 70 71 71 71 71 71 70 70 70 69 68 67 68 68 68 66 65 64 64 64 65 65 66 67 67
29 22 23 21 16 16 24 32 35 42 48 49 49 49 45 48 54 56 56 57 57 61 65 65 70 71 71 71 71 71 70 70 70 69 68 68 68 69 67 65 64 64 64 65 65 65 67 67 67
28 20 16 18 18 19 24 31 44 47 48 48 47 50 50 48 52 52 56 55 56 60 62 66 70 70 71 71 71 71 71 70 70 69 69 69 68 68 67 65 64 65 65 65 66 66 65 65 67
22 15 22 16 19 28 29 38 42 45 48 48 42 44 53 57 54 55 56 55 53 55 59 66 69 69 69 69 69 69 70 70 69 68 68 68 68 66 64 65 65 65 65 65 65 65 64 64 64
14 16 20 19 23 31 36 40 44 41 43 46 46 45 49 58 61 57 57 55 52 53 56 58 68 68 68 68 67 68 68 69 69 68 68 68 67 66 65 65 65 65 65 64 64 65 66 65 65
12 22 17 18 26 32 36 42 39 35 41 44 43 42 49 60 57 57 57 54 52 54 58 58 66 67 67 67 67 67 68 67 67 67 68 67 66 66 65 65 64 63 63 62 63 63 63 63 63
15 17 14 17 22 24 26 31 31 31 34 35 41 36 52 57 56 57 55 53 53 53 55 58 58 62 66 66 66 67 67 67 66 66 65 66 66 65 64 63 62 62 62 62 61 61 61 61 61
13 11 11 11 10 9 9 13 22 24 29 44 42 33 44 53 58 58 55 53 53 56 55 58 60 58 60 60 65 65 66 66 65 64 63 64 64 62 61 59 60 61 60 60 60 59 59 59 59
12 6 4 5 5 7 10 9 14 28 33 36 38 38 46 56 59 59 56 54 54 56 59 60 58 60 60 58 60 63 64 65 65 64 62 62 60 60 58 60 59 60 59 59 58 57 55 54 57
10 8 6 6 8 7 8 8 13 19 21 24 33 44 52 58 58 58 56 53 55 57 59 60 62 61 61 56 61 61 60 60 62 62 63 60 62 61 59 60 59 58 58 57 57 57 58 56 49
15 9 11 10 12 10 9 10 11 11 13 17 21 37 53 56 57 55 53 51 54 56 58 59 63 63 61 58 58 56 57 59 60 64 64 63 62 61 60 59 57 58 58 54 54 55 52 55 53
14 16 13 13 14 13 11 15 14 13 11 19 25 36 48 52 51 50 49 49 51 55 57 60 61 63 64 58 56 57 56 57 57 59 64 62 60 60 60 56 55 55 54 56 55 54 56 52 49
16 19 20 19 17 18 19 17 19 18 16 19 29 41 45 46 47 49 48 47 50 54 58 61 63 63 61 62 58 59 59 57 59 58 59 61 58 58 56 55 53 53 53 53 54 53 50 45 42
24 22 22 22 22 23 22 21 21 18 20 20 25 36 42 44 44 46 49 50 53 55 58 62 63 63 58 58 60 58 58 55 55 54 55 59 60 57 54 52 49 49 49 50 52 51 48 44 42
24 21 22 23 22 23 20 18 15 18 19 20 20 26 38 43 42 44 46 50 51 53 55 61 61 58 57 55 55 53 51 52 50 50 54 55 56 54 54 50 50 49 50 53 54 53 49 45 40
17 19 15 22 23 25 23 16 19 25 26 20 25 24 34 42 45 44 47 51 53 53 55 58 56 53 54 53 53 51 51 53 50 51 51 54 54 55 54 50 49 50 51 50 50 49 47 45 41
16 8 11 18 24 25 24 18 23 24 24 26 25 26 24 37 46 50 52 52 49 50 54 56 55 47 48 52 51 52 53 49 45 47 45 48 50 51 53 49 49 52 50 49 49 48 48 46 41
12 11 14 15 19 23 22 22 21 24 24 27 28 27 24 32 44 43 40 40 44 50 54 54 49 49 51 51 50 45 45 46 45 43 42 44 44 47 49 48 50 51 50 49 47 49 47 45 44
18 16 16 16 24 28 27 21 21 24 25 27 26 26 29 35 36 36 38 40 45 52 51 48 48 46 44 42 40 40 40 41 42 41 45 46 45 45 47 45 47 48 47 48 51 50 49 48 46
19 17 17 22 25 29 24 22 22 25 27 29 28 29 30 32 33 36 39 43 44 46 46 43 40 42 41 40 42 43 44 42 43 41 43 42 42 41 40 44 43 44 44 46 48 49 48 47 47
22 20 24 24 25 28 25 23 22 24 27 28 29 30 30 31 32 35 38 41 43 43 43 41 42 42 43 42 40 41 42 40 39 39 37 38 40 39 41 42 43 44 44 42 44 46 46 44 46
22 26 29 27 26 20 27 17 25 22 24 26 29 31 32 32 33 34 35 40 42 45 45 43 42 42 41 43 41 43 39 38 40 40 38 38 38 38 39 40 43 44 43 43 42 40 44 44 43
28 32 30 29 26 26 25 18 25 25 24 26 28 31 33 34 36 38 39 40 41 44 45 45 43 42 42 41 43 41 42 40 40 39 38 37 36 38 38 41 42 43 42 43 45 45 45 44 44
32 30 30 31 30 27 26 23 24 26 26 27 30 34 36 37 35 38 39 40 41 44 45 44 41 41 42 42 42 43 44 42 39 37 35 34 35 35 38 39 42 43 42 42 42 43 44 43 43
29 26 27 29 29 26 26 23 28 28 29 31 33 35 37 40 39 38 38 38 41 42 43 41 40 39 41 42 40 40 41 41 39 38 35 36 34 35 38 41 41 40 40 40 42 42 42 40 40
30 30 30 20 25 24 25 20 26 30 31 33 33 35 36 37 38 37 37 39 40 42 43 42 40 38 38 39 38 38 41 41 38 37 37 36 36 38 41 40 40 40 40 40 41 41 40 39 40
29 30 31 30 30 31 24 26 29 30 30 30 31 34 35 35 36 37 37 39 41 42 41 44 42 39 39 41 42 42 42 40 39 38 37 36 39 37 40 41 38 35 36 37 37 37 37 37 37
31 32 29 30 28 16 14 18 19 29 30 30 30 33 35 35 35 37 37 38 40 42 44 45 44 41 42 42 42 40 39 38 37 37 37 38 38 40 37 35 34 35 36 38 38 38 37 36 35
32 31 30 28 30 24 22 17 30 28 29 30 32 32 35 37 37 37 38 39 40 42 42 42 42 42 41 40 39 39 38 36 36 36 37 37 38 35 34 33 35 35 37 39 39 37 35 30 29
32 30 29 28 20 29 29 24 29 31 30 32 32 33 35 37 37 37 38 40 41 42 41 41 41 39 39 37 36 37 36 35 35 36 37 37 37 37 36 37 38 38 37 35 32 32 29 27 25

GFSSGP_sfc_dewp_009.txt.gz
Dewpoint
47 34 27 27 19 18 25 30 33 35 38 43 41 40 39 45 47 48 53 52 58 61 63 66 71 71 71 70 70 70 70 70 69 69 68 68 68 68 67 65 65 64 65 65 66 66 67 67 67
29 21 24 21 17 16 23 26 31 36 39 38 37 37 38 43 50 52 49 52 59 61 62 66 71 72 71 71 71 70 70 70 69 69 68 68 68 68 67 65 65 65 66 66 66 66 66 66 67
37 23 18 14 15 15 23 26 35 37 38 38 37 38 40 43 46 47 50 53 57 59 63 68 70 71 72 72 71 70 70 70 70 69 69 68 68 67 66 65 65 65 66 66 66 65 64 63 64
23 15 17 15 21 23 25 33 35 36 39 39 34 39 48 47 47 49 49 50 52 54 61 67 69 70 70 69 69 70 70 69 68 68 68 68 67 65 64 65 65 66 66 65 65 66 66 66 65
17 16 16 17 23 26 31 32 34 34 35 35 34 35 47 54 51 48 47 46 48 48 53 61 68 68 68 67 67 68 68 68 68 68 68 67 66 66 65 65 65 64 64 63 63 64 64 64 65
14 18 16 17 22 29 33 35 32 29 32 32 33 37 47 53 50 49 47 45 45 49 52 54 65 66 66 66 66 67 67 67 67 67 67 66 66 65 65 64 63 63 63 62 62 62 62 62 62
16 20 16 20 22 23 26 28 25 24 27 27 30 34 46 47 50 49 46 44 45 49 52 53 55 61 66 66 66 66 66 66 66 65 65 66 65 64 63 62 62 62 61 61 60 60 60 60 60
13 16 14 15 16 15 16 18 23 23 26 28 29 29 41 48 50 48 46 45 46 49 52 55 55 54 57 61 65 65 66 66 64 64 63 64 64 63 61 60 61 60 60 60 58 58 58 57 59
10 9 7 6 6 6 7 6 9 18 24 26 28 37 39 51 52 49 47 45 49 50 55 55 55 55 55 53 59 63 65 66 65 64 63 62 59 58 59 61 59 59 58 58 58 57 56 56 57
9 8 6 4 6 5 4 4 8 16 21 17 27 32 45 50 51 49 45 45 49 53 53 57 58 57 55 49 55 55 53 56 58 59 60 57 60 59 58 59 61 60 59 59 59 58 59 59 49
9 9 7 6 4 -0 -0 2 5 8 11 16 22 31 43 47 47 48 47 46 48 52 51 55 62 60 56 53 53 52 52 54 55 59 60 59 59 58 57 56 55 55 57 52 54 53 51 54 51
11 10 8 6 7 6 4 7 9 8 9 15 19 33 42 46 46 47 46 45 47 50 49 55 61 59 58 54 53 53 52 53 54 56 58 58 56 57 57 53 52 52 50 52 52 51 54 52 47
10 10 9 8 8 9 13 11 15 10 12 16 23 34 40 44 44 44 45 45 46 47 49 54 60 57 54 56 55 56 56 54 56 54 55 55 55 56 53 52 50 49 48 48 50 49 49 48 46
16 16 18 18 19 19 18 16 18 17 16 15 20 28 35 38 40 42 44 44 46 46 50 54 57 56 52 53 55 56 54 51 51 50 51 54 54 55 52 50 48 47 47 47 48 50 50 48 45
19 18 19 20 21 20 20 16 16 18 19 18 18 22 31 36 37 40 44 46 47 46 48 54 56 54 52 52 52 50 47 49 49 48 51 51 52 53 54 51 50 48 50 53 50 49 48 48 46
17 19 16 19 21 22 21 17 16 20 21 19 23 21 25 33 36 38 41 43 45 46 47 51 53 51 51 50 49 48 48 49 48 48 49 50 50 51 53 49 50 51 52 50 49 47 46 46 45
17 12 10 18 20 21 20 17 20 23 22 21 21 23 24 29 36 39 41 43 45 45 47 50 55 46 47 50 48 49 50 47 43 44 43 48 47 48 50 48 50 55 51 52 51 50 50 47 47
12 7 9 10 19 16 15 16 20 22 23 24 22 23 25 26 35 41 46 44 44 44 47 50 52 44 47 48 49 43 43 44 44 43 43 46 45 48 48 47 50 50 47 48 50 53 50 51 50
13 12 12 14 20 22 22 18 20 24 24 27 25 26 26 27 39 43 41 42 45 50 49 49 48 48 45 43 42 40 41 42 43 42 45 46 44 43 44 42 43 46 44 47 50 50 50 49 50
18 16 16 18 21 24 22 19 21 24 27 26 27 29 32 35 35 37 41 43 46 49 49 46 44 42 41 41 43 45 45 43 43 43 43 42 43 42 41 42 41 42 41 47 49 50 47 47 49
21 21 24 22 22 22 23 21 21 24 26 27 29 29 30 32 34 37 40 44 45 45 44 43 43 43 44 43 41 41 41 42 40 41 41 41 42 39 39 40 41 45 44 42 47 46 46 43 45
22 25 26 24 22 19 23 17 23 23 25 27 30 31 31 32 33 34 38 41 45 45 45 44 43 42 42 45 42 44 41 40 41 42 41 39 39 37 36 38 40 43 43 44 44 39 46 45 42
28 30 27 27 24 23 20 15 25 23 23 26 30 32 33 35 36 37 39 41 43 45 46 45 43 42 43 42 43 43 44 43 43 42 41 42 38 38 36 37 41 43 41 43 45 44 43 42 41
30 29 28 30 26 25 24 20 23 23 27 27 31 34 35 36 37 38 39 40 42 45 45 45 42 40 42 44 44 45 45 43 40 39 38 36 37 35 37 36 41 42 42 42 41 42 43 43 42
27 27 28 29 28 27 24 18 27 27 28 30 32 33 36 39 39 37 37 38 41 42 42 43 41 40 41 43 42 41 40 42 41 39 37 37 34 35 39 40 41 40 40 41 43 44 41 41 41
27 29 32 21 24 23 23 16 25 29 31 31 32 33 35 36 37 37 38 39 40 41 42 44 43 41 40 42 42 43 42 41 39 39 37 36 36 37 39 40 40 40 41 41 41 39 40 39 40
29 28 29 30 32 30 19 22 28 29 30 30 30 32 33 34 34 35 37 38 39 41 42 44 43 42 42 43 43 43 41 40 39 38 38 36 38 36 38 39 37 40 38 40 39 39 39 39 39
31 30 30 30 27 16 13 13 21 29 28 30 29 30 32 33 34 36 37 38 39 40 42 44 44 41 41 42 41 39 39 39 37 37 37 37 37 37 37 38 38 38 39 38 38 38 37 37 37
30 30 29 24 27 24 20 17 27 25 28 28 30 30 32 33 35 36 37 38 40 40 41 42 41 41 39 39 38 38 38 37 36 35 36 37 39 37 37 38 38 38 37 39 39 37 36 36 36
30 28 27 29 21 27 28 24 28 28 27 29 30 31 33 35 35 36 36 38 39 40 40 39 40 39 37 36 36 35 34 34 34 35 36 38 36 38 37 37 37 37 37 37 36 36 34 30 29

GFSSGP_sfc_dewp_012.txt.gz
Dewpoint
49 33 32 28 24 22 17 28 33 35 37 37 39 37 42 47 49 47 51 57 63 64 66 68 71 72 71 71 71 71 71 70 70 70 70 69 69 68 66 66 66 66 66 67 67 67 67 67 67
32 32 26 26 23 19 22 29 32 35 35 32 35 34 41 44 49 48 51 58 61 64 66 69 71 71 72 71 71 71 70 69 70 69 69 69 68 68 66 65 66 66 66 66 65 65 64 64 64
43 31 22 23 19 15 24 31 37 33 32 34 35 44 41 43 46 47 54 58 64 65 67 69 70 71 72 72 72 71 71 70 70 70 69 69 68 66 65 65 66 66 66 65 65 66 66 66 65
31 24 18 17 16 23 26 33 33 33 37 35 37 41 43 45 46 48 52 55 57 63 66 68 69 69 70 70 70 70 70 69 69 69 68 68 66 65 66 66 66 64 64 64 64 64 64 65 65
31 24 17 19 23 27 31 31 31 35 34 33 33 43 47 47 45 46 48 49 51 59 62 65 67 68 69 68 68 69 69 69 69 68 67 67 66 66 65 64 64 63 62 62 62 62 63 63 64
22 21 16 16 24 28 30 31 32 38 33 28 34 43 47 46 44 44 44 46 47 55 59 60 67 67 67 68 68 68 68 68 68 67 67 66 65 65 64 63 63 62 62 61 61 60 60 61 62
23 20 16 21 24 27 31 30 24 23 27 28 32 40 46 45 46 44 43 44 49 50 52 56 60 64 66 66 67 67 67 67 66 66 66 65 65 65 63 62 61 61 60 60 59 59 59 59 60
17 16 14 20 18 19 20 23 23 23 26 26 30 34 41 47 47 44 43 44 47 52 53 57 59 60 62 63 65 66 66 66 65 65 65 65 65 64 63 63 61 59 58 58 57 57 57 57 58
13 11 15 12 14 10 10 8 12 19 24 25 34 33 45 47 46 45 44 44 48 51 57 57 55 58 62 61 62 65 66 66 65 64 64 63 62 62 61 61 61 59 59 59 59 58 58 58 59
10 12 7 5 6 5 4 5 7 16 20 21 33 41 49 48 47 45 44 44 49 54 54 59 60 59 57 50 61 63 61 63 63 62 62 62 62 60 59 61 62 62 61 61 61 61 61 60 55
10 9 7 4 8 1 1 3 5 12 13 18 26 33 47 48 48 46 43 44 49 52 54 60 62 61 59 58 56 58 59 59 62 64 61 62 60 63 61 61 61 61 61 60 60 58 58 55 54
9 8 7 5 3 1 -1 3 3 8 13 18 25 33 45 44 45 46 45 45 48 51 52 60 61 61 60 59 59 60 59 58 60 59 61 61 60 60 59 57 55 55 54 54 54 54 55 55 50
10 8 6 5 4 8 12 9 13 9 14 18 26 36 42 44 45 46 46 48 47 50 52 57 61 60 62 59 62 61 60 59 59 58 59 59 58 59 58 56 55 54 54 53 53 52 52 52 50
11 9 8 9 13 13 12 12 18 15 13 15 23 33 39 42 44 45 46 47 49 50 53 60 60 60 57 58 58 60 58 58 58 57 56 57 57 57 57 55 55 54 53 53 52 51 52 52 51
14 14 15 17 18 17 15 17 14 17 16 15 17 24 33 38 39 42 45 48 49 48 51 58 60 58 57 57 57 57 53 52 54 55 55 54 55 55 56 55 55 54 55 54 53 53 51 51 50
13 17 15 17 18 21 19 16 15 18 18 18 19 21 25 34 36 41 45 46 48 52 55 61 55 57 56 57 54 54 55 55 54 55 54 54 53 53 55 54 55 56 56 55 53 53 51 50 50
17 12 16 19 17 20 18 18 16 19 21 21 22 24 23 27 36 40 43 45 46 47 51 53 58 56 54 55 53 54 54 53 52 51 53 53 52 54 53 53 54 55 53 53 52 50 52 51 50
14 10 8 9 17 14 13 15 19 21 22 24 22 23 26 26 32 40 42 47 48 51 51 54 58 55 53 55 53 51 50 51 51 52 50 51 51 50 51 49 51 52 49 49 50 50 49 49 49
13 11 10 16 19 18 17 17 19 23 23 29 33 31 30 38 43 43 47 49 51 53 52 53 55 53 51 50 50 49 49 49 50 49 49 48 49 48 48 48 47 47 46 48 48 47 46 46 47
15 14 14 17 19 17 20 16 21 24 26 27 28 31 36 37 38 42 47 51 51 51 52 49 47 49 48 46 49 49 49 48 48 49 49 49 48 47 43 46 46 46 46 46 47 48 45 44 45
20 18 25 22 22 20 20 20 21 24 26 28 30 32 34 36 38 41 44 48 50 50 49 46 46 46 48 49 46 46 47 47 46 45 46 47 47 45 44 45 46 46 46 44 45 45 44 43 43
21 26 24 22 21 17 19 15 21 24 26 28 30 33 33 34 35 39 43 46 48 49 50 47 47 45 46 48 47 46 45 45 47 49 46 45 45 45 42 42 45 45 46 44 45 42 45 44 41
26 28 25 24 23 21 19 19 24 23 24 28 32 33 35 38 39 40 42 43 45 49 50 49 46 45 46 47 47 47 48 48 46 47 46 44 44 43 41 42 43 44 44 44 45 44 44 44 42
29 28 27 27 27 30 21 21 28 25 27 29 32 34 36 37 39 39 41 43 45 49 50 49 46 44 45 47 48 46 45 45 45 45 43 41 40 40 41 41 44 44 44 44 44 44 42 42 42
26 27 32 34 33 31 26 19 29 28 28 30 33 34 38 40 41 40 40 40 44 46 47 47 46 44 45 45 45 47 47 46 43 42 41 39 39 40 39 42 42 42 42 42 42 43 42 41 40
27 27 36 25 29 28 21 16 26 30 31 32 32 33 36 38 40 40 41 41 42 45 46 47 45 44 44 46 46 47 46 43 42 42 40 40 39 40 41 41 41 41 41 41 41 41 40 39 40
29 28 25 31 34 32 19 26 29 29 29 30 30 31 33 35 38 39 41 42 42 43 45 47 45 44 45 45 46 45 44 43 42 41 41 40 41 37 39 40 39 40 40 40 39 38 38 39 39
28 26 29 35 29 21 15 17 27 29 29 31 28 30 32 33 35 38 38 41 42 44 46 48 45 43 43 43 43 41 42 41 40 40 39 40 39 38 38 39 40 39 39 39 39 39 39 38 38
28 27 28 24 30 27 24 19 24 25 28 28 30 30 34 35 35 37 38 40 41 43 44 45 42 41 41 41 41 41 40 39 39 39 39 38 38 38 37 37 35 35 36 38 39 38 38 36 35
27 26 26 35 26 35 32 23 28 28 28 32 31 31 35 37 38 38 39 40 40 40 41 41 41 40 39 39 38 37 38 37 37 37 36 36 36 37 35 34 33 33 33 33 34 34 33 33 32

GFSSGP_sfc_dewp_015.txt.gz
Dewpoint
47 34 36 30 24 23 18 26 36 36 33 42 46 48 48 49 48 48 63 64 66 67 69 70 71 71 72 72 71 71 71 70 70 70 70 69 68 67 66 66 67 66 66 66 66 65 65 65 64
44 34 32 25 23 20 22 35 33 31 35 43 43 45 46 45 50 55 61 64 66 68 69 70 70 71 72 71 71 71 70 70 70 70 69 69 68 66 66 66 67 66 65 65 65 65 66 66 66
43 34 24 22 21 18 29 34 31 32 35 41 43 45 45 45 50 55 64 66 67 68 70 70 70 71 72 71 71 71 71 70 70 70 69 67 66 66 66 67 67 65 64 64 64 64 64 65 65
34 28 18 14 13 18 34 33 34 35 37 42 42 44 45 47 50 57 64 65 66 67 68 68 69 70 71 71 71 70 69 69 69 69 67 66 66 66 66 65 64 63 62 62 62 62 63 63 64
37 26 17 16 20 33 32 32 37 37 37 46 46 43 43 47 50 52 61 63 64 64 66 67 67 68 69 69 69 69 69 69 69 68 67 66 66 65 65 64 63 62 62 61 60 60 60 61 63
24 19 15 14 29 33 31 34 36 38 36 45 46 44 42 44 44 46 55 59 61 62 64 65 67 67 68 68 68 68 68 68 68 68 67 66 65 65 64 63 62 61 60 59 59 59 59 60 61
23 21 17 15 21 29 26 25 26 36 31 45 47 43 44 43 43 44 48 56 57 59 59 62 64 65 66 66 66 66 66 66 66 66 66 66 65 65 64 63 61 60 59 58 57 59 60 60 60
21 19 14 13 21 19 21 19 21 24 22 32 45 43 43 43 43 43 47 49 51 54 56 59 61 62 63 64 65 65 65 65 64 64 65 64 64 64 64 63 62 61 59 58 58 59 60 60 59
17 10 9 10 15 14 13 10 10 24 26 40 41 45 46 45 43 42 43 46 51 53 55 57 58 60 60 61 63 65 65 64 64 64 64 63 63 63 61 62 62 61 61 61 61 61 60 60 59
11 12 9 6 9 6 6 5 9 20 23 39 46 46 45 45 43 43 43 46 50 52 55 54 54 60 59 57 61 62 63 63 63 63 62 62 61 62 60 61 61 61 61 61 61 62 61 60 57
11 8 6 4 4 4 4 6 12 19 19 32 46 46 46 46 45 44 43 47 51 52 56 57 56 55 54 55 59 61 61 62 62 61 58 57 59 59 57 60 59 59 61 59 59 58 59 56 54
9 8 6 5 5 5 1 3 7 10 13 27 42 48 48 47 47 45 43 45 50 52 57 57 56 55 55 57 57 56 55 57 58 58 57 56 57 54 55 52 51 52 52 54 53 52 51 52 51
10 8 6 5 7 13 11 9 14 12 17 26 39 46 46 47 46 46 45 46 49 52 58 57 56 56 54 56 57 55 57 55 57 55 55 55 56 53 53 54 52 51 52 50 49 49 49 51 50
14 8 5 4 14 14 15 15 16 14 15 28 37 43 43 44 44 45 46 45 49 50 58 57 57 58 54 56 56 54 53 54 55 53 54 54 54 53 53 52 53 51 52 52 51 50 50 51 51
16 13 12 14 16 16 17 15 15 16 13 18 26 38 42 44 45 45 45 46 48 50 60 61 62 61 57 54 53 54 47 50 52 51 51 52 52 52 53 53 53 53 54 52 52 52 51 50 50
14 18 15 17 19 18 16 14 17 17 16 16 20 21 30 41 42 43 43 45 49 58 60 61 62 61 59 57 52 51 51 49 50 52 53 51 52 51 50 50 50 52 52 52 51 51 51 50 50
19 13 18 17 19 22 19 17 17 18 17 17 18 18 21 29 38 43 43 44 47 53 58 57 60 59 57 55 51 51 47 46 47 49 49 49 49 49 47 46 47 50 49 48 48 48 48 47 47
16 15 18 18 17 14 13 15 21 22 21 23 22 23 23 37 42 46 48 50 51 53 57 59 59 57 53 50 49 48 48 48 48 47 46 48 46 46 45 44 46 45 45 46 46 45 45 45 45
17 15 18 19 19 21 19 18 22 26 25 26 31 38 39 41 46 48 48 50 52 52 50 51 52 47 47 46 45 45 45 45 46 46 47 45 44 44 43 44 44 45 44 44 44 45 45 45 45
19 20 23 21 20 17 18 19 24 27 28 29 34 37 39 42 43 45 47 48 49 47 48 46 44 47 45 46 46 46 46 46 46 45 46 46 45 43 41 42 43 43 44 43 43 42 43 43 44
24 26 25 23 22 21 21 22 24 27 29 31 32 35 37 40 42 44 45 46 45 45 43 43 43 43 45 45 44 43 43 43 45 46 44 45 44 42 41 41 43 43 44 43 42 43 42 42 42
27 30 28 24 23 19 19 19 24 26 29 32 34 35 36 38 42 43 44 44 45 45 43 43 43 43 44 44 44 43 45 45 46 45 44 42 42 41 41 41 42 43 43 42 43 44 43 43 41
30 32 29 28 25 24 23 23 23 28 29 31 33 35 37 38 40 42 43 44 45 44 43 43 43 43 43 43 44 45 43 43 44 44 41 40 40 40 40 41 41 42 43 43 43 42 42 42 41
28 31 31 30 28 25 27 25 30 30 30 32 35 36 37 37 39 40 43 44 44 44 43 43 42 43 43 44 43 42 43 43 42 40 40 39 39 40 39 40 41 42 42 41 42 42 41 41 41
29 31 28 27 27 26 34 27 32 33 30 33 36 37 38 38 38 38 40 42 44 44 43 43 43 42 44 44 45 43 43 41 40 38 38 37 38 38 39 40 41 41 41 40 40 40 40 40 39
30 30 27 24 25 26 21 25 28 31 32 34 35 36 37 37 37 37 37 37 40 41 42 43 42 43 43 44 43 42 41 42 40 37 37 37 39 39 38 38 39 40 40 39 39 39 38 38 38
31 26 27 30 29 26 25 28 30 30 31 32 31 33 35 36 37 36 39 40 41 42 44 43 43 42 42 41 41 40 41 39 37 36 37 39 38 36 37 38 39 39 39 39 38 38 38 39 38
28 28 28 29 22 20 20 28 31 32 35 35 30 32 33 35 37 39 40 40 41 42 44 43 41 40 40 40 39 39 38 38 37 38 37 36 36 36 37 37 37 36 36 37 38 37 37 37 37
29 30 30 28 28 23 21 22 28 33 36 34 33 34 36 37 37 38 40 39 39 40 41 41 40 39 38 37 37 36 36 37 37 37 36 34 35 34 35 35 34 33 34 34 35 35 36 36 34
28 30 30 26 25 28 26 23 28 34 33 33 32 36 36 36 37 38 39 39 38 38 39 38 38 38 37 37 36 35 36 34 34 34 33 33 32 34 34 30 28 28 27 28 27 27 28 27 27

GFSSGP_sfc_dewp_018.txt.gz
Dewpoint
44 33 34 30 21 22 19 26 37 40 43 48 48 48 48 50 48 50 64 66 68 69 69 69 70 71 71 71 71 71 71 70 70 69 69 68 67 66 66 66 66 66 66 65 65 65 65 65 65
40 32 31 26 22 20 24 33 40 41 44 46 46 49 51 54 60 62 63 66 68 68 69 69 71 71 71 71 71 70 70 69 69 69 68 67 66 66 66 67 66 65 64 63 63 63 63 64 64
39 33 23 21 21 19 30 32 35 39 43 43 45 45 46 54 60 61 65 67 68 69 69 70 70 71 71 71 71 71 70 70 70 69 67 66 66 66 66 65 64 63 62 61 61 61 62 62 63
34 26 18 14 14 15 32 33 40 42 44 44 45 45 46 53 57 64 67 68 68 69 69 69 69 70 71 71 70 70 70 69 69 68 66 66 66 65 64 64 62 62 61 60 59 59 60 61 62
35 23 16 14 22 33 33 34 38 41 45 43 44 44 47 61 65 65 65 67 67 67 68 68 68 69 70 70 69 69 69 69 68 68 67 66 65 64 64 63 62 61 60 59 59 58 59 59 61
23 19 14 21 35 30 31 35 38 45 43 43 44 44 44 60 61 62 64 65 65 65 66 66 68 68 68 68 68 68 68 68 68 68 67 65 65 64 63 62 61 59 58 58 58 59 59 60 60
22 20 16 15 24 29 24 28 36 45 46 44 43 42 43 48 57 59 60 62 62 63 63 64 65 66 66 66 66 66 66 67 67 67 66 66 65 65 64 63 61 59 58 57 58 60 60 60 60
22 18 14 13 30 27 16 18 25 34 36 45 43 41 40 43 51 56 57 57 59 59 61 61 63 63 63 64 65 65 65 65 65 65 64 64 64 64 64 63 62 62 60 59 60 60 60 60 60
20 14 10 12 16 18 13 20 22 33 41 43 42 41 41 43 48 50 51 52 53 55 57 59 60 61 61 62 64 64 65 64 64 64 64 63 62 62 61 62 61 62 61 61 62 62 62 60 60
17 12 10 11 12 10 7 12 15 36 44 44 44 44 42 43 45 46 48 50 52 54 56 57 58 58 59 59 62 62 62 62 62 62 62 62 61 61 61 61 62 62 62 62 62 62 62 61 57
16 8 6 5 8 6 7 10 16 33 40 44 42 43 42 41 42 44 46 49 52 54 56 56 59 59 57 57 60 61 62 62 62 62 61 60 60 61 59 59 59 58 59 58 57 57 55 55 55
9 9 5 8 6 5 7 8 9 19 29 45 43 43 44 43 42 42 44 48 51 54 54 54 56 57 55 55 59 60 60 61 61 59 57 56 55 54 53 52 51 52 51 52 52 51 49 49 51
8 7 5 11 13 10 7 5 9 17 37 46 45 45 44 44 43 43 43 47 52 55 55 55 55 54 55 56 56 56 56 57 57 55 55 55 54 52 53 52 52 52 52 51 51 50 50 50 51
12 6 3 6 13 15 11 16 15 16 35 47 46 46 46 46 45 44 45 44 51 56 57 58 58 57 54 55 54 55 53 56 54 53 54 54 55 52 52 52 52 52 53 52 51 51 51 51 50
12 8 10 14 15 15 16 16 14 14 35 46 47 47 46 47 47 46 46 44 51 57 57 57 58 57 56 54 54 53 48 54 52 51 52 52 53 52 50 49 47 49 50 50 50 50 49 48 48
12 16 13 17 18 19 11 11 16 16 27 39 44 44 44 45 45 45 47 46 51 59 56 59 60 59 57 55 53 51 49 50 51 52 52 51 50 48 46 44 45 48 47 47 47 47 46 45 45
17 11 16 17 19 19 18 16 18 16 18 23 29 32 38 43 47 49 50 54 59 58 58 60 60 57 56 56 51 51 48 48 49 49 49 47 47 46 44 44 45 45 45 45 45 44 44 44 44
14 15 25 16 17 21 16 18 23 19 18 22 29 42 46 46 48 49 51 54 57 58 59 59 59 59 55 50 48 50 48 49 47 47 46 45 45 45 44 45 45 45 44 44 43 42 43 43 43
18 20 18 18 19 17 18 22 25 30 36 38 42 44 44 44 45 47 48 48 48 49 51 52 53 50 49 46 46 47 46 45 45 46 46 45 44 43 43 43 43 44 44 43 42 43 42 42 43
25 21 21 21 20 16 20 23 28 31 33 39 41 42 43 43 43 45 47 49 50 50 51 47 44 45 45 45 49 49 46 46 47 47 44 43 42 41 40 41 42 43 42 41 41 41 42 43 43
28 25 24 23 23 20 23 22 28 31 34 35 38 41 43 43 43 44 45 46 44 44 43 42 42 43 44 45 44 44 44 45 45 44 42 41 41 41 41 41 41 41 42 42 42 43 42 41 42
28 30 27 25 23 13 19 20 25 31 33 35 37 40 42 43 44 43 43 44 44 43 43 43 43 42 43 44 43 43 44 43 44 43 40 39 40 40 40 41 41 41 43 42 43 42 42 41 40
29 31 28 27 25 25 23 22 25 31 31 34 36 39 41 43 43 43 43 43 43 42 42 42 42 43 43 43 43 44 41 43 43 41 39 38 40 40 40 41 41 41 42 41 42 41 40 40 39
29 32 32 30 29 24 27 26 26 28 30 33 36 37 39 40 42 43 44 44 44 44 43 42 43 43 43 44 43 42 42 41 40 38 37 39 39 39 39 39 40 40 39 39 39 39 39 39 39
28 31 26 26 25 24 32 29 30 32 33 36 37 37 37 38 40 42 42 43 43 43 43 43 43 44 45 44 43 42 40 39 37 37 37 39 38 38 37 38 39 39 39 39 38 38 39 38 37
29 29 26 23 22 23 27 26 28 34 36 37 37 37 37 37 38 39 39 40 41 43 43 43 41 41 42 43 41 41 40 40 39 38 37 39 37 36 36 38 38 39 38 38 38 38 37 38 37
30 25 28 28 27 24 26 28 30 32 33 34 34 35 35 37 39 40 41 41 42 42 42 42 41 41 40 40 39 39 41 40 39 37 38 37 36 35 36 37 37 37 36 37 37 36 36 35 35
23 27 27 27 19 20 21 27 28 32 34 31 32 34 36 38 39 39 39 40 41 42 41 41 40 39 40 39 38 37 38 39 37 37 36 35 35 35 35 34 34 33 32 33 34 34 34 34 34
27 28 29 27 27 22 20 21 27 34 35 32 34 36 36 37 39 39 39 39 38 39 37 37 37 37 38 37 37 36 35 37 37 36 35 34 35 35 34 34 30 28 27 28 28 28 29 27 26
27 29 29 25 22 26 24 22 31 33 33 34 35 36 36 38 38 38 38 37 36 35 34 33 34 35 37 37 37 35 35 34 35 35 35 35 35 34 34 31 27 27 26 26 26 26 26 26 25

GFSSGP_sfc_dewp_021.txt.gz
Dewpoint
42 31 34 29 22 22 19 20 39 41 46 49 50 50 52 56 51 49 63 65 68 68 69 70 71 71 72 71 71 71 70 69 69 68 68 67 66 66 67 66 65 64 63 62 62 62 62 62 63
35 32 29 25 20 18 28 35 41 44 47 46 48 52 53 57 62 63 64 68 68 68 69 70 71 71 71 71 71 70 69 69 69 68 67 66 66 66 66 64 63 62 61 60 60 60 60 61 61
39 32 21 21 21 19 27 36 42 45 46 44 45 46 52 59 62 62 65 68 68 68 69 70 70 70 71 71 70 70 70 70 69 67 66 66 66 65 64 63 62 61 59 59 58 58 59 59 60
34 24 18 15 15 18 31 36 42 43 44 46 47 47 49 58 62 64 67 68 68 68 69 69 69 70 71 71 70 70 70 69 68 67 66 66 65 63 63 62 61 60 59 58 58 58 59 59 60
31 21 16 15 17 25 33 40 42 43 43 44 45 45 52 64 66 67 67 68 66 68 69 69 69 70 70 69 69 69 69 68 68 67 66 65 64 63 62 61 61 59 59 58 59 59 59 59 61
22 18 14 31 34 33 37 37 45 44 44 47 50 46 48 64 65 66 66 66 67 67 68 68 69 69 69 69 69 68 68 68 68 67 66 65 64 64 62 61 60 59 58 58 59 60 60 61 61
20 18 15 22 37 29 36 33 43 43 44 43 45 43 54 59 63 64 65 65 66 66 64 65 66 67 67 66 66 66 66 66 66 66 66 66 65 64 64 62 60 59 58 59 60 61 61 61 61
22 18 16 15 35 34 27 25 42 45 43 44 43 44 53 50 60 61 62 62 61 62 63 62 62 63 63 63 65 65 65 65 65 65 65 64 64 64 64 63 62 61 60 61 61 62 62 62 61
21 16 12 28 32 39 38 25 30 42 42 44 44 44 54 53 57 55 55 56 57 59 60 60 61 61 61 61 63 64 64 64 64 64 64 63 61 61 61 62 62 62 61 61 62 62 62 61 60
20 16 14 15 31 37 22 37 39 43 44 43 41 44 49 53 52 50 50 52 54 55 57 59 59 60 61 60 62 62 63 62 62 61 61 61 60 60 61 61 62 63 62 62 62 61 61 59 56
16 11 8 7 16 15 14 23 31 43 42 41 40 43 46 50 48 46 48 49 50 53 55 57 57 57 58 58 61 61 61 61 61 61 61 60 60 59 60 58 58 55 54 55 54 53 51 50 52
13 10 7 7 11 7 10 13 33 28 42 43 41 43 45 46 47 47 49 50 51 53 55 56 57 57 56 58 59 59 60 61 61 61 59 58 54 54 52 51 52 51 52 51 50 50 50 50 51
9 7 10 11 9 6 6 5 12 17 43 42 41 42 43 44 45 47 48 50 52 53 55 55 58 57 55 56 58 59 59 60 60 58 57 56 53 52 52 52 51 51 52 51 50 50 50 49 49
11 8 6 12 13 11 11 16 16 25 45 43 41 40 41 41 43 44 46 49 52 53 54 56 56 55 55 56 56 57 57 58 57 55 54 55 52 52 51 49 48 47 49 49 48 48 47 46 46
10 8 9 13 14 15 17 15 14 26 45 43 42 42 43 42 42 42 43 47 52 54 55 56 57 56 55 54 54 54 53 56 54 52 53 53 52 50 48 45 44 47 46 46 46 45 44 43 44
14 15 10 14 17 18 10 6 17 33 46 45 44 45 46 45 46 46 46 45 52 57 57 60 60 59 57 55 54 49 50 51 51 52 51 49 48 46 44 43 45 46 45 45 44 43 43 42 42
16 10 16 17 17 17 15 15 18 24 45 45 37 43 46 48 49 51 53 50 56 57 60 59 60 59 59 56 54 49 48 48 48 48 46 46 46 45 44 45 45 45 44 44 43 42 42 40 40
12 15 22 14 16 18 18 17 25 19 30 30 45 45 45 46 48 53 57 57 57 58 59 59 59 58 54 51 48 48 46 46 46 45 44 43 44 44 43 43 43 44 43 41 41 40 41 40 42
17 19 17 18 19 19 23 27 30 37 42 44 43 44 44 45 46 48 50 52 52 54 55 57 56 52 46 48 46 46 46 48 49 46 43 42 43 42 41 42 41 42 41 40 41 41 41 42 43
22 20 20 21 22 23 27 27 33 37 41 43 42 42 43 44 46 47 48 50 52 53 51 45 44 44 45 46 48 51 52 50 47 43 41 41 41 40 40 40 40 41 41 41 41 42 42 42 42
28 24 23 21 21 24 25 27 29 33 37 41 42 43 42 43 44 47 48 47 45 43 42 42 43 43 46 49 48 46 45 46 44 41 39 40 41 40 41 41 41 42 42 41 41 41 40 39 40
26 30 27 24 18 22 22 23 26 32 35 38 41 43 43 44 46 45 43 41 42 41 41 41 41 42 43 43 42 42 43 42 43 41 39 39 40 40 41 41 42 41 41 40 41 41 39 39 37
29 31 26 26 24 23 23 23 25 33 34 37 39 42 44 43 42 42 42 42 42 42 42 42 42 43 43 43 43 44 42 43 41 39 38 39 40 40 40 40 39 38 39 38 38 39 38 39 37
29 30 32 32 28 23 27 24 26 29 33 35 37 41 42 42 42 43 43 43 42 43 43 43 43 44 44 44 43 42 41 40 38 37 38 39 41 41 38 39 38 38 38 37 38 37 37 37 37
29 29 25 25 25 24 28 28 28 31 33 36 38 39 40 41 42 44 43 43 43 42 43 42 42 43 43 42 41 40 40 38 37 37 37 39 39 38 35 38 38 38 38 38 38 37 37 36 36
28 28 26 22 22 22 27 27 28 34 37 37 37 37 37 38 39 41 41 41 41 42 41 41 40 40 42 40 40 40 39 39 38 37 38 37 37 36 36 37 38 38 38 37 37 37 36 36 34
29 25 29 28 27 24 27 28 31 35 36 36 36 36 37 39 39 39 41 41 41 41 41 40 39 40 39 40 39 39 40 39 39 38 37 38 36 35 35 36 36 37 37 35 37 35 33 33 33
25 28 26 26 18 19 22 26 27 31 33 35 35 37 37 38 38 39 39 41 41 40 40 39 38 38 39 39 38 37 38 39 39 37 37 36 36 35 35 35 35 33 32 30 30 29 30 32 28
27 27 28 28 26 21 19 24 27 32 34 33 35 37 37 38 38 38 38 38 38 36 35 34 35 35 37 37 37 37 36 36 37 37 36 35 34 36 36 36 35 29 28 27 27 27 28 26 25
28 28 27 22 21 25 23 21 29 35 33 35 35 36 38 38 38 37 37 36 35 34 32 33 32 31 34 36 35 34 35 35 34 35 35 35 35 34 33 32 31 28 28 27 25 26 26 25 24

GFSSGP_sfc_dewp_024.txt.gz
Dewpoint
51 36 33 29 20 20 17 18 40 41 46 51 53 52 54 58 51 49 64 67 68 68 70 70 71 71 71 71 71 71 68 69 68 68 67 66 66 66 65 64 63 62 61 60 60 60 60 60 61
34 32 28 25 18 15 26 27 42 47 50 52 52 54 54 57 61 62 64 68 68 69 69 70 71 71 71 71 71 69 68 68 68 67 66 66 66 64 63 63 63 61 59 59 58 58 58 59 60
39 31 20 20 21 17 22 40 45 46 46 45 45 48 56 58 62 62 67 68 68 68 69 70 70 70 71 70 70 70 70 69 68 66 65 66 64 63 62 62 63 60 58 58 59 58 58 59 60
33 24 18 15 15 18 27 42 45 44 45 50 49 48 53 62 62 65 67 68 67 67 68 69 69 70 70 70 70 70 70 69 68 67 66 65 63 62 61 61 61 59 59 60 60 60 59 60 62
26 20 15 19 20 25 28 42 44 43 44 46 46 47 54 63 65 67 67 67 66 68 69 68 68 69 70 70 69 69 69 68 67 67 66 64 63 62 61 61 60 60 59 60 60 60 61 62 63
21 18 14 33 32 33 39 45 45 44 45 46 50 48 54 65 64 65 67 66 66 67 68 69 69 69 69 69 69 68 68 68 67 67 66 64 64 63 61 61 60 60 60 60 60 61 61 62 63
18 16 14 33 35 31 34 43 44 46 45 46 47 51 60 62 64 65 65 66 66 67 67 68 67 68 68 67 67 66 67 67 67 66 66 65 64 64 63 62 61 61 61 62 62 63 63 62 62
22 17 15 23 36 36 36 36 46 44 44 44 51 54 56 59 63 64 65 65 65 64 64 63 64 65 63 64 65 65 65 65 65 65 65 64 63 63 63 62 62 63 62 62 62 63 63 63 62
21 16 13 31 36 38 37 27 35 44 42 45 43 54 57 61 61 61 60 60 60 61 61 60 61 61 60 61 63 65 65 65 64 64 63 62 60 60 60 62 62 63 63 63 63 62 62 60 58
21 16 14 29 38 38 36 32 41 42 44 41 45 53 58 59 60 60 58 58 57 58 58 59 59 59 60 61 62 61 62 62 62 62 61 61 60 60 60 61 62 60 57 58 57 57 55 53 52
18 15 13 17 35 38 34 35 38 43 42 41 47 52 56 57 55 55 54 54 54 55 56 58 59 59 59 59 61 60 61 61 61 60 60 60 60 59 59 56 53 52 53 51 51 50 50 50 51
15 14 7 8 27 26 23 24 42 37 40 43 50 52 53 53 50 49 48 49 50 53 54 57 57 57 58 58 60 59 60 60 60 60 60 59 56 54 51 52 51 51 51 50 50 50 49 47 47
16 11 10 9 9 16 13 19 39 29 44 42 48 48 49 49 46 45 45 47 49 52 53 55 57 56 56 57 58 58 59 60 60 60 57 56 53 52 51 51 49 49 49 48 47 47 45 45 45
16 8 10 13 7 7 8 12 15 28 42 42 45 45 47 47 46 47 48 50 51 53 54 56 57 57 55 55 57 57 58 58 59 55 54 54 52 51 49 46 46 47 46 46 46 44 43 42 43
11 6 9 12 13 15 16 13 15 38 41 40 42 44 43 43 44 45 46 49 52 54 55 57 58 56 56 54 56 58 54 56 53 53 53 53 51 46 44 44 45 45 45 44 44 43 42 41 41
13 14 7 11 16 17 9 7 15 44 42 41 41 42 45 48 48 48 45 46 53 56 58 59 60 58 58 56 56 52 54 52 51 50 48 47 46 45 45 44 44 45 44 43 43 42 41 40 40
15 11 14 16 18 16 11 13 24 34 44 42 43 43 47 48 51 55 56 47 57 59 58 59 59 57 58 57 53 50 49 49 46 45 45 45 45 45 43 44 44 45 42 42 41 40 41 39 41
9 13 21 13 22 18 18 29 34 36 39 43 45 45 46 47 48 54 56 58 58 58 59 59 59 58 56 53 51 51 47 46 46 45 48 42 44 44 44 43 42 42 40 41 41 40 41 41 42
16 16 15 17 18 28 32 34 37 41 43 43 44 45 45 46 48 52 53 55 56 57 58 58 59 57 48 50 48 48 46 48 51 44 43 43 42 41 40 40 41 42 41 41 42 41 41 42 42
21 18 18 22 23 29 32 31 35 39 42 42 43 44 45 47 48 49 51 53 55 56 56 54 53 50 47 49 50 49 50 48 43 41 41 40 40 40 40 40 40 41 41 40 41 40 40 40 41
26 21 22 21 26 27 29 29 32 36 41 42 42 43 44 47 48 49 50 50 47 44 43 43 44 44 47 48 47 45 45 44 41 39 38 39 40 40 40 40 41 41 41 40 40 39 38 38 39
24 29 25 22 23 21 24 24 29 35 38 40 42 42 43 45 46 44 43 41 41 41 41 42 42 43 44 43 42 42 42 43 42 39 38 38 39 40 40 40 41 40 39 39 39 40 38 38 36
28 29 26 26 24 22 23 26 26 36 36 38 41 42 43 44 42 41 40 41 41 41 42 42 43 43 43 44 44 43 42 41 39 38 37 39 40 40 40 39 38 37 38 37 37 37 36 37 36
29 31 30 31 27 22 26 23 24 32 35 37 40 42 43 42 42 42 42 42 42 42 43 43 44 44 44 43 42 42 40 38 37 37 38 40 39 40 38 38 38 37 37 36 36 36 36 36 36
31 28 25 25 24 23 28 25 25 31 35 38 39 40 41 42 42 43 42 42 42 43 42 42 42 42 42 40 40 40 40 38 37 37 37 37 38 38 35 37 37 37 37 37 37 36 36 35 35
27 28 26 21 23 23 27 26 28 33 35 38 39 39 39 40 43 43 42 42 42 41 40 40 39 40 40 40 39 40 39 38 38 38 38 38 37 36 35 36 38 38 38 37 37 37 36 35 34
28 25 28 27 26 24 26 28 33 36 36 37 37 37 37 39 40 40 40 40 40 40 40 40 39 39 39 39 39 39 39 39 39 38 38 37 37 36 35 35 37 37 36 36 35 35 33 32 32
27 29 24 25 17 17 22 25 28 33 35 36 36 36 38 38 39 40 40 40 40 39 38 37 37 37 38 40 38 37 37 36 36 37 37 36 36 35 36 36 35 35 34 33 31 30 29 31 30
27 26 27 27 25 19 17 23 29 34 35 35 36 37 38 37 38 38 39 39 36 35 34 33 33 33 35 37 37 35 34 35 35 36 36 36 36 36 35 35 35 34 31 30 29 28 27 28 26
27 27 25 20 19 24 22 20 29 32 35 35 36 37 38 38 37 36 36 35 34 33 32 31 30 31 34 34 31 31 33 35 34 34 34 35 35 35 35 32 34 34 33 28 27 26 27 26 24

GFSSGP_sfc_dewp_030.txt.gz
Dewpoint
46 28 23 30 22 19 21 23 36 46 49 52 52 50 51 54 51 52 62 64 66 66 65 66 70 71 71 70 70 70 69 68 68 67 67 66 64 63 63 64 64 62 59 58 59 60 60 61 61
23 26 28 25 15 14 17 21 37 49 50 49 49 50 49 51 59 62 62 65 66 66 65 64 70 71 71 71 71 70 68 67 66 67 66 64 63 62 62 62 63 63 60 59 60 60 60 61 61
31 26 22 19 13 12 19 38 45 46 46 48 48 52 51 52 61 62 65 66 66 66 64 66 70 70 70 70 70 69 69 68 68 67 64 62 62 61 61 63 64 64 61 61 61 61 60 60 61
21 23 21 15 13 17 33 44 44 45 44 45 52 47 57 60 61 65 66 66 66 65 65 68 69 70 70 70 70 69 69 68 68 67 64 61 61 61 61 64 64 62 62 61 61 62 62 62 62
26 22 17 15 16 18 36 46 46 44 46 42 44 48 54 62 64 67 66 66 66 66 66 67 68 69 70 70 69 69 68 68 68 66 65 63 61 61 62 63 64 62 62 62 62 62 63 63 62
17 20 14 16 27 31 35 45 44 42 42 44 44 44 57 64 64 66 67 66 65 65 65 66 69 69 69 70 69 68 68 68 68 67 65 63 63 63 62 62 62 62 63 63 63 63 62 62 62
19 15 18 29 33 38 40 45 42 39 39 44 46 48 60 63 65 66 65 64 65 65 65 67 66 68 69 68 67 67 67 67 67 67 66 65 64 64 63 63 63 63 63 63 62 60 60 60 60
22 18 28 31 31 36 44 42 39 38 39 48 51 47 58 62 64 64 63 65 66 66 67 66 64 64 64 64 66 66 66 66 66 66 64 63 64 64 62 63 63 62 63 62 60 59 59 59 59
24 15 22 33 34 39 42 40 41 42 44 47 48 52 57 64 64 64 64 65 66 66 66 65 62 62 62 59 62 64 65 65 65 64 64 61 58 58 58 62 61 61 60 59 58 57 57 58 57
21 17 15 25 35 35 37 37 39 43 44 44 51 59 62 64 64 62 63 63 64 65 66 63 63 62 60 55 59 59 57 59 60 60 61 60 62 61 59 58 60 58 57 57 57 55 56 51 44
21 17 19 32 38 38 37 40 41 40 42 44 47 59 61 62 62 61 61 62 63 63 60 61 62 61 57 56 56 56 58 60 62 63 63 64 63 63 59 55 54 55 55 49 49 46 45 48 45
19 19 18 35 36 32 35 38 39 40 39 43 48 58 61 61 62 60 60 58 57 55 55 56 58 60 59 56 56 59 59 61 62 63 64 64 62 62 58 54 54 54 50 50 48 46 48 46 44
20 17 15 24 32 28 33 35 36 39 41 47 54 57 57 56 56 55 53 51 51 50 53 54 57 58 59 60 60 61 62 63 64 64 62 61 59 59 55 54 51 51 50 48 48 46 44 44 43
21 15 11 13 26 33 33 34 39 37 45 51 54 53 51 49 47 48 48 47 48 51 54 56 55 58 58 60 61 62 62 63 63 63 62 60 58 58 53 51 49 49 48 47 45 45 43 42 42
15 11 11 11 18 30 32 28 24 37 44 49 49 49 49 48 46 44 44 45 48 51 56 57 59 58 59 60 61 59 57 58 61 60 60 59 56 54 52 51 50 48 47 47 44 44 43 42 41
10 12 9 14 18 18 28 19 28 40 42 46 49 49 50 48 45 43 45 45 48 52 57 59 60 60 60 59 59 59 58 59 59 58 56 53 51 51 51 49 47 46 45 44 44 43 43 40 40
14 9 10 13 20 19 22 15 31 40 40 42 46 46 46 46 48 51 50 46 49 54 58 60 61 60 59 58 58 58 57 55 55 52 50 51 50 49 47 46 46 46 44 45 43 40 39 36 36
13 12 7 10 19 15 19 26 30 40 40 41 43 44 45 46 49 53 52 51 54 57 59 60 60 60 59 57 57 54 54 51 48 48 49 47 46 47 46 45 47 45 42 40 40 40 37 36 35
12 13 13 17 29 23 21 28 32 39 41 42 43 45 46 47 51 55 57 57 57 59 60 60 61 60 58 57 52 50 49 48 49 46 46 46 45 44 46 44 44 42 40 41 41 38 37 34 37
15 14 20 23 28 29 29 31 34 38 42 43 43 44 46 49 52 55 57 57 58 59 59 60 59 59 58 55 52 50 49 49 47 45 46 45 44 44 44 44 42 40 38 40 40 39 35 33 35
22 20 22 21 28 30 29 29 33 38 41 43 45 46 47 50 52 54 56 57 58 58 59 58 58 57 54 52 51 51 50 47 44 44 43 43 44 43 44 43 41 41 39 36 39 38 36 33 33
21 25 24 25 22 16 26 15 31 36 38 42 44 46 49 52 53 54 56 57 57 57 58 57 54 51 50 51 49 48 46 45 47 47 44 42 44 43 40 39 41 42 40 40 38 34 37 35 32
26 27 24 23 22 23 23 18 29 37 37 41 46 49 51 52 51 51 51 51 50 52 54 55 52 48 49 48 47 48 47 46 44 44 42 44 44 42 40 41 42 42 41 40 40 38 39 35 33
31 29 28 27 25 21 20 21 14 30 34 41 46 47 49 48 48 45 44 44 44 47 50 51 48 46 47 48 48 48 47 44 41 40 38 35 36 38 40 42 43 43 42 40 39 39 38 36 34
31 27 23 25 24 21 27 23 17 27 35 40 44 43 46 44 43 41 42 41 43 46 48 48 46 46 47 47 45 43 41 39 35 36 36 38 36 36 37 40 43 42 41 41 39 38 38 35 33
27 25 23 11 19 20 27 22 24 32 33 40 42 41 44 42 42 41 41 42 44 46 46 46 44 43 43 42 40 40 38 39 38 39 39 36 34 35 39 41 40 39 39 38 38 37 37 37 35
28 25 30 28 30 29 20 25 29 34 33 38 41 40 41 40 41 42 43 44 45 45 46 45 42 39 39 40 39 40 42 41 38 34 34 34 36 32 33 36 36 36 36 37 38 37 37 35 34
29 29 26 29 23 14 13 17 16 31 33 37 40 40 39 40 41 43 43 45 45 44 45 43 39 37 38 38 40 39 37 33 33 34 32 32 32 31 31 31 31 34 35 36 37 35 34 34 33
29 27 26 25 27 17 14 11 28 29 33 36 39 39 40 40 42 43 44 44 44 42 39 37 35 35 36 36 37 35 31 31 32 31 30 31 33 31 30 32 33 33 33 35 35 36 34 31 30
28 27 24 23 20 28 27 14 25 33 35 36 38 39 40 41 42 43 43 42 39 37 36 34 33 33 34 33 31 29 29 29 29 29 30 32 32 32 32 34 33 33 33 35 36 33 29 29 28

GFSSGP_sfc_dewp_033.txt.gz
Dewpoint
51 39 22 21 22 23 22 21 24 42 45 50 50 48 49 54 54 50 59 64 63 62 63 65 70 71 71 70 70 70 69 68 68 67 66 65 64 63 63 64 64 62 59 61 61 60 61 61 61
29 15 16 21 18 16 15 18 42 49 53 49 50 50 48 51 58 60 61 64 64 63 63 64 70 71 71 71 70 69 68 67 67 66 64 63 62 62 61 63 64 63 61 61 59 59 59 59 60
28 15 20 18 18 14 15 35 46 45 46 48 48 49 48 54 59 61 62 65 65 64 63 67 70 70 71 70 70 69 68 68 67 66 63 62 61 61 63 64 64 64 62 61 61 60 59 59 61
20 11 19 18 18 16 19 42 42 41 43 45 48 47 52 58 57 63 65 66 65 64 65 68 69 70 70 70 70 68 68 68 67 65 63 61 61 62 63 65 64 63 62 61 61 62 62 62 62
21 17 13 17 18 16 20 42 43 46 44 43 46 50 50 54 59 63 64 64 65 66 67 67 68 69 70 70 69 68 68 68 67 65 64 62 62 62 63 63 63 62 62 62 62 62 62 62 62
13 13 14 15 17 25 26 43 44 42 39 38 39 46 51 57 56 60 65 66 66 67 67 66 68 68 69 70 68 68 68 68 67 66 64 62 63 63 62 63 63 63 63 62 61 61 61 61 61
16 13 13 14 30 34 29 40 44 41 38 36 40 41 55 58 59 65 65 67 67 67 66 66 65 68 68 67 67 67 67 67 67 66 65 64 65 65 64 64 63 63 63 61 60 60 60 59 59
13 15 15 20 31 37 35 38 41 38 41 48 46 49 47 60 64 62 63 63 66 66 67 67 66 63 64 64 66 66 66 66 66 65 64 63 63 63 63 63 61 62 61 60 59 59 59 59 59
19 16 13 29 38 38 40 40 40 38 38 42 48 46 54 62 62 61 63 64 65 65 65 63 59 60 60 60 63 65 66 66 64 63 63 61 56 58 58 61 62 61 60 58 57 56 56 57 58
15 12 12 32 42 47 37 35 37 39 40 43 48 53 60 63 61 61 62 62 63 64 60 58 59 59 57 52 57 57 58 57 59 58 59 59 59 60 56 57 60 59 58 57 55 56 54 53 45
16 15 21 19 31 33 35 35 34 35 39 40 43 57 61 61 61 60 61 62 62 62 55 57 60 59 54 55 54 54 58 58 59 61 62 63 59 60 59 55 54 55 56 51 49 48 46 49 47
17 17 19 25 34 36 29 34 31 40 46 42 50 59 61 60 59 59 59 60 58 55 55 56 57 57 57 53 53 56 57 59 61 62 63 62 61 60 57 52 53 53 50 51 48 47 50 48 47
19 17 18 32 32 32 35 34 37 40 41 41 55 58 57 56 56 57 55 52 53 51 51 53 55 57 58 58 58 60 61 62 63 64 62 59 59 62 57 54 51 51 49 48 49 48 47 48 46
19 18 23 27 30 28 32 32 41 36 39 46 52 52 51 50 49 49 48 49 49 49 51 53 54 57 58 59 62 64 64 62 61 62 63 62 61 61 55 55 50 50 50 49 46 46 45 45 45
17 17 20 23 24 29 31 26 28 37 39 43 44 43 41 42 42 43 45 46 48 50 53 54 57 59 60 61 59 58 57 57 59 61 62 60 60 58 58 55 52 50 50 49 47 47 46 44 41
14 15 15 18 19 27 29 22 31 35 38 40 41 41 40 39 38 40 42 44 48 52 54 57 56 59 60 58 55 57 60 60 59 60 59 56 56 56 54 54 53 48 48 47 47 44 41 40 39
15 14 14 14 16 21 28 29 29 35 37 39 41 43 43 43 40 40 41 43 48 53 56 58 59 60 60 60 60 60 59 57 57 54 55 53 51 51 50 48 48 49 46 46 43 42 41 38 36
15 14 13 12 16 20 19 18 26 33 33 37 41 43 44 43 43 48 47 45 46 54 59 59 60 60 60 60 59 57 56 55 53 50 49 49 48 49 48 48 49 46 44 43 43 43 39 36 33
17 14 9 13 18 15 16 14 21 31 33 35 38 42 43 45 48 52 50 49 52 57 58 59 61 60 58 56 55 54 53 50 50 48 49 49 48 47 48 46 46 45 42 43 43 39 38 34 35
14 12 16 16 19 21 13 14 25 30 32 33 36 40 43 45 49 52 53 54 55 57 59 59 59 59 57 55 54 52 50 50 48 48 49 47 47 46 45 46 43 43 41 40 39 41 37 35 35
14 14 17 16 20 21 22 20 26 32 36 37 38 39 41 44 48 52 53 55 57 57 58 59 59 58 56 54 51 50 51 50 47 46 46 45 46 44 43 43 42 41 39 36 39 39 38 34 34
18 22 19 20 21 16 23 13 22 30 34 39 41 42 42 45 48 52 54 55 56 58 59 58 57 55 53 52 49 50 45 44 46 46 45 45 45 43 41 40 41 41 40 40 39 35 38 37 33
26 25 23 22 18 23 19 14 31 30 29 34 38 42 45 48 50 51 54 55 56 57 56 55 54 50 50 50 49 49 46 48 47 46 46 46 45 44 40 40 42 42 40 40 40 40 38 35 33
27 25 25 25 21 21 16 16 16 26 27 33 39 43 46 49 50 51 51 51 50 54 55 54 49 47 49 48 49 48 49 45 43 42 40 35 35 36 37 37 39 40 40 40 39 39 38 37 37
25 24 24 24 22 21 21 18 16 19 29 31 41 45 48 49 48 45 44 43 46 50 52 51 47 46 48 49 48 48 46 41 38 37 35 36 34 34 35 37 39 37 37 37 37 40 39 38 37
24 21 25 17 17 16 23 14 18 27 30 35 41 43 47 46 45 41 41 41 44 46 47 46 45 45 47 46 43 41 37 36 36 37 36 33 32 34 36 35 35 35 35 35 37 38 39 39 39
23 23 26 24 33 26 12 15 28 31 31 34 40 41 44 43 41 40 41 42 44 46 47 47 46 44 44 42 39 39 38 38 35 34 34 33 34 29 30 33 32 32 32 33 35 36 38 38 38
28 26 23 24 21 16 10 10 17 27 27 33 38 40 42 41 40 41 41 43 45 46 48 48 46 42 39 38 38 38 40 35 32 33 32 31 32 31 32 31 31 32 32 33 33 34 36 37 39
28 25 23 23 25 20 14 14 19 22 27 32 36 39 41 41 40 41 42 44 45 46 46 45 40 37 36 37 39 39 34 32 32 31 31 30 32 31 30 29 31 31 31 31 34 35 36 34 33
28 25 25 26 19 25 29 15 21 25 26 32 34 38 40 41 40 41 43 44 45 45 43 41 38 34 36 36 35 35 32 29 30 29 28 31 31 31 29 30 31 30 32 34 35 33 30 31 30

GFSSGP_sfc_dewp_036.txt.gz
Dewpoint
52 46 39 25 18 23 21 20 39 47 49 51 49 50 53 55 54 53 62 62 62 61 66 67 70 70 70 71 70 70 69 68 67 67 67 66 65 64 65 65 64 64 61 60 60 60 60 60 59
32 32 20 13 17 17 16 41 42 49 53 56 52 49 50 55 57 61 62 62 62 62 63 67 70 70 71 70 70 69 68 67 67 66 65 65 63 63 64 65 65 64 61 60 59 59 58 59 59
39 25 13 15 16 17 16 41 44 45 49 54 50 48 51 56 60 61 64 63 62 61 64 68 70 70 70 70 69 69 68 67 66 65 64 62 63 63 64 65 65 64 61 61 61 61 60 61 62
22 20 10 16 18 18 31 43 41 41 45 46 47 46 50 58 58 62 66 64 63 62 66 68 69 70 70 70 69 69 68 66 65 64 64 63 63 64 64 65 65 63 62 62 62 61 62 63 63
21 17 8 11 14 16 18 42 42 46 47 43 45 49 47 55 62 64 65 65 65 67 67 67 68 69 69 69 69 69 68 66 65 65 65 64 63 63 64 65 65 64 62 61 61 61 61 63 62
15 14 13 12 13 30 27 45 47 47 50 38 44 45 47 56 59 62 67 66 66 66 67 67 68 69 69 69 68 68 67 66 65 65 65 64 64 65 65 65 65 64 63 61 61 61 61 61 60
15 13 10 12 14 23 32 45 46 44 42 38 38 48 54 52 60 64 65 66 67 67 66 67 67 68 67 66 67 67 67 66 66 65 65 65 65 65 65 65 64 63 62 61 60 60 60 60 59
12 13 13 13 13 33 39 48 50 50 44 47 51 38 49 59 63 60 61 64 64 66 67 66 66 66 65 64 66 66 66 65 64 64 64 63 63 64 64 63 64 63 61 59 58 57 57 58 57
14 12 13 14 25 41 43 44 45 40 40 45 48 53 57 61 60 60 61 63 64 65 65 65 63 63 63 64 65 65 66 65 63 63 63 62 59 61 59 62 62 61 60 58 56 56 54 58 57
15 16 13 23 44 44 48 52 36 36 35 40 50 61 60 58 57 59 60 62 62 62 64 62 63 61 60 56 61 61 61 60 59 59 61 62 63 60 57 59 61 60 58 56 55 54 57 54 48
16 15 15 20 43 46 47 42 36 36 35 40 47 58 60 59 60 60 60 60 60 62 62 60 62 61 56 55 57 58 59 61 62 63 64 63 63 62 61 58 55 58 58 55 53 52 50 51 50
14 15 13 24 44 44 43 38 38 39 42 43 54 59 59 58 58 59 60 61 58 55 57 58 59 60 58 57 57 60 62 63 65 63 63 64 63 62 59 58 58 56 55 52 54 52 52 50 50
14 16 18 33 33 34 33 38 45 41 38 50 58 59 57 54 57 57 59 58 54 54 56 57 59 60 60 61 62 63 63 64 65 64 63 64 62 63 60 58 56 55 54 51 49 49 48 50 48
17 20 29 31 26 30 37 42 47 45 46 53 55 55 53 50 52 54 51 52 53 52 54 56 57 61 60 63 63 63 65 65 63 63 63 62 61 61 60 55 53 52 50 51 49 50 50 48 47
21 17 24 24 26 31 44 38 32 35 45 48 48 49 47 47 49 48 49 51 50 50 53 55 58 60 63 62 61 59 58 59 61 62 62 61 60 58 56 54 53 51 50 51 50 49 47 45 43
19 20 19 23 21 30 37 35 31 34 39 41 41 43 42 43 44 46 47 47 49 51 52 57 58 62 60 59 58 58 60 60 60 60 59 57 55 55 55 53 52 51 51 49 49 47 44 43 42
19 16 14 19 18 25 33 32 30 32 36 37 39 38 37 38 40 43 46 47 50 52 55 58 61 61 59 60 60 61 60 58 57 56 55 54 53 53 52 52 52 52 50 49 46 46 45 40 38
19 16 18 14 13 17 28 27 27 28 35 39 39 40 40 38 37 40 43 47 50 55 58 59 61 61 61 60 60 58 57 56 56 54 53 51 51 52 52 52 51 50 47 47 46 45 42 40 39
20 19 14 13 14 16 27 22 21 25 29 38 40 42 43 42 45 47 50 50 52 59 59 60 60 60 59 58 57 56 55 53 53 52 52 52 51 50 50 50 49 47 46 45 43 42 41 40 40
20 17 20 14 14 14 15 12 17 23 27 32 38 41 43 44 45 51 51 51 55 59 59 60 59 59 58 57 57 57 54 53 52 52 52 51 50 49 48 47 46 46 44 43 43 42 41 39 39
18 16 21 18 14 13 18 10 19 23 25 28 36 39 42 45 48 51 51 55 58 59 59 60 59 59 58 58 55 54 53 53 50 50 49 49 49 48 45 45 44 44 43 42 42 41 40 37 37
17 25 22 18 18 15 24 18 20 24 27 29 32 36 40 43 47 50 52 54 56 60 60 60 59 58 58 56 53 52 50 48 49 49 49 48 48 46 44 43 43 44 44 43 43 39 41 38 37
23 28 25 18 18 26 20 22 26 26 29 32 37 39 40 42 45 49 52 54 57 59 60 60 59 58 56 53 53 53 52 52 51 50 50 49 49 48 45 44 44 44 44 43 43 43 42 40 38
28 25 23 24 23 29 29 26 24 27 29 33 36 40 42 44 49 50 53 55 56 58 59 60 58 52 52 52 52 52 52 49 49 48 47 45 42 42 43 41 43 43 42 42 42 41 40 39 39
22 21 27 31 31 27 18 17 25 30 32 44 37 39 43 48 49 50 52 53 54 55 57 54 50 49 51 52 51 52 50 47 43 41 41 41 40 39 41 41 40 39 39 40 40 40 41 40 38
33 18 30 27 29 26 20 16 19 27 28 32 39 43 46 48 50 50 50 49 50 53 54 52 48 47 49 51 50 49 45 43 40 43 41 39 38 39 38 36 37 37 37 37 38 39 39 40 39
21 21 24 27 35 34 18 10 29 28 28 30 40 42 45 46 47 46 44 46 48 49 52 51 48 47 49 49 46 45 43 42 42 41 39 39 38 33 37 37 36 36 36 37 37 36 37 38 38
25 23 26 26 25 21 13 12 27 27 26 30 38 42 44 45 45 43 41 45 46 48 50 52 50 47 48 44 45 42 43 41 41 37 37 35 35 34 35 35 34 35 36 36 36 37 36 37 38
26 23 22 18 28 29 26 18 22 21 25 30 36 41 43 45 43 42 41 43 46 48 49 50 48 45 43 41 42 43 41 40 37 37 36 34 34 34 34 33 33 34 34 35 35 36 36 34 34
25 27 24 35 24 30 36 25 22 25 23 31 32 37 42 43 43 41 42 44 45 47 47 48 47 43 41 41 42 41 39 38 37 36 35 35 34 35 33 33 33 33 33 33 33 34 34 32 31

GFSSGP_sfc_dewp_039.txt.gz
Dewpoint
54 51 46 35 18 22 21 22 46 49 50 54 53 55 56 56 55 53 64 63 67 68 69 69 70 71 71 71 70 70 69 68 67 66 66 66 66 65 66 66 64 64 61 60 59 58 59 59 60
38 37 39 23 13 15 17 33 47 51 54 55 52 52 55 57 60 62 61 64 66 68 68 69 70 70 70 70 69 69 67 67 66 66 65 66 65 65 66 66 65 64 61 60 60 60 60 60 61
45 37 19 12 12 13 17 41 45 51 53 51 48 49 54 58 61 63 63 63 65 66 67 69 69 69 69 69 69 68 67 66 66 65 65 64 64 64 64 65 64 64 61 61 61 60 60 61 61
31 23 16 9 12 16 17 42 45 46 47 48 48 49 52 59 61 64 65 63 63 66 68 68 68 69 69 69 69 67 66 65 65 65 66 64 64 64 64 66 65 62 61 61 60 60 60 61 60
25 22 8 9 12 20 41 46 46 46 45 45 49 47 51 56 64 66 66 67 66 67 68 67 67 68 69 69 68 67 66 65 66 66 66 65 64 64 64 65 65 63 61 60 60 60 61 61 61
24 18 14 11 10 15 45 46 46 46 46 46 49 48 50 58 63 66 67 67 67 66 66 65 66 68 68 68 67 66 66 65 65 66 65 65 65 65 65 65 65 63 61 60 60 61 61 60 60
19 15 12 10 9 37 48 50 48 48 44 43 46 50 53 56 64 65 65 67 66 66 64 66 67 67 67 67 66 65 65 65 65 65 65 65 65 65 65 65 64 62 62 60 59 58 58 58 58
18 13 11 11 11 43 48 50 50 45 44 48 52 50 52 59 60 64 64 65 65 65 65 67 65 64 64 65 65 65 64 64 64 64 64 63 64 64 63 64 64 63 61 57 56 55 56 57 55
19 13 10 10 33 42 49 47 51 50 44 48 54 56 60 58 60 61 62 62 62 64 64 65 64 62 64 64 64 64 64 63 63 63 62 61 60 61 59 61 62 61 59 56 55 53 57 58 56
16 14 14 22 41 43 47 47 48 46 42 52 52 61 60 58 56 58 59 59 59 62 64 64 63 62 61 61 62 62 60 59 59 59 60 60 60 59 56 60 61 60 58 55 56 54 56 54 48
15 13 15 28 44 45 46 45 47 46 42 46 53 58 57 57 57 58 59 59 59 61 62 63 62 60 57 59 60 60 59 59 59 60 60 61 60 59 58 57 57 56 57 52 52 51 50 47 48
14 15 17 42 45 43 41 41 40 39 41 52 55 58 56 58 59 59 60 58 59 61 61 60 60 57 55 58 58 58 60 62 62 62 62 60 62 61 58 55 56 55 54 50 49 48 47 48 48
15 14 35 43 44 43 42 40 37 38 51 59 58 58 59 59 59 59 60 60 58 59 57 56 57 53 54 57 60 61 62 63 63 63 61 59 58 59 57 55 53 51 50 47 47 48 49 47 45
17 17 31 39 40 41 40 42 37 37 46 56 55 57 57 57 57 57 57 58 57 56 55 56 56 56 60 62 62 63 63 62 62 62 61 60 59 56 53 52 50 49 48 49 48 47 45 43 43
25 21 30 34 38 39 36 37 41 42 49 55 55 55 54 56 57 56 54 52 54 54 55 55 56 60 61 60 58 58 58 60 60 61 60 57 57 55 53 51 48 48 49 48 47 44 44 42 41
21 21 21 22 37 40 34 34 37 39 47 51 51 50 48 51 54 51 51 50 52 53 53 55 58 60 58 57 58 59 59 59 59 59 55 53 53 52 51 50 48 49 49 48 46 44 42 40 38
23 17 20 21 34 34 33 32 33 42 46 46 46 44 44 44 47 48 48 48 51 52 54 57 60 58 58 58 59 59 57 58 57 55 53 52 52 51 49 49 49 49 48 46 44 43 41 37 37
22 19 18 19 29 32 30 29 30 31 38 39 39 38 39 40 44 45 47 49 52 55 55 60 58 59 58 58 58 58 56 56 54 54 52 50 50 51 51 50 48 47 45 44 43 41 40 38 38
27 25 20 19 17 30 27 24 27 28 36 39 38 39 39 38 40 44 45 51 53 57 58 59 59 59 58 58 57 56 54 53 52 51 50 49 50 48 49 49 48 45 44 41 41 40 38 38 39
29 26 20 21 17 23 25 24 24 24 30 39 41 42 41 45 45 47 46 51 54 56 59 59 59 59 58 58 57 55 52 51 50 49 50 49 48 48 46 45 44 42 41 41 40 39 39 38 37
26 24 21 22 17 14 17 21 18 23 28 33 40 42 42 45 48 49 49 54 57 56 59 59 59 58 57 58 56 53 51 51 49 49 48 47 48 46 45 44 42 41 41 39 39 39 38 36 36
21 25 26 26 22 16 23 20 25 24 24 27 37 41 43 44 49 50 50 53 57 58 59 60 59 59 57 58 53 50 50 48 47 48 48 47 45 44 43 42 42 42 42 40 41 40 39 38 35
26 29 28 28 22 25 23 21 25 25 28 28 30 36 41 44 50 50 51 53 58 59 60 60 60 59 58 57 51 50 50 49 49 49 47 46 45 44 43 43 42 41 42 41 40 40 41 40 37
30 30 29 32 29 25 22 24 26 24 24 32 33 39 39 42 49 51 52 57 58 60 60 59 58 58 57 52 51 50 49 47 46 47 47 47 45 42 40 39 39 39 38 37 37 37 38 38 38
30 25 27 27 29 27 28 28 26 28 28 32 34 36 40 47 49 52 55 55 57 57 57 58 58 54 51 50 50 49 47 45 44 43 40 39 38 39 37 35 36 36 36 36 36 36 37 38 38
27 29 29 25 28 28 30 25 24 29 33 38 38 39 44 47 49 52 53 54 56 56 57 57 53 49 49 49 49 45 40 39 41 39 37 37 38 38 35 35 35 34 34 34 35 35 35 36 38
30 26 30 33 33 29 26 19 28 29 33 39 41 42 46 48 49 50 50 51 53 53 52 49 48 48 49 49 44 39 40 40 39 38 36 38 36 34 35 34 33 33 33 34 34 35 35 36 36
27 27 26 28 21 21 21 19 28 30 31 39 42 44 46 47 47 46 45 48 49 49 50 49 48 48 48 44 41 40 39 38 39 38 35 36 34 34 33 33 32 32 33 34 35 35 35 35 36
27 26 25 25 30 24 23 20 24 26 30 31 41 43 45 45 45 43 42 46 47 48 48 48 47 47 43 40 40 41 39 42 36 36 36 35 35 34 32 32 31 31 32 33 32 33 33 33 32
25 30 33 27 21 27 27 24 21 22 28 30 30 42 44 45 44 42 41 44 46 46 48 47 47 43 40 40 40 38 38 37 36 36 35 35 33 34 32 31 31 33 33 31 31 32 31 30 30

GFSSGP_sfc_dewp_042.txt.gz
Dewpoint
56 52 44 34 18 21 20 21 39 49 50 53 56 56 57 58 55 49 62 64 68 68 70 70 70 71 71 70 70 69 68 66 65 66 66 66 66 65 65 65 64 63 61 60 60 59 60 60 62
41 42 37 24 12 12 14 22 44 50 52 54 50 55 57 58 61 61 63 67 67 69 69 69 70 70 70 70 69 67 66 65 66 66 66 66 66 64 65 65 64 64 61 60 59 58 59 60 62
43 36 25 13 11 9 13 37 47 51 53 50 47 52 56 58 61 61 65 67 67 68 68 69 69 69 69 69 68 67 66 66 66 66 66 65 64 63 63 65 64 64 60 59 58 58 60 62 61
30 23 19 8 9 14 15 36 49 51 48 47 50 50 55 58 62 63 65 67 66 67 68 68 69 69 69 68 67 66 66 65 66 66 66 65 64 63 64 65 64 63 60 58 58 58 61 61 61
25 20 13 7 8 17 45 46 49 45 45 47 47 48 53 58 64 64 65 65 67 67 68 68 67 68 68 67 67 66 66 66 66 66 66 65 63 63 63 64 64 63 60 59 58 60 60 61 61
25 18 13 12 17 46 47 51 48 47 46 48 47 49 52 63 64 65 66 66 66 65 65 66 66 67 67 66 66 65 66 66 66 66 65 65 65 65 64 64 64 63 62 61 61 61 60 60 60
22 18 13 13 13 41 47 51 49 49 45 47 49 51 54 60 64 65 65 65 65 66 65 65 65 67 66 65 65 65 65 65 65 65 65 65 65 65 65 64 63 62 61 60 60 59 58 59 59
22 15 11 11 11 35 46 49 50 46 44 50 54 51 50 59 63 64 63 63 62 62 63 64 64 65 65 64 64 64 65 65 64 64 64 64 64 64 64 64 63 61 59 58 58 59 60 59 58
19 15 13 14 26 41 48 47 47 49 47 56 59 57 58 60 62 62 62 61 60 61 62 64 63 64 64 63 63 64 64 64 63 63 63 62 60 59 60 61 61 60 58 56 57 59 58 57 57
16 15 15 16 40 42 47 48 46 44 50 54 55 57 59 60 59 59 60 59 59 60 61 64 63 63 63 61 61 60 60 60 59 60 60 59 60 59 58 60 61 60 57 56 58 58 56 52 47
18 14 15 30 41 44 45 44 47 44 41 49 54 55 55 58 58 57 59 58 59 60 61 63 62 62 60 60 61 60 59 58 58 59 59 59 60 58 57 58 56 55 56 50 50 48 48 47 47
14 15 16 37 45 45 44 44 42 43 42 49 56 57 55 58 58 55 56 57 58 60 61 62 60 59 58 59 59 58 58 59 59 60 60 60 59 57 54 54 54 55 51 48 48 49 47 45 43
15 16 32 43 44 42 41 40 38 48 55 56 56 55 55 57 57 55 54 56 56 56 58 61 59 56 56 58 58 59 61 61 62 60 59 61 59 58 56 53 51 49 48 47 48 46 44 43 41
26 27 38 41 41 40 40 40 34 42 57 57 56 55 56 56 58 58 56 56 57 57 59 60 59 54 56 59 60 61 62 62 62 60 59 58 58 55 51 49 48 48 49 48 46 44 42 41 39
29 31 38 40 42 35 36 32 36 46 55 55 56 57 58 58 58 58 58 56 55 58 58 57 56 58 61 61 61 60 60 61 60 59 58 57 54 53 51 49 47 48 48 46 44 43 41 38 37
23 29 30 35 37 36 31 28 36 41 51 52 53 56 56 57 57 58 58 56 57 56 54 55 59 60 59 58 58 58 59 59 58 56 54 54 53 51 50 48 48 49 48 45 44 42 39 37 37
23 17 21 32 34 33 33 28 32 39 49 52 52 52 55 56 56 56 57 57 56 54 54 58 60 58 58 58 58 57 57 57 56 54 52 52 52 50 49 49 49 48 46 45 43 41 39 37 36
21 21 19 19 32 33 31 29 30 41 44 50 50 46 49 53 55 55 53 54 54 55 54 60 58 58 57 57 57 56 56 55 55 53 51 51 50 50 50 48 47 47 45 43 43 39 39 38 37
27 26 26 25 27 31 30 25 29 34 44 46 46 42 45 49 51 51 50 52 52 54 58 58 57 57 57 56 55 55 54 53 53 52 51 49 50 51 49 48 45 44 41 41 41 39 37 37 37
30 28 26 23 23 29 28 24 26 30 38 42 43 40 41 44 46 47 48 50 52 55 58 58 57 57 56 57 56 55 54 53 52 51 49 50 49 48 46 45 43 41 41 40 39 38 38 38 37
27 28 26 23 22 17 25 21 22 26 29 40 40 39 39 41 43 45 49 51 52 56 58 58 58 57 57 57 56 53 51 50 49 49 49 48 48 46 45 44 42 41 40 39 38 38 38 35 36
23 27 26 24 24 18 20 16 23 22 24 37 41 40 41 41 45 46 50 51 53 58 59 58 58 57 57 57 55 52 49 48 49 48 47 47 47 45 44 43 42 42 42 40 41 40 39 38 36
26 31 28 28 26 24 23 18 21 25 24 25 36 41 41 43 45 47 52 52 54 58 59 59 58 58 56 57 55 52 50 49 48 48 47 46 44 44 43 43 42 41 41 39 37 37 37 39 37
30 30 31 33 29 22 25 22 22 23 23 26 31 37 42 44 47 48 53 56 57 59 59 59 59 58 58 57 52 52 49 48 48 47 46 45 45 41 40 39 39 38 37 36 36 35 35 36 37
29 26 24 23 26 22 29 26 25 26 28 29 33 35 39 44 50 51 56 57 58 58 59 59 59 58 58 55 51 50 49 48 47 47 46 42 39 38 37 37 37 37 36 35 34 33 33 34 36
31 27 26 19 24 25 30 26 26 28 30 30 33 35 42 45 50 52 55 57 58 58 59 58 58 56 53 51 50 49 46 45 44 42 40 40 39 38 37 36 35 34 35 34 33 35 36 36 36
30 26 29 31 30 26 28 24 27 31 35 37 39 40 46 48 51 53 54 56 56 56 57 57 57 51 51 51 46 42 43 41 40 40 41 39 38 35 37 35 34 34 34 35 36 35 34 35 35
28 27 25 28 21 22 21 20 26 30 34 39 39 40 46 48 50 51 53 55 55 55 53 52 52 50 50 45 43 43 42 42 42 43 40 38 37 36 35 33 32 32 33 35 34 33 33 33 33
27 25 26 26 28 22 21 19 22 30 34 37 40 42 46 48 48 49 50 52 52 52 49 48 49 49 46 41 43 43 44 44 41 42 39 38 36 35 35 35 31 31 31 33 32 32 33 32 31
30 29 28 25 19 27 25 21 26 27 31 38 41 43 46 47 47 47 49 49 49 49 49 47 47 47 44 40 40 40 40 38 38 38 36 37 35 37 35 32 31 32 33 32 31 31 31 30 30

GFSSGP_sfc_dewp_045.txt.gz
Dewpoint
55 50 43 32 18 20 19 20 24 46 50 53 56 56 56 58 53 47 63 64 68 69 70 70 70 70 70 70 69 67 66 64 64 65 66 66 66 65 65 64 64 64 63 61 60 61 64 66 66
44 44 31 18 12 11 12 20 23 44 51 52 51 55 57 57 60 61 63 67 69 69 69 69 70 70 70 69 68 66 65 64 65 66 65 65 64 65 65 65 64 63 63 61 60 59 61 64 66
41 33 27 16 11 9 11 21 44 50 53 51 49 54 57 58 61 62 66 67 69 68 68 69 69 69 69 68 67 66 66 66 66 66 65 65 64 64 64 65 63 62 62 61 60 59 60 62 64
31 24 18 10 9 12 14 28 47 50 49 50 51 48 56 61 63 64 66 68 68 68 68 68 68 68 68 67 67 66 67 66 66 66 66 65 63 63 64 64 63 63 61 59 59 60 61 60 62
25 20 15 11 8 17 45 47 49 45 48 49 48 51 54 63 64 66 66 67 67 68 68 67 67 68 68 67 66 66 66 66 66 66 65 65 64 63 64 64 63 63 61 60 60 61 61 60 60
25 18 13 12 13 41 47 50 49 48 49 49 49 50 56 64 64 65 66 66 67 67 66 66 66 67 67 66 66 66 67 66 66 66 65 65 64 64 64 63 63 62 62 61 61 60 60 60 60
22 20 14 12 12 19 46 50 46 46 45 47 50 51 56 61 64 65 65 65 65 64 64 64 64 65 66 65 65 66 66 66 66 65 65 65 64 63 63 63 62 62 61 61 61 60 59 59 59
24 18 13 11 11 12 45 49 50 47 45 52 54 51 53 60 62 61 60 60 61 62 62 62 62 63 64 63 65 65 65 65 65 65 65 64 65 64 63 62 61 61 60 61 60 61 59 59 59
19 17 14 14 16 27 47 45 48 52 56 56 57 57 59 61 61 59 59 59 58 60 61 61 61 63 63 62 63 64 65 65 64 64 64 62 61 61 59 60 60 60 60 61 61 59 57 55 57
18 15 15 16 25 40 46 47 46 48 53 53 55 59 61 60 60 58 57 57 57 58 60 61 61 61 63 61 62 61 61 61 60 60 60 60 59 56 59 60 61 59 59 60 58 57 55 49 44
18 15 15 16 36 42 46 45 46 45 45 52 54 55 58 58 57 58 57 57 57 58 60 62 60 63 62 59 60 59 59 58 58 59 59 60 59 57 58 57 54 54 53 48 49 47 46 43 42
18 16 17 28 44 44 43 43 42 43 44 52 55 56 56 55 57 57 57 57 57 57 58 61 61 62 60 60 60 58 57 58 58 58 58 59 58 55 54 53 54 50 49 48 47 46 44 42 40
15 15 35 41 44 43 42 41 47 52 53 56 56 56 56 56 57 56 57 57 57 57 58 62 61 60 58 58 58 58 58 59 61 61 61 60 58 55 54 53 51 48 48 47 45 43 42 40 37
27 37 42 42 41 40 39 39 43 51 55 56 55 55 56 56 55 54 55 55 56 58 60 61 60 58 57 57 58 59 61 61 60 59 59 59 58 55 52 49 48 48 48 45 44 41 39 37 35
30 36 39 40 39 33 36 35 41 49 55 54 54 54 56 56 54 53 55 55 56 55 57 60 60 56 56 57 59 61 61 61 59 58 58 56 54 51 49 48 48 49 46 44 42 39 38 36 35
22 33 35 37 38 35 29 28 40 52 53 53 53 53 55 57 56 55 56 55 56 56 58 59 59 56 59 60 59 59 60 59 58 56 56 54 52 50 48 48 48 48 45 44 42 39 37 37 35
23 24 26 33 36 33 32 27 34 49 51 51 55 56 56 56 58 57 57 56 54 57 57 57 58 58 59 58 58 58 58 57 56 53 53 52 51 50 48 49 50 47 45 44 41 40 38 36 35
23 21 27 30 31 34 32 29 32 42 51 50 52 54 56 56 57 58 58 57 54 57 55 58 59 58 58 57 56 56 56 55 54 52 51 51 50 49 49 48 47 45 44 43 41 39 39 37 36
26 25 24 25 25 32 31 28 29 39 48 50 51 50 54 55 56 56 57 57 57 55 57 58 57 57 57 56 55 54 54 53 53 52 51 50 49 50 48 47 46 43 41 41 39 38 36 37 36
29 27 24 25 25 32 30 28 27 37 43 48 49 47 49 53 55 55 55 55 54 54 57 57 57 57 57 56 55 55 54 53 52 51 50 49 50 49 47 45 43 41 41 39 38 38 38 37 36
28 27 26 25 24 27 26 25 22 27 33 45 48 47 47 50 52 54 52 52 53 53 57 57 57 57 56 56 55 53 52 51 50 49 48 49 49 48 46 44 42 40 40 39 38 38 37 36 36
26 27 28 27 25 20 24 20 22 24 27 40 45 43 43 47 50 52 50 51 52 53 56 57 57 57 56 56 54 52 50 51 51 49 48 48 48 46 44 43 42 41 41 40 41 40 39 37 36
27 30 28 28 25 24 23 17 19 25 25 32 40 42 41 43 47 48 49 50 51 54 57 57 58 57 56 56 56 54 52 50 49 48 47 47 45 44 43 43 42 42 41 38 36 36 36 39 37
30 29 29 31 27 22 23 22 22 23 23 25 33 40 40 42 45 46 49 51 51 56 58 58 58 57 56 56 56 54 52 49 49 47 46 45 43 42 41 40 39 37 37 36 35 34 33 34 35
28 27 24 22 23 21 27 25 24 25 26 27 29 37 41 43 46 49 52 51 54 57 57 58 58 57 57 56 56 54 53 50 49 47 46 43 39 38 38 37 36 37 36 36 34 34 34 35 36
30 26 25 17 21 20 29 25 24 29 31 31 31 35 40 44 47 51 52 54 56 57 58 58 58 58 58 58 56 53 51 50 49 47 46 42 39 37 36 38 38 38 35 35 35 36 36 36 35
30 27 28 29 29 25 25 27 26 29 36 37 37 37 40 43 48 51 54 56 57 57 57 58 58 58 57 56 52 50 50 47 45 44 44 42 39 37 39 40 36 36 35 35 36 36 34 34 34
29 28 24 27 18 20 22 21 24 27 27 37 38 39 45 48 51 52 54 56 57 58 58 57 57 55 53 49 48 47 47 43 43 44 42 39 39 40 38 36 37 36 36 36 36 33 33 33 34
27 25 26 26 26 21 21 21 21 28 30 34 36 39 46 49 51 52 53 55 56 56 55 56 56 51 49 44 45 44 44 43 42 41 40 39 39 37 38 40 37 35 33 35 33 32 33 33 32
29 28 26 25 20 26 25 21 24 25 31 36 37 41 46 48 50 51 52 53 54 54 53 53 53 51 48 44 44 45 43 42 40 39 38 37 37 39 40 38 34 33 33 33 33 32 32 31 30

GFSSGP_sfc_dewp_048.txt.gz
Dewpoint
54 45 41 27 19 19 19 18 22 31 48 55 57 56 55 57 53 47 64 64 68 68 69 69 70 70 69 68 67 66 66 66 65 66 66 66 65 65 65 64 64 64 64 66 66 66 65 66 66
46 43 29 17 12 11 10 18 19 33 52 52 52 54 57 57 60 61 63 68 68 69 69 69 70 69 68 67 66 65 65 65 66 66 65 66 65 65 65 64 64 64 64 63 65 67 67 67 67
39 30 26 14 11 9 10 16 40 52 53 50 51 55 57 58 61 62 66 68 68 68 68 68 69 68 68 67 66 65 66 66 66 66 64 64 65 65 65 64 63 64 63 61 62 64 64 64 64
30 25 17 11 8 10 12 29 44 50 49 50 51 51 57 62 62 65 67 68 68 68 68 68 68 68 67 66 66 66 66 66 66 65 65 65 65 64 65 64 63 64 63 59 59 61 62 62 62
23 20 16 12 7 11 39 47 49 47 49 51 51 52 55 63 66 66 67 68 68 67 67 67 67 67 67 67 67 67 66 66 66 66 65 65 65 64 64 63 63 63 63 62 60 61 61 62 62
23 18 14 13 12 21 46 49 48 48 50 50 52 52 56 63 64 65 65 64 67 66 67 67 67 67 66 66 67 67 66 66 66 65 65 65 65 64 64 63 62 62 62 62 61 61 60 60 61
21 18 13 12 12 12 41 49 46 46 46 47 52 51 57 62 64 63 62 62 63 65 64 64 63 65 66 66 66 66 66 66 66 66 65 65 64 63 63 62 62 62 62 61 60 60 60 60 59
23 20 16 12 10 12 40 49 50 47 48 55 56 51 54 60 61 61 61 61 60 59 61 61 62 63 63 64 65 66 66 66 65 65 65 64 64 63 62 62 62 62 62 61 61 60 60 59 58
19 17 14 14 16 19 47 45 48 55 54 55 57 55 59 60 59 58 58 59 59 58 56 58 60 63 62 63 64 65 66 65 65 64 64 62 61 59 56 60 61 61 61 60 59 57 56 56 55
19 17 16 17 15 28 46 45 45 50 52 54 55 60 60 59 58 56 56 56 57 57 58 59 59 61 62 61 62 62 62 61 61 61 59 59 59 57 59 60 60 61 60 59 57 54 50 46 42
17 15 16 15 19 41 46 46 46 49 47 52 53 57 58 58 57 55 55 55 55 56 55 56 56 57 61 59 60 60 59 59 59 59 59 59 57 58 58 54 53 52 52 47 46 44 42 41 40
19 18 17 16 42 44 45 45 42 43 46 54 55 57 57 56 57 56 56 57 56 55 55 55 56 55 61 60 59 59 58 58 58 58 59 58 55 55 54 53 52 49 49 46 45 44 41 39 39
17 16 31 38 43 43 43 42 47 51 54 56 56 55 55 56 57 57 57 57 56 56 57 56 56 60 61 59 59 58 58 57 58 57 58 59 55 53 53 53 49 48 47 45 43 41 38 37 37
32 40 40 41 42 41 39 43 46 53 55 55 55 55 55 55 56 56 55 55 55 55 57 59 61 61 59 58 58 58 58 59 60 59 59 59 58 55 53 50 48 48 46 44 42 39 37 36 36
31 37 39 40 39 37 38 34 43 54 54 54 54 54 55 55 55 55 55 55 54 55 56 60 61 58 57 57 57 58 59 61 59 59 59 59 57 54 50 48 48 47 44 42 40 38 37 36 35
28 33 33 38 38 35 31 28 42 54 54 53 53 54 55 55 54 53 55 55 55 57 58 60 61 57 56 57 58 59 60 59 58 57 56 55 54 53 48 48 48 46 45 42 40 38 37 36 34
23 22 27 33 36 34 31 26 40 54 52 52 52 54 55 55 54 53 54 55 55 56 57 59 59 56 57 58 58 58 58 58 57 56 54 53 51 49 48 49 48 46 45 43 41 39 38 36 34
23 22 21 31 31 34 33 31 39 51 51 53 52 52 54 55 55 55 57 56 55 56 58 57 58 57 57 57 56 56 56 56 55 54 53 51 50 49 48 49 48 45 44 42 40 39 38 37 35
26 25 22 25 26 33 32 30 33 43 50 51 54 54 55 56 56 57 57 57 54 56 56 57 57 56 57 55 55 54 54 55 54 53 52 51 49 49 48 47 45 44 43 41 39 38 37 37 36
28 26 24 25 26 29 30 29 27 39 47 49 52 54 55 55 56 57 57 57 56 55 56 58 57 57 57 57 54 54 54 53 54 53 51 50 49 49 47 46 44 42 41 40 39 38 38 37 36
26 25 25 25 26 28 26 25 24 28 40 46 49 52 53 54 54 55 56 57 56 55 55 57 57 57 57 57 55 52 53 53 52 50 49 49 50 49 46 44 42 41 40 39 38 38 37 36 37
25 27 27 25 25 21 24 19 20 24 33 40 45 49 49 50 54 55 55 55 55 55 55 57 57 57 57 56 54 52 52 51 52 50 48 49 49 48 46 43 41 41 41 40 40 39 38 38 35
26 29 28 28 25 24 23 18 19 24 23 29 40 46 47 48 51 53 54 54 54 54 55 56 57 57 57 56 55 53 52 53 51 49 49 49 46 45 43 42 42 41 40 38 37 37 37 39 37
30 29 28 30 26 21 23 20 22 22 23 26 30 42 46 45 48 51 54 52 52 54 55 56 56 56 56 56 55 54 53 52 50 50 48 45 44 43 42 41 39 38 37 35 36 37 35 35 36
28 26 23 21 23 21 26 26 26 25 26 26 29 36 43 43 45 48 49 50 51 53 55 56 56 56 57 56 56 55 55 53 51 49 47 43 41 39 38 37 37 36 38 40 39 35 34 35 35
28 26 24 17 20 19 27 24 23 28 33 35 30 29 40 41 43 46 47 50 51 54 56 57 57 56 57 57 56 56 55 54 52 50 47 44 40 39 38 39 40 42 40 36 37 36 36 36 36
29 26 28 28 28 25 24 25 22 28 33 36 35 36 40 41 43 45 48 50 52 55 56 57 57 57 57 57 57 55 54 52 51 50 46 42 40 38 39 44 42 37 37 39 37 36 36 35 34
28 29 23 26 19 19 20 21 21 25 27 36 37 40 40 43 46 47 51 53 54 55 56 57 57 57 57 57 55 53 52 51 50 48 45 43 41 40 43 42 36 38 40 37 36 35 34 33 34
28 26 26 25 25 20 20 21 22 23 28 30 35 37 41 46 47 50 52 54 55 55 56 56 57 57 54 52 51 50 49 48 49 48 46 44 41 43 41 37 39 39 36 35 35 33 33 34 32
27 27 27 25 20 25 25 22 25 22 25 30 33 38 43 48 49 50 51 53 54 55 56 56 56 55 54 49 48 48 48 48 48 46 43 43 41 39 39 42 38 35 33 34 34 34 32 33 32

GFSSGP_sfc_dewp_051.txt.gz
Dewpoint
54 42 40 27 18 21 16 16 21 22 37 55 56 55 53 55 52 49 64 65 68 68 68 68 69 69 69 68 68 67 68 67 66 67 67 66 66 66 66 66 67 69 68 67 66 67 67 66 64
44 41 31 22 15 11 9 17 20 36 49 51 53 56 56 55 59 61 63 66 68 68 67 67 69 68 68 67 67 67 67 66 67 67 66 66 66 66 66 65 66 68 68 68 67 67 67 65 65
37 29 29 20 15 8 11 15 29 51 52 50 52 56 57 56 60 61 64 68 69 68 66 67 68 67 67 66 66 66 67 67 66 66 66 66 66 66 65 64 64 66 68 67 68 67 65 63 64
32 27 18 15 10 11 12 16 45 48 48 50 50 53 58 62 63 65 67 68 68 68 67 68 67 67 66 66 67 67 66 66 65 65 66 66 66 66 65 64 63 64 66 66 66 62 61 63 63
24 23 19 14 10 11 16 43 49 46 47 50 50 53 55 61 66 67 68 68 67 68 68 68 66 66 67 67 67 67 66 66 65 65 66 65 66 65 64 64 63 63 63 63 62 62 62 62 61
23 21 17 12 13 14 33 48 47 48 48 49 50 53 55 63 64 64 65 65 67 67 67 66 67 66 66 66 67 66 66 66 66 66 66 65 65 64 64 64 63 63 62 62 62 63 63 61 60
25 20 16 14 14 14 32 49 45 46 47 48 52 51 57 62 62 62 62 62 63 63 63 66 66 65 66 66 66 66 66 66 66 66 65 65 64 63 63 63 63 62 62 62 61 60 61 61 58
24 23 16 15 12 13 37 48 49 46 51 56 55 51 54 61 61 60 59 59 59 61 61 60 61 61 61 64 66 66 66 66 66 65 64 64 63 63 63 63 63 62 62 61 61 61 59 57 55
21 20 18 16 14 18 46 45 49 55 53 55 56 55 59 60 60 59 57 57 57 58 59 59 58 58 60 63 65 66 66 65 64 63 63 60 55 55 55 60 62 62 61 60 59 57 56 55 53
21 21 19 18 17 21 44 45 48 50 52 52 55 59 60 58 58 57 56 55 55 55 56 57 58 59 60 62 63 64 64 62 61 61 61 60 59 57 54 59 62 61 60 58 55 52 50 46 38
19 19 19 17 17 37 41 45 46 49 48 51 54 57 58 56 56 56 56 55 54 55 56 57 57 56 58 59 63 63 61 60 60 61 60 60 58 59 55 57 55 55 54 46 45 43 40 42 39
19 19 18 19 37 42 44 45 44 47 47 52 57 58 57 55 55 55 55 56 55 55 56 57 57 59 61 61 62 60 59 60 60 59 60 59 58 59 55 53 52 51 48 48 45 43 44 42 41
19 18 27 32 42 43 44 42 45 50 55 55 56 57 57 55 54 54 55 55 55 54 54 55 55 54 57 61 60 59 61 59 59 59 60 57 56 57 55 54 51 49 48 46 43 42 40 40 39
26 40 40 42 42 42 42 46 46 53 55 55 55 55 55 56 56 55 54 53 52 53 54 55 54 55 59 60 60 60 60 60 60 60 61 60 57 57 55 52 51 48 47 45 43 41 39 37 37
29 36 39 40 39 37 40 36 41 53 55 54 54 54 54 55 57 56 54 54 54 54 54 54 54 58 61 61 59 59 58 58 59 61 61 61 59 57 55 51 50 48 47 46 43 41 41 37 35
29 32 32 37 38 35 30 27 47 54 53 52 53 53 54 55 55 55 55 54 55 55 55 56 57 59 60 60 59 58 60 61 62 62 62 62 61 58 56 51 50 48 47 45 44 41 39 38 37
25 23 27 33 37 34 34 28 45 54 52 51 53 53 54 55 55 56 55 54 54 54 55 57 60 61 61 60 60 60 60 61 62 61 61 59 59 57 55 52 49 49 46 45 43 42 42 39 37
24 22 22 27 33 35 33 31 45 53 52 51 52 53 55 55 54 54 55 55 54 55 57 59 60 61 60 60 59 59 60 61 61 60 58 56 55 54 53 52 50 48 46 45 44 43 42 40 39
25 25 22 24 30 28 31 32 34 51 52 52 51 52 54 54 55 54 54 55 55 55 57 58 60 61 59 58 58 57 59 60 60 58 57 56 52 52 52 51 49 48 46 45 45 43 43 41 41
28 26 25 25 26 29 28 27 30 46 50 50 51 51 52 53 55 55 55 55 55 55 57 57 58 60 59 57 58 58 59 59 59 58 55 55 53 51 51 51 48 48 46 45 44 44 41 41 41
27 26 25 24 26 28 27 24 27 32 45 50 50 52 52 53 54 56 57 57 57 55 56 56 57 59 59 58 57 56 58 58 57 56 55 54 52 50 50 51 49 47 46 43 44 44 43 40 40
26 27 27 25 25 21 24 19 23 26 33 42 49 50 52 53 55 56 57 57 58 57 57 56 58 58 59 59 56 56 56 56 57 56 55 52 52 50 49 48 48 46 45 44 44 43 43 41 37
28 28 28 27 26 25 23 20 22 25 24 31 40 48 50 51 53 54 56 57 58 58 59 58 58 58 59 58 57 58 57 58 56 55 54 53 51 50 47 47 46 45 44 45 45 43 42 40 37
30 29 29 29 27 24 23 21 21 22 24 25 29 38 47 50 51 53 55 56 56 59 59 59 58 58 59 58 58 57 56 56 55 54 54 52 50 49 48 45 46 46 44 42 41 43 42 39 39
28 26 25 24 25 24 27 26 26 28 28 29 32 32 40 49 50 51 53 55 55 56 57 58 57 57 58 58 57 57 57 56 54 54 53 49 49 47 46 45 44 42 40 41 42 41 38 37 37
29 27 28 18 21 21 27 23 20 29 29 36 37 34 34 46 49 49 51 54 54 55 56 57 57 57 57 58 57 57 57 57 56 55 53 50 50 47 45 44 41 41 41 43 40 40 38 40 39
29 28 29 28 29 28 24 24 24 27 30 36 37 35 35 40 44 47 49 52 53 54 56 57 57 56 57 58 58 58 58 57 57 55 54 52 48 43 43 42 41 43 41 40 41 40 38 39 40
29 30 27 28 22 20 19 22 18 24 28 30 36 38 38 41 43 44 47 50 52 54 56 57 57 57 57 57 58 58 57 57 57 55 52 49 46 43 43 42 43 40 40 42 40 38 38 38 39
29 28 28 27 26 21 20 21 28 25 28 31 34 38 40 43 44 47 48 51 52 54 55 56 56 56 57 58 58 58 57 56 55 53 51 48 45 42 43 43 39 39 43 40 37 37 37 36 36
30 30 30 30 24 27 27 23 26 28 26 29 33 37 41 46 47 48 50 53 54 54 55 55 56 57 57 57 57 56 54 53 52 51 48 46 43 43 43 40 40 42 38 37 37 37 35 35 35

GFSSGP_sfc_dewp_054.txt.gz
Dewpoint
53 39 30 29 16 13 12 12 17 19 30 48 53 49 45 54 52 48 63 65 66 66 66 67 70 70 69 69 68 68 68 68 68 68 67 67 67 67 68 68 68 68 69 68 67 64 64 64 64
35 35 32 23 12 10 8 14 15 31 42 50 52 55 51 51 57 59 62 65 67 66 65 64 69 69 68 68 68 68 68 68 68 67 67 67 67 67 69 69 69 68 69 68 66 64 64 64 64
33 32 25 17 13 8 9 15 19 43 50 48 50 54 54 54 59 59 62 65 67 67 65 66 68 68 68 68 68 67 67 67 67 67 67 67 67 67 68 69 68 68 69 67 65 64 63 64 65
26 26 21 12 10 12 10 16 34 46 47 48 49 50 56 61 62 64 64 66 67 67 67 67 67 67 67 67 67 67 67 66 66 66 67 67 66 66 66 67 68 69 68 66 63 62 62 63 63
23 19 15 12 11 11 11 20 41 44 44 45 48 50 53 61 65 67 66 68 68 67 68 67 66 67 67 67 67 67 66 66 66 66 66 66 66 66 65 66 67 67 66 63 61 61 61 62 61
19 19 11 8 10 8 15 31 43 46 44 46 46 47 54 63 63 64 65 66 67 67 68 67 67 67 67 67 66 66 65 65 66 66 66 66 66 65 65 64 64 64 64 64 63 62 61 60 58
21 16 10 12 10 11 24 43 42 43 42 43 48 44 58 61 62 62 63 64 64 65 66 65 65 66 66 66 66 66 66 66 65 65 65 65 65 64 64 63 63 62 63 63 62 61 60 58 55
21 18 15 12 8 14 28 39 46 45 46 52 52 45 53 60 61 60 60 62 61 62 64 64 63 65 65 65 66 66 66 66 65 65 64 64 64 64 63 62 63 62 62 61 60 60 59 54 53
22 16 13 12 11 17 35 30 46 52 50 51 54 54 59 60 60 59 59 59 59 60 60 59 59 57 60 61 64 65 66 65 64 63 62 59 54 54 55 60 62 62 62 60 58 56 55 54 51
19 18 13 16 16 16 24 33 40 48 49 50 53 59 59 59 58 57 57 56 57 57 58 58 56 54 57 61 61 63 62 58 58 57 56 52 55 53 55 60 62 61 60 58 55 53 53 51 40
20 16 17 17 17 18 22 32 43 45 44 46 52 57 57 58 57 56 56 56 56 56 56 57 57 59 59 59 59 61 64 60 58 60 56 56 54 55 55 56 53 53 54 45 45 46 43 45 41
21 21 21 20 26 27 29 41 42 43 47 49 55 57 56 56 57 56 55 55 54 54 55 57 58 58 58 59 59 59 55 58 57 56 58 57 55 54 55 52 53 52 49 49 48 46 47 44 43
23 23 30 28 34 36 43 41 41 46 51 55 57 56 55 54 55 55 54 55 55 54 55 55 56 55 59 59 59 59 59 56 54 56 56 55 54 55 53 54 52 51 50 48 47 46 43 43 42
25 33 39 37 39 41 40 43 44 50 53 55 55 54 53 53 53 55 54 53 54 55 55 54 54 55 55 56 55 57 59 57 57 55 56 58 56 57 54 53 52 50 49 48 47 46 44 42 41
27 33 38 39 39 38 41 39 37 51 53 52 53 53 54 55 53 52 54 53 51 51 50 49 52 55 57 57 57 57 54 53 53 55 61 59 57 57 56 54 52 50 50 50 48 46 44 41 38
26 33 23 37 38 35 37 25 40 50 50 50 51 52 54 55 54 52 52 52 51 50 51 52 51 55 56 58 57 55 53 54 53 58 62 62 60 58 57 53 53 52 51 48 46 45 45 42 40
26 19 22 29 33 32 34 27 38 50 49 47 50 52 52 53 55 55 53 52 51 52 52 53 53 54 56 59 59 56 58 55 55 58 60 61 62 61 57 54 54 54 48 47 46 47 46 43 40
18 19 19 25 28 33 31 30 32 47 46 46 50 51 52 54 53 55 55 53 53 53 52 52 54 57 59 59 60 56 54 55 57 60 62 61 61 62 59 56 55 50 47 47 47 47 45 43 41
23 22 18 23 28 27 25 26 26 43 47 46 48 50 52 52 53 53 54 54 53 54 55 55 56 58 59 58 56 55 53 55 57 59 61 60 59 60 59 56 54 51 48 49 51 47 46 42 43
27 23 20 24 27 27 23 22 28 38 45 46 46 48 49 52 52 51 53 53 53 53 55 55 55 57 58 57 56 54 52 54 57 60 60 60 58 57 56 55 53 51 49 49 50 48 44 43 43
28 24 22 21 24 25 25 20 26 33 42 45 47 46 46 48 51 52 51 53 54 53 55 56 57 58 59 58 57 54 55 56 57 59 60 59 58 55 54 55 53 53 50 48 49 48 46 42 43
23 26 26 24 23 19 24 17 20 26 33 40 44 48 48 46 49 52 53 53 53 53 54 54 54 55 58 59 56 55 51 52 55 58 60 58 57 55 53 53 53 52 50 49 48 46 46 44 41
25 28 27 26 24 24 22 18 18 24 23 27 36 43 48 49 48 50 53 54 54 55 55 55 55 55 57 59 59 56 54 52 55 60 59 57 57 56 53 52 52 52 50 49 48 47 47 44 43
30 29 28 29 26 23 21 20 18 18 21 24 26 33 42 46 49 48 51 55 56 57 58 58 56 55 57 59 60 60 58 57 57 58 58 57 56 55 53 50 50 51 49 49 48 48 44 44 42
29 27 25 25 24 23 24 22 20 21 24 28 30 32 33 42 48 49 49 52 55 57 59 59 58 56 57 59 59 60 60 60 59 58 57 57 55 53 52 51 51 49 49 48 44 43 45 41 40
28 27 26 20 23 22 25 20 18 26 28 29 35 36 35 36 43 47 49 51 53 56 59 59 58 58 57 59 60 60 60 60 59 58 58 57 55 53 53 51 50 48 44 42 43 44 40 40 40
29 26 27 26 31 28 20 20 21 24 26 29 31 35 33 35 40 43 46 50 53 55 58 59 58 57 57 59 60 60 60 60 59 59 58 57 54 53 50 49 47 45 43 44 42 43 42 41 41
29 28 26 27 23 20 18 18 14 21 19 24 26 29 37 39 39 41 44 49 52 54 56 59 59 57 58 59 60 59 59 60 59 59 58 55 52 48 47 46 46 45 43 42 44 43 41 41 43
29 28 28 26 26 22 19 18 23 21 22 25 31 34 36 41 42 43 44 46 49 52 54 56 57 56 57 57 59 59 59 59 58 58 57 53 50 47 46 45 46 42 42 44 42 41 39 39 41
28 28 28 28 25 28 29 22 22 25 26 28 30 33 38 43 45 46 48 49 50 52 53 54 55 55 56 57 59 59 58 57 57 55 53 50 46 46 46 45 42 40 43 42 40 39 40 41 37

GFSSGP_sfc_dewp_057.txt.gz
Dewpoint
54 46 33 23 18 14 10 9 8 17 21 28 39 34 34 32 47 50 65 64 65 65 64 68 71 71 71 70 70 69 69 69 69 68 68 68 68 68 68 69 69 69 68 64 64 64 63 64 64
42 28 26 21 15 7 7 7 15 16 30 41 43 44 44 43 55 59 63 64 65 65 64 66 70 70 70 69 69 69 68 68 68 68 68 68 68 69 69 69 69 69 68 64 64 64 64 64 63
37 28 25 19 12 7 7 18 15 26 39 39 39 46 47 49 56 59 60 64 67 65 64 67 69 69 69 68 68 68 68 68 68 68 68 68 70 70 70 69 68 68 67 64 64 63 63 63 63
26 23 19 12 9 10 9 13 18 30 37 40 39 43 54 60 59 63 63 64 66 67 65 67 68 68 68 68 68 68 67 67 67 67 68 68 69 70 69 68 68 68 66 63 63 62 61 62 63
23 18 13 14 9 9 10 10 22 31 37 39 40 41 52 61 64 66 66 65 68 68 68 68 67 67 68 68 68 67 67 66 67 67 67 67 68 68 69 68 68 67 64 62 61 60 60 60 60
20 16 11 6 8 8 10 18 27 37 39 41 40 41 55 61 64 65 67 67 68 67 67 67 67 67 67 67 67 66 66 66 66 66 66 66 66 67 68 68 66 65 64 63 61 61 59 58 57
19 16 11 10 9 10 15 34 33 38 38 37 42 41 57 60 62 63 65 67 66 67 66 66 66 67 66 66 65 65 66 66 66 66 66 65 64 64 65 65 65 64 64 62 61 59 59 55 55
19 16 12 10 9 15 27 31 39 40 39 47 47 43 50 59 61 61 62 63 64 65 64 64 64 65 64 65 64 65 64 65 66 65 65 64 64 63 63 63 64 64 63 61 59 57 56 54 54
20 14 10 11 11 17 25 27 36 45 42 44 52 56 59 60 60 59 60 61 59 62 63 64 64 64 64 64 64 63 65 65 64 63 63 59 56 55 54 61 62 62 61 61 58 55 55 54 52
17 14 12 14 14 16 18 22 29 40 42 45 54 59 59 60 59 59 59 59 58 57 58 60 61 61 61 59 61 61 61 60 59 58 58 55 57 56 55 60 62 61 60 59 57 55 55 53 40
17 14 15 14 16 16 18 19 30 38 38 36 47 56 57 57 57 57 57 57 57 57 57 56 57 57 60 59 60 60 60 58 58 60 58 59 58 59 57 56 54 54 54 45 46 47 46 47 44
17 17 16 17 19 24 26 30 35 36 44 47 55 57 57 56 56 55 55 55 55 55 55 56 59 59 58 58 58 59 58 58 57 59 60 60 57 59 57 54 52 53 49 49 50 48 50 47 45
19 17 20 25 24 29 34 36 36 39 47 54 56 55 55 55 55 54 55 55 54 54 56 56 57 57 57 56 57 57 53 52 53 57 59 57 55 59 57 56 53 52 51 51 50 49 46 46 44
23 21 27 29 26 30 34 35 37 44 51 53 52 53 53 52 53 54 54 53 54 54 55 56 56 57 58 56 57 57 58 55 54 56 58 61 59 59 56 55 53 52 51 50 50 49 47 45 44
24 23 29 33 30 31 35 37 39 47 51 50 50 52 52 50 51 53 53 52 53 53 54 55 56 58 57 55 55 57 58 55 54 54 60 58 57 58 57 54 54 52 52 52 52 49 47 45 41
21 23 24 43 41 30 31 38 45 45 46 45 46 47 52 53 50 53 53 53 53 53 52 54 55 56 55 54 55 59 54 55 50 53 56 59 57 58 57 55 54 54 54 51 50 49 47 46 43
21 18 26 32 34 30 28 33 36 42 42 42 45 46 49 54 51 52 52 51 51 50 51 52 53 54 55 57 57 57 56 54 53 53 57 61 60 58 57 55 55 56 53 52 49 49 51 46 43
14 19 19 28 35 26 28 28 28 39 40 41 44 48 49 50 51 52 49 50 49 49 50 51 54 55 57 58 56 53 54 55 53 52 56 60 60 61 59 56 57 56 53 50 49 50 50 48 43
20 19 17 30 35 28 24 22 25 35 39 41 44 46 48 51 51 52 52 50 50 51 52 53 54 56 52 53 52 52 51 52 52 53 58 62 61 60 62 59 58 57 52 52 51 50 51 48 44
20 19 18 18 22 24 22 23 28 30 39 40 42 48 47 48 50 51 52 52 52 52 51 51 51 52 52 50 50 50 51 50 54 55 58 61 61 59 60 61 59 57 52 52 52 51 50 50 46
23 22 19 19 23 24 22 20 23 24 36 39 41 44 45 49 49 50 50 52 52 52 52 50 52 53 53 53 51 51 50 50 50 53 56 61 60 59 59 59 58 56 54 52 52 50 51 47 45
23 22 21 23 21 17 26 18 27 23 29 37 39 41 43 44 49 50 51 51 52 52 54 53 53 53 54 55 53 53 50 48 50 53 55 60 59 59 59 57 58 57 55 54 52 50 51 49 45
22 26 24 23 21 22 22 16 22 20 18 25 34 39 41 43 46 48 49 50 51 53 54 55 55 54 55 55 55 54 53 51 51 53 56 59 60 59 57 57 58 57 54 53 52 51 52 48 46
25 27 26 27 25 22 20 21 21 25 18 21 24 34 39 42 42 46 49 50 51 53 55 57 54 53 54 55 57 58 57 55 52 52 59 59 59 59 58 57 57 56 54 52 52 53 51 47 46
27 25 25 27 23 22 21 19 20 28 20 21 24 26 33 40 44 43 46 50 51 53 55 56 54 53 54 56 57 58 58 59 57 57 59 58 58 57 57 56 54 54 53 54 52 49 45 46 44
27 25 26 24 26 23 25 18 18 22 22 23 24 30 33 34 41 44 45 47 51 54 57 56 55 55 54 56 57 59 60 60 60 59 58 59 58 59 57 54 54 53 49 46 48 49 46 43 42
24 26 26 26 29 28 21 19 22 21 22 23 25 30 32 34 35 41 45 46 49 53 57 60 58 57 56 57 59 61 62 62 61 61 61 60 60 57 56 54 52 48 48 49 48 46 43 43 42
26 28 26 27 25 24 17 18 16 19 19 20 21 25 33 35 34 39 41 46 48 51 56 59 59 58 58 59 60 60 62 62 61 61 60 59 59 56 54 51 49 48 48 47 45 44 44 42 44
27 27 27 25 25 27 23 17 22 20 20 20 22 26 28 36 39 40 41 43 47 50 54 57 58 57 57 58 60 61 61 60 60 60 59 59 56 52 50 48 48 46 46 45 44 42 41 41 42
27 27 27 27 26 28 28 26 23 23 22 25 25 25 31 36 38 42 43 44 46 50 52 54 57 57 57 57 59 61 61 59 59 58 57 54 52 49 48 48 46 45 44 44 43 40 40 40 39

GFSSGP_sfc_dewp_060.txt.gz
Dewpoint
56 42 42 35 19 18 14 10 8 8 27 43 47 45 46 44 36 44 60 62 62 66 68 70 71 71 71 71 70 70 70 70 70 69 69 69 69 70 70 69 68 67 66 64 64 63 63 62 62
46 41 36 22 16 13 9 10 14 19 42 41 40 46 41 37 52 58 58 59 59 67 67 69 70 71 71 70 70 69 69 69 69 69 69 69 69 70 70 69 67 67 66 64 64 64 63 62 62
46 37 25 22 18 11 9 11 14 17 33 35 39 37 45 50 58 59 61 64 66 65 66 70 70 70 70 69 69 68 68 68 68 68 69 69 69 70 70 69 66 66 65 64 63 63 62 62 63
31 24 21 15 10 12 10 14 15 17 26 35 34 47 49 53 62 64 64 64 67 66 68 69 69 69 69 69 69 68 68 67 67 68 69 70 70 70 69 68 66 66 65 63 62 61 61 61 62
28 20 16 14 11 10 9 11 11 14 34 44 42 49 50 53 64 65 67 67 67 67 68 68 68 68 68 69 69 68 67 67 67 69 69 70 70 69 69 68 66 65 64 61 60 59 59 59 60
24 19 12 8 8 14 12 12 17 23 44 47 46 46 48 61 62 65 66 66 68 67 67 67 68 68 67 68 67 67 67 67 67 68 68 69 69 68 68 66 65 64 63 62 60 59 58 57 57
20 17 13 10 9 13 20 25 25 35 45 46 51 48 57 59 61 63 64 66 67 66 64 65 65 66 66 66 66 66 66 66 66 66 67 67 67 67 66 65 65 64 63 61 59 58 58 56 56
18 14 12 10 9 14 28 27 36 37 48 50 50 47 51 57 61 62 62 64 65 64 64 64 63 64 64 63 62 64 65 66 66 65 65 64 65 65 65 64 64 63 62 60 57 57 57 55 53
17 15 12 14 15 14 21 21 42 38 45 49 55 57 58 60 60 61 60 61 62 63 63 63 63 63 62 62 63 63 63 65 64 63 63 61 60 60 59 63 63 62 62 60 57 56 56 52 50
16 14 13 14 14 13 16 20 23 33 40 46 54 57 58 59 59 58 59 57 57 57 61 62 62 60 60 57 57 59 62 62 60 58 57 55 58 57 60 62 62 61 61 59 58 56 55 52 42
15 14 14 13 15 15 15 17 18 22 42 44 47 55 57 57 57 57 57 58 57 56 57 59 60 59 59 60 60 59 59 60 59 60 58 59 57 58 58 56 56 56 56 48 51 52 49 50 47
16 15 15 15 16 17 19 24 30 45 47 48 50 56 56 55 55 55 55 55 55 55 56 58 59 58 59 58 58 59 59 58 58 59 60 60 58 56 55 55 55 53 52 49 51 53 51 48 46
17 18 15 17 21 19 22 27 43 48 51 52 55 55 55 55 54 54 55 55 55 55 57 57 57 56 56 56 58 57 58 58 59 59 59 59 59 59 56 56 54 53 54 54 53 52 50 48 45
20 19 18 32 34 33 24 39 46 48 49 52 51 52 53 53 53 53 53 53 54 54 55 56 56 55 55 55 56 56 58 55 56 59 59 59 59 61 57 58 56 56 55 54 53 51 50 49 45
21 19 22 35 33 34 34 36 42 48 50 48 49 51 49 52 52 52 53 52 53 54 55 55 56 55 55 55 55 55 56 54 56 59 59 59 59 60 58 58 58 56 55 54 53 52 50 48 46
21 20 19 36 31 30 37 33 41 44 44 45 46 49 50 48 52 52 52 52 52 52 52 55 56 55 55 55 54 55 53 56 55 58 59 59 60 60 59 57 57 56 56 55 53 51 50 50 47
19 16 18 31 35 35 36 32 43 44 43 44 43 44 50 50 52 52 52 52 51 52 52 53 55 54 53 55 54 54 57 56 55 55 58 60 59 60 59 58 57 58 56 54 53 51 52 50 47
16 14 18 24 34 34 28 28 41 49 49 42 42 39 50 50 48 52 53 52 51 52 53 54 54 54 54 53 52 55 58 55 56 56 59 61 60 59 59 58 59 58 56 54 52 52 52 51 48
20 18 17 27 28 27 29 23 30 36 46 38 44 42 46 51 50 50 52 52 51 52 53 53 54 55 54 53 53 54 54 55 56 56 57 61 61 61 61 59 60 59 56 53 53 52 50 50 47
22 15 15 19 26 28 23 20 24 40 44 37 40 44 46 48 50 50 49 50 50 51 52 52 53 54 54 54 54 55 53 54 55 55 57 61 62 61 61 61 60 59 57 54 53 52 50 50 50
21 19 18 19 27 24 22 19 20 26 33 34 40 46 44 48 49 51 49 50 50 50 51 52 53 53 54 55 53 53 53 53 52 54 55 60 61 61 60 61 60 59 58 55 54 52 50 48 50
23 21 20 17 23 16 23 19 26 26 27 32 36 43 45 47 50 50 50 51 52 52 53 53 53 53 53 53 51 51 50 49 51 54 55 59 61 60 59 59 59 59 58 57 55 52 51 50 47
23 25 25 23 19 21 19 23 26 25 26 28 36 38 46 47 49 50 50 51 52 53 53 52 52 52 53 53 55 55 53 52 53 55 56 60 60 59 59 59 58 58 59 57 54 53 52 51 50
25 24 25 25 22 23 20 22 20 25 28 26 33 36 41 44 49 50 51 52 51 53 54 54 54 54 54 54 55 57 57 56 53 54 56 59 59 59 59 59 58 58 57 54 54 54 53 52 48
25 24 24 29 26 25 20 17 25 33 33 29 29 31 38 43 45 48 49 50 51 52 54 55 55 54 55 56 57 57 58 59 56 56 59 59 59 59 58 58 57 56 55 54 54 52 49 49 47
25 25 27 23 30 29 32 21 18 28 30 26 24 29 34 39 44 45 47 49 50 53 54 54 54 54 54 55 57 59 59 59 60 61 59 59 59 59 59 59 56 54 53 51 49 49 49 48 45
23 27 26 27 34 33 29 28 23 23 21 22 23 28 33 34 39 44 44 50 51 52 55 56 55 54 54 55 57 59 60 60 59 60 60 60 60 59 58 56 54 51 50 49 50 49 44 42 43
22 21 27 27 27 25 20 17 25 21 21 19 22 30 35 39 37 39 44 47 51 53 55 57 57 55 56 57 58 59 60 61 60 62 61 60 59 57 56 54 51 49 49 49 46 44 44 43 44
21 23 29 28 27 28 28 25 35 27 21 22 28 28 34 41 40 41 43 46 49 53 55 58 58 57 58 58 60 60 61 62 61 61 60 59 56 54 54 51 49 48 47 46 45 43 42 41 42
23 26 26 29 26 30 33 26 28 30 27 28 28 26 35 38 40 42 43 45 48 50 53 57 58 58 58 59 60 61 61 61 59 58 57 56 53 52 50 48 47 46 45 44 43 41 40 41 41

GFSSGP_sfc_dewp_063.txt.gz
Dewpoint
56 51 41 40 28 20 16 16 17 31 38 44 47 41 41 45 48 47 61 61 62 61 61 67 70 71 71 71 70 70 70 70 70 70 69 70 70 70 69 68 67 66 64 64 63 61 62 63 63
49 46 41 36 18 15 15 16 14 34 41 45 46 44 40 52 55 58 59 61 62 61 58 58 70 70 71 70 70 70 70 70 70 70 70 71 70 69 68 67 66 66 65 63 62 61 63 63 62
50 45 35 23 20 16 14 15 13 22 40 40 38 47 54 54 55 56 66 62 62 59 66 67 69 69 70 70 69 69 69 69 69 69 70 70 70 69 68 67 66 66 64 62 61 61 61 61 62
38 31 25 17 16 17 17 15 15 20 39 46 46 49 53 52 62 65 67 67 64 64 68 68 68 69 70 70 69 69 68 68 68 68 70 70 70 68 67 66 66 66 63 61 60 59 59 61 61
39 29 19 18 17 15 14 14 37 42 45 47 47 49 50 60 62 65 66 67 66 68 68 68 68 69 69 69 69 68 68 68 68 68 69 70 69 68 67 66 66 64 63 60 59 57 57 59 59
31 23 19 16 14 14 17 26 40 44 44 46 46 48 50 60 60 63 65 66 66 65 65 66 68 68 68 68 68 68 68 68 69 69 69 69 69 67 66 66 64 64 63 61 58 58 58 58 58
23 20 17 14 12 15 25 28 43 45 43 45 48 46 50 52 61 62 63 66 64 63 64 64 63 63 64 66 66 66 67 67 68 68 68 68 67 66 66 65 64 63 62 60 57 57 58 57 56
21 17 13 13 11 14 27 28 39 43 42 50 49 46 48 56 61 62 63 64 64 63 62 63 63 62 61 61 63 63 65 65 66 67 67 66 65 65 64 64 63 62 61 58 56 57 56 55 53
23 14 13 14 15 16 23 22 37 48 50 52 53 56 57 60 61 60 61 62 62 62 62 62 62 61 60 61 62 62 64 64 64 64 64 63 62 61 61 62 62 62 60 59 58 56 54 52 50
18 15 14 15 14 14 17 20 28 47 47 48 50 55 60 60 60 58 58 58 58 60 61 62 61 59 59 59 60 61 62 61 59 59 59 60 59 60 61 62 62 61 60 59 57 55 53 49 42
18 14 15 13 15 17 17 36 45 43 41 45 48 56 58 58 57 57 58 57 56 58 61 60 60 59 58 57 57 56 57 60 59 57 58 58 59 59 58 57 57 56 55 51 52 50 46 46 44
17 17 16 15 26 25 18 45 47 47 48 51 51 56 57 56 56 56 55 55 55 56 58 59 59 57 55 56 56 58 59 59 59 58 58 57 57 55 54 54 53 50 49 46 49 51 46 44 43
20 19 18 26 29 32 35 42 45 47 47 49 52 55 55 55 54 55 55 54 55 56 57 57 58 58 58 57 58 59 59 59 59 59 59 58 56 54 55 54 52 51 51 48 51 48 47 44 43
22 22 20 27 31 34 36 41 40 45 50 50 54 55 54 53 53 53 54 54 54 55 55 55 56 56 56 57 57 57 57 57 58 58 58 59 58 55 55 54 52 52 53 52 50 49 47 46 41
27 23 23 30 30 28 37 37 39 46 48 50 51 54 53 53 52 52 53 53 54 55 55 55 55 55 55 54 55 55 55 53 55 59 58 59 58 57 55 56 55 54 54 52 50 50 49 45 43
25 23 20 25 33 32 35 32 41 46 47 48 50 52 53 52 52 52 52 53 53 54 54 55 56 55 54 54 54 54 51 52 52 58 58 57 58 57 57 56 56 56 55 52 52 49 49 46 44
25 20 19 26 34 33 34 33 42 45 47 46 46 49 51 52 52 51 52 52 52 53 54 55 55 54 53 53 53 52 51 54 48 57 57 56 57 59 57 56 56 55 54 53 52 51 50 49 46
22 21 17 27 32 33 35 34 40 44 45 46 47 48 50 51 51 52 51 51 51 52 54 54 53 53 52 52 50 51 54 55 55 54 56 58 57 59 57 57 57 56 54 53 51 49 50 51 47
23 20 19 26 31 33 33 32 41 44 48 47 48 45 50 50 51 52 51 51 51 51 52 53 53 52 52 51 50 49 52 54 54 55 55 59 59 59 59 58 58 57 54 53 50 50 50 49 48
24 22 18 23 30 28 27 26 38 44 45 44 45 48 50 50 51 52 51 50 51 51 52 53 52 52 50 50 49 50 52 54 55 55 55 59 60 61 60 59 59 59 57 52 52 51 49 49 49
23 21 21 21 27 26 27 24 35 40 40 41 43 45 48 48 49 51 50 50 51 51 51 52 52 51 50 49 50 52 54 53 54 54 53 59 60 60 60 60 60 59 57 55 53 51 49 48 50
21 24 25 23 24 22 23 21 25 33 37 39 43 45 47 49 48 50 49 49 50 50 51 51 52 53 52 52 51 52 52 51 51 53 54 58 60 60 60 59 59 59 58 57 55 53 52 50 50
23 29 29 28 25 23 21 24 26 28 26 32 44 44 46 50 49 48 48 48 49 49 50 51 52 51 51 53 54 53 51 51 51 51 53 56 60 59 59 58 57 57 57 55 56 54 54 53 52
26 27 27 27 26 22 22 24 24 26 26 29 37 45 46 48 50 49 48 49 48 48 49 50 51 51 51 52 53 52 50 52 52 51 53 56 59 60 59 58 58 57 58 57 54 54 53 52 49
26 26 25 26 26 23 28 29 23 29 29 32 35 46 47 46 49 50 49 48 49 49 50 50 51 51 51 52 52 52 54 53 53 52 54 58 58 58 58 58 57 56 55 53 53 54 52 50 48
26 26 28 22 26 28 31 29 24 31 30 32 29 35 47 46 48 49 50 50 50 50 51 51 50 50 50 52 52 53 55 58 56 56 57 57 58 58 58 58 57 56 53 52 52 50 50 48 47
28 25 27 28 34 30 31 28 31 31 30 26 22 25 41 45 47 48 50 50 50 51 51 52 51 50 52 53 54 56 56 57 58 56 58 58 58 59 57 58 56 54 52 50 50 49 47 46 44
24 25 28 30 28 27 27 27 29 31 25 23 23 30 33 36 43 48 49 50 51 51 52 53 53 53 53 53 55 55 58 58 58 58 58 59 59 58 57 55 52 50 50 50 48 46 44 43 44
25 23 25 30 31 26 24 26 34 33 32 22 27 27 34 35 35 40 45 49 49 50 52 53 53 53 53 54 54 55 58 58 58 60 60 58 56 55 54 52 50 49 49 47 46 44 43 43 43
24 24 25 28 28 32 29 26 31 31 29 26 23 28 32 36 37 38 42 46 49 49 50 53 54 54 55 55 56 59 60 59 59 58 58 56 54 54 51 50 49 48 46 45 44 42 42 41 41

GFSSGP_sfc_dewp_066.txt.gz
Dewpoint
54 49 40 39 23 20 18 17 20 17 31 43 45 39 47 54 51 49 61 62 63 65 70 70 71 71 71 71 70 70 70 70 70 71 70 70 69 69 68 67 67 66 64 63 64 64 64 65 65
47 45 41 33 21 15 15 17 16 18 31 46 45 45 52 54 54 58 59 60 62 60 61 67 70 70 70 69 70 70 70 70 70 70 70 69 69 68 67 67 66 65 64 62 64 64 63 61 62
43 44 36 28 19 16 15 17 17 42 45 44 42 49 52 52 57 58 63 67 61 60 60 61 69 69 70 70 69 69 69 69 69 70 70 69 68 68 67 66 65 65 64 62 63 62 60 60 63
37 30 27 18 17 18 20 20 20 41 45 46 48 49 51 58 62 64 65 67 62 62 63 66 68 69 69 66 69 69 69 68 69 69 69 69 68 68 67 66 65 64 62 61 61 60 59 61 63
38 27 19 19 17 17 18 18 42 43 46 46 47 47 50 60 61 63 64 66 66 67 68 67 67 66 68 70 70 69 68 68 69 69 69 68 68 68 67 65 64 63 62 58 57 58 60 60 62
33 25 20 19 20 19 16 33 44 44 45 45 47 48 49 58 59 61 64 66 67 64 63 63 63 62 63 68 68 67 67 68 69 69 68 68 67 67 66 65 64 63 61 59 58 59 60 59 61
29 21 18 17 16 13 19 40 41 42 45 45 47 44 48 53 60 62 64 65 64 64 62 63 62 62 62 62 67 67 67 68 68 67 67 67 66 65 65 64 63 62 61 59 58 58 58 58 58
24 21 18 16 13 13 17 34 45 44 47 50 49 46 48 55 59 62 64 63 62 62 63 63 62 61 61 61 62 62 64 67 67 66 66 65 65 65 64 63 62 62 60 58 58 57 57 56 58
22 19 17 15 14 15 20 27 48 51 50 51 53 55 57 60 60 60 61 62 62 62 62 62 61 60 60 61 60 60 61 65 66 65 65 63 63 61 60 61 61 61 60 58 57 57 56 53 56
20 17 17 16 16 16 42 39 47 45 43 46 49 57 59 59 60 58 58 58 59 60 60 60 60 60 60 61 60 59 63 62 63 62 62 62 60 59 59 61 61 60 59 57 56 55 54 49 41
21 19 20 18 16 21 41 43 45 41 41 44 45 55 58 59 58 58 58 56 56 59 60 60 59 59 59 58 58 60 61 61 60 60 60 60 60 59 58 57 56 55 54 49 48 48 46 43 40
20 21 20 18 30 33 38 46 43 45 44 50 46 57 57 56 56 56 56 56 56 57 60 59 58 58 58 58 58 58 59 58 58 58 59 58 57 56 55 53 51 49 48 48 48 48 45 42 40
20 21 21 21 28 35 44 45 43 46 50 52 55 56 56 56 55 56 55 55 56 56 58 57 57 57 57 56 55 58 59 59 58 58 57 56 54 53 53 51 49 48 47 49 49 47 44 43 40
26 26 26 23 29 33 37 42 41 45 48 51 55 54 55 54 54 54 54 54 55 55 56 58 57 57 58 57 57 58 59 58 58 57 56 55 54 53 51 50 50 49 49 51 49 47 45 42 38
27 25 24 23 29 30 39 39 38 45 51 52 54 55 54 53 53 53 54 54 55 55 55 56 57 57 57 57 57 57 57 56 56 58 57 56 54 54 53 51 51 51 52 51 49 48 48 44 41
25 27 21 25 30 30 29 27 41 45 49 49 51 54 53 52 52 52 53 54 55 54 54 56 57 56 56 55 55 55 52 54 56 58 58 57 56 55 54 54 54 54 53 52 51 50 48 45 43
26 21 22 23 29 31 33 31 42 45 45 47 49 52 52 51 51 52 53 53 54 54 54 55 54 53 53 53 53 53 52 51 51 58 57 56 57 57 56 56 56 55 54 52 51 49 49 47 45
21 22 20 19 27 33 34 34 41 44 45 44 43 49 51 51 51 51 52 53 53 54 54 55 54 53 53 53 52 51 54 54 54 54 56 56 56 58 57 56 56 54 54 52 51 49 50 50 48
24 24 23 22 29 32 32 34 38 43 44 45 45 47 51 51 51 51 51 52 52 53 54 53 53 52 51 50 50 49 47 51 53 53 54 57 57 59 57 56 57 55 53 52 51 50 49 49 49
25 23 22 21 29 31 27 27 33 42 43 45 46 47 51 51 51 51 51 51 51 52 53 53 52 52 51 50 49 48 47 51 53 53 54 56 58 58 58 58 57 56 55 53 51 50 49 49 49
24 23 23 21 22 27 27 25 37 40 44 44 45 47 50 51 50 51 50 50 50 51 52 52 52 52 51 51 49 50 51 53 53 53 53 55 58 58 57 57 58 58 57 54 53 52 49 48 50
24 25 25 25 26 22 24 19 29 39 39 40 42 48 50 50 51 51 50 49 50 50 51 52 52 51 51 51 49 48 48 48 49 49 51 54 58 58 59 59 58 58 58 56 54 53 51 50 49
25 27 26 27 25 23 23 20 22 33 35 38 41 44 49 49 51 51 50 49 50 50 51 52 51 51 50 49 49 48 49 50 52 53 53 53 57 58 59 59 59 59 58 57 56 53 52 52 51
27 26 28 28 26 23 24 23 21 24 27 32 40 42 47 49 50 51 50 50 50 51 51 51 51 50 50 49 49 49 50 52 53 52 52 53 56 58 59 59 58 57 57 55 55 54 53 51 52
26 24 23 24 24 23 25 27 28 27 26 32 42 44 45 49 48 50 49 49 49 49 49 49 50 50 50 50 50 51 52 52 52 51 52 52 54 57 58 57 57 57 57 56 53 52 52 51 51
26 26 26 22 23 24 31 27 28 29 31 32 43 44 45 49 49 48 48 48 48 48 48 49 49 49 50 50 50 52 53 54 53 53 54 54 55 56 59 58 57 57 55 54 52 52 52 50 49
27 26 28 28 32 27 28 29 29 30 30 29 37 44 44 46 49 49 48 48 48 47 48 49 49 49 49 49 50 52 54 54 54 55 55 56 57 57 57 57 57 56 55 51 51 51 49 48 48
25 28 26 30 26 24 27 27 28 29 27 25 24 37 40 46 45 50 50 49 49 49 49 50 50 49 48 49 50 51 52 54 57 56 57 57 58 58 57 57 56 54 52 51 50 49 47 46 45
25 25 26 29 32 27 24 25 32 31 26 28 26 33 37 44 46 47 50 50 50 50 52 51 51 51 50 51 51 52 54 57 58 58 58 58 58 59 58 56 53 51 51 49 48 46 45 44 43
23 25 26 26 27 31 29 26 31 33 32 29 27 29 35 40 45 46 48 50 51 51 51 52 53 53 54 56 56 56 58 59 59 59 58 58 57 55 54 53 51 50 49 47 46 44 44 43 42

GFSSGP_sfc_dewp_069.txt.gz
Dewpoint
53 50 40 36 19 21 21 17 21 19 17 43 45 43 50 52 50 45 61 62 64 70 70 70 71 71 70 70 70 70 70 71 71 70 70 69 69 68 68 67 66 67 67 66 65 64 65 64 64
48 42 40 28 20 14 12 17 16 18 31 46 46 49 53 51 55 58 59 62 62 64 69 70 70 70 70 69 70 70 70 71 70 70 69 69 68 68 67 66 66 67 67 65 65 64 64 65 66
42 41 32 26 19 16 15 17 17 39 44 45 44 51 52 52 57 58 60 66 64 62 61 69 70 69 69 68 68 68 68 70 70 69 69 68 68 68 67 65 65 66 66 64 62 61 62 64 65
35 30 24 20 18 19 19 19 20 30 43 45 47 47 50 57 61 63 64 65 66 62 61 63 68 68 68 67 68 68 68 69 69 69 69 68 68 68 66 65 65 66 65 62 59 61 64 64 63
37 27 19 19 17 18 19 19 24 41 43 44 47 44 49 59 61 62 63 64 66 63 64 65 64 62 62 63 66 69 68 69 69 68 68 68 68 67 66 64 64 64 63 60 61 64 64 63 62
30 24 21 19 18 19 18 34 44 44 45 46 45 47 49 57 57 61 63 66 65 64 65 63 62 61 62 61 64 67 66 68 68 68 67 67 67 66 65 64 63 62 61 61 61 63 63 62 61
27 24 21 18 17 17 17 41 41 43 43 43 48 44 48 53 58 61 63 64 63 63 62 62 61 61 61 61 62 66 64 67 67 67 67 66 66 65 64 63 62 61 59 59 59 61 62 62 61
27 22 22 18 17 14 19 42 44 43 42 50 49 46 46 53 60 62 62 62 62 62 62 61 61 60 60 60 61 64 64 67 66 66 66 65 64 64 63 62 61 59 58 59 59 60 60 61 60
22 20 18 18 16 14 27 35 48 50 50 51 53 54 55 59 61 61 61 61 61 61 62 61 60 60 60 60 61 60 61 66 66 66 65 63 62 60 58 60 60 59 59 58 58 58 61 60 60
21 18 17 18 16 17 33 41 45 45 43 46 49 54 57 60 58 57 58 59 59 59 60 61 60 60 60 60 60 58 60 62 64 63 62 61 59 58 58 60 59 58 58 58 58 55 56 56 54
21 19 20 20 21 18 36 43 46 42 39 41 44 50 57 57 57 56 55 57 57 59 59 59 59 59 59 58 59 59 61 62 62 62 61 59 59 59 57 55 55 52 51 46 47 44 41 41 46
19 20 21 20 20 30 39 43 43 41 40 47 45 55 56 57 55 55 55 56 57 59 58 59 59 59 59 57 56 57 61 61 61 61 59 58 57 56 55 52 50 47 48 47 46 44 42 40 44
20 20 22 23 25 32 44 43 40 43 47 51 51 57 56 55 55 55 54 56 57 57 58 58 59 59 58 57 56 59 59 59 60 61 58 56 55 53 52 50 48 47 49 48 46 44 42 40 39
23 25 26 26 24 41 40 42 43 40 49 51 55 55 55 54 53 52 54 54 55 56 57 58 58 58 58 57 57 59 59 59 59 59 56 55 53 52 50 48 47 48 49 49 47 44 43 39 38
27 23 24 24 24 28 39 37 40 42 49 49 55 54 54 54 53 52 53 54 55 55 57 57 57 58 57 56 57 58 59 59 58 57 55 54 53 50 49 49 49 49 50 49 48 46 44 41 38
23 26 21 24 26 27 30 24 33 44 47 50 53 54 53 52 52 51 53 54 55 55 56 57 58 57 57 57 57 57 56 58 57 56 55 54 53 52 50 50 50 52 52 50 49 48 46 43 40
25 17 20 21 25 30 30 27 34 44 48 50 50 53 52 51 51 51 53 54 54 54 56 56 57 57 56 55 55 54 53 55 56 57 55 55 54 54 51 52 52 53 53 51 50 49 48 45 43
19 22 25 20 22 31 33 32 35 43 44 45 48 50 50 50 50 51 52 53 54 54 55 55 56 56 55 54 54 53 54 52 54 56 56 56 55 56 55 55 55 54 53 52 51 49 49 47 46
24 24 23 22 23 30 31 32 33 40 43 44 44 48 50 51 51 51 52 52 53 54 54 54 54 54 53 53 54 52 50 50 53 54 55 56 56 57 56 56 56 54 53 51 51 49 48 49 48
25 24 23 23 24 30 29 30 32 41 42 42 43 45 49 50 50 51 51 51 52 54 53 53 52 52 52 52 51 51 48 50 53 53 53 55 56 57 57 56 56 55 54 53 51 50 49 49 49
24 24 23 23 23 30 27 25 28 38 42 44 45 46 50 50 50 50 50 51 51 52 53 52 52 51 51 50 50 49 49 50 50 51 52 53 55 57 57 57 57 56 55 53 52 51 50 49 50
21 25 25 24 24 22 24 19 23 33 39 43 43 46 49 50 51 51 50 50 50 51 52 52 52 52 51 50 49 48 47 44 44 47 48 50 55 57 57 57 57 57 57 55 54 53 51 51 50
24 29 27 27 25 23 23 20 21 32 35 38 41 43 47 50 51 50 50 50 50 50 51 52 52 52 51 51 50 48 47 47 47 48 50 51 53 56 57 58 57 57 57 57 55 52 52 52 50
28 28 28 29 26 22 23 22 22 24 30 34 39 41 45 50 51 51 51 50 50 50 50 52 52 51 51 51 50 49 48 48 49 51 52 52 53 55 57 57 58 57 57 56 56 54 52 51 50
28 25 23 22 21 21 24 24 23 26 26 29 32 40 43 48 50 50 50 50 49 49 50 51 51 51 51 51 50 49 48 49 50 50 52 50 51 53 56 57 57 57 57 56 54 53 53 51 50
26 25 25 20 22 22 29 28 28 31 32 31 30 37 41 47 49 50 51 50 50 50 50 50 51 51 50 50 50 50 48 49 51 53 53 53 53 53 55 57 58 57 56 56 54 54 52 52 51
26 25 26 25 30 27 27 27 28 29 30 29 38 40 42 45 48 49 51 50 50 50 50 50 50 50 50 50 50 49 50 50 52 53 54 54 55 55 55 56 57 57 56 56 55 54 51 50 49
26 28 25 28 23 23 25 27 26 28 28 25 32 43 44 44 48 48 50 51 50 50 50 51 50 49 49 50 50 49 50 52 53 54 54 55 55 57 57 57 57 56 56 53 53 51 49 49 47
25 24 27 28 29 24 24 25 30 31 32 26 25 38 44 45 48 49 49 49 50 49 49 50 50 48 48 48 49 50 51 53 54 54 55 56 57 58 57 57 57 56 54 53 51 49 47 46 45
25 25 27 25 24 30 27 25 30 32 32 32 30 29 35 43 46 47 50 50 48 49 49 49 50 50 51 50 50 51 52 53 54 55 57 57 58 58 58 57 55 53 51 50 49 46 46 45 44

GFSSGP_sfc_dewp_072.txt.gz
Dewpoint
52 46 41 31 14 19 18 16 22 18 18 38 47 43 44 50 46 40 60 63 64 69 70 70 70 71 71 71 71 71 71 71 71 71 70 70 70 69 68 68 68 67 67 65 65 64 64 64 64
47 41 37 26 16 10 9 16 16 18 23 44 49 50 51 49 54 57 60 63 63 66 68 69 70 70 70 70 70 71 71 71 70 70 70 69 69 68 68 67 67 67 67 65 64 65 64 64 64
44 40 30 22 18 13 14 17 17 24 43 45 44 51 51 50 56 57 62 64 65 63 63 68 70 69 69 70 70 70 70 70 70 69 69 69 68 68 67 67 66 67 67 66 66 66 65 64 64
33 29 24 20 22 19 18 20 20 21 39 45 47 44 50 57 61 62 63 64 64 65 63 65 66 66 67 67 66 68 70 69 69 69 69 68 68 67 67 67 66 66 66 64 64 65 66 64 63
33 25 19 20 17 18 19 20 35 38 41 43 47 41 48 58 60 61 62 63 64 64 63 64 64 63 64 64 64 64 67 68 68 68 68 68 67 66 66 66 66 64 63 62 65 65 64 64 62
29 24 20 17 17 19 20 20 43 44 44 45 44 45 46 56 57 61 63 64 65 64 64 61 63 63 63 63 61 64 66 68 68 68 68 67 66 65 66 66 64 63 64 65 65 64 63 62 61
26 23 21 18 18 18 16 41 41 42 42 41 47 44 46 51 57 62 63 63 63 63 61 60 62 62 62 61 61 64 66 66 67 66 67 66 65 65 64 64 63 62 65 65 64 63 62 62 61
27 22 25 18 18 15 19 41 44 42 39 50 49 42 44 52 60 62 62 62 61 61 61 61 62 60 60 61 61 63 65 66 66 66 66 65 65 64 63 62 61 61 63 64 63 62 62 61 60
23 20 19 19 16 15 25 35 46 48 49 50 51 53 54 58 61 61 61 61 60 60 60 61 60 60 59 60 60 62 65 66 65 65 65 63 62 60 58 58 59 59 61 62 63 62 61 60 60
22 19 19 20 18 17 20 34 40 44 44 43 48 51 58 59 60 59 59 59 59 60 60 61 60 60 59 60 58 62 64 63 63 63 62 61 59 57 58 58 59 59 59 61 62 62 60 58 56
20 19 20 20 19 19 20 40 46 44 39 40 42 48 56 58 58 57 58 59 59 59 60 60 59 59 59 58 58 60 62 63 63 61 61 58 58 58 56 53 53 53 53 51 56 54 51 53 53
19 20 20 20 21 27 32 42 43 43 41 48 44 53 55 56 56 56 56 57 58 59 59 59 59 59 59 58 57 59 61 62 61 61 58 57 56 54 52 49 48 48 47 44 45 47 46 48 50
20 19 21 23 25 26 38 39 41 42 45 51 49 56 55 55 56 56 55 56 58 58 58 59 59 59 58 57 57 59 61 61 61 60 57 55 53 52 50 48 48 48 48 44 42 43 45 47 48
21 22 25 25 24 31 39 39 43 40 48 52 52 54 54 55 55 53 54 55 56 58 58 59 59 59 58 56 57 59 60 61 61 59 56 53 52 51 48 48 48 49 47 46 42 40 42 42 44
25 23 23 22 23 25 39 33 40 43 49 51 54 54 54 54 53 53 53 53 55 57 58 58 58 58 58 56 58 58 59 60 60 58 55 54 51 50 48 48 48 49 49 47 44 43 40 39 39
23 23 18 21 26 28 32 25 28 39 47 47 52 53 53 53 52 51 53 52 53 55 57 57 58 58 57 57 58 59 59 59 59 57 55 54 52 50 49 48 49 50 51 48 46 44 42 40 39
23 15 18 19 23 30 30 28 29 44 46 46 50 52 52 53 52 51 53 52 54 55 57 57 58 57 57 57 57 57 58 58 59 57 54 53 52 51 49 49 51 52 52 50 48 48 46 43 41
19 21 23 21 22 26 27 31 31 40 45 47 49 49 53 52 51 51 53 53 54 55 56 57 57 57 57 56 55 56 57 58 58 57 53 52 52 52 52 51 52 53 52 51 50 48 49 46 44
21 22 22 22 23 24 23 26 28 34 43 43 44 48 50 50 50 51 52 53 53 54 55 56 56 56 56 55 52 54 55 56 57 56 54 53 53 53 54 53 55 54 52 51 50 50 49 49 47
24 22 22 23 24 23 23 26 28 36 39 42 42 44 48 50 50 50 52 50 53 52 54 54 54 54 55 55 54 55 53 53 54 55 56 56 55 55 55 55 56 55 54 52 51 50 49 49 48
24 22 23 22 23 25 26 26 25 29 39 42 43 43 46 50 49 49 50 49 51 52 53 53 53 53 53 54 53 52 52 53 52 53 53 55 56 57 57 56 56 55 54 53 52 50 50 49 50
20 25 24 23 23 21 26 21 22 23 30 40 42 44 45 49 50 50 49 49 50 53 53 53 52 52 51 50 50 49 49 49 49 50 51 52 55 56 56 56 56 56 55 53 53 52 52 52 49
21 26 25 25 25 24 23 20 22 27 27 28 37 42 45 49 50 50 50 50 50 50 52 52 52 51 50 50 50 49 48 48 46 48 48 49 52 54 55 56 56 57 56 55 55 53 52 52 51
28 28 28 29 26 23 24 22 22 23 26 26 34 39 43 47 50 51 51 50 50 51 51 52 51 51 51 50 49 49 48 48 47 47 48 50 51 52 54 55 56 56 56 56 56 56 54 53 52
27 25 23 22 23 23 24 23 22 24 25 27 29 32 40 44 50 50 50 50 49 49 51 51 52 51 51 51 50 49 48 48 48 47 48 48 50 51 52 54 55 56 56 56 56 55 54 52 51
27 26 25 20 21 21 28 24 26 30 31 32 30 29 36 44 49 50 50 50 50 49 50 51 51 51 51 51 50 50 49 49 49 49 50 51 50 50 52 54 55 55 55 54 54 53 54 54 53
26 25 27 23 28 27 25 27 26 28 28 29 30 34 35 43 49 50 50 50 49 49 49 50 51 51 51 51 51 50 50 49 49 51 52 52 52 53 52 53 54 55 56 55 55 55 54 52 52
26 28 25 27 21 22 24 26 24 26 26 29 26 38 40 43 48 49 50 51 50 50 50 50 50 51 51 51 51 50 50 50 50 51 52 53 54 53 53 54 54 55 55 55 56 56 55 53 50
25 25 26 27 27 22 21 23 30 27 30 30 28 26 42 44 45 48 49 51 51 50 51 50 50 51 50 50 50 50 50 51 51 52 53 54 54 54 55 55 56 56 56 55 54 53 51 51 48
26 26 25 24 22 29 25 22 28 30 31 32 32 32 30 45 45 48 49 50 51 50 50 50 51 51 51 50 50 50 51 51 51 52 52 53 54 55 56 56 56 56 55 52 52 50 49 49 47

GFSSGP_sfc_dewp_075.txt.gz
Dewpoint
52 42 41 30 19 18 13 13 21 18 18 30 46 44 41 46 44 41 61 64 65 69 69 69 71 71 71 71 71 71 71 71 71 71 71 71 71 70 70 69 68 68 68 66 66 66 66 65 65
45 41 36 27 15 13 14 16 16 19 20 46 51 49 49 45 54 57 62 65 65 69 69 68 70 71 71 71 71 71 71 71 71 71 71 70 70 69 69 68 68 67 67 64 64 64 65 65 65
44 37 31 24 19 15 15 17 18 18 26 41 43 50 51 48 55 57 63 64 65 64 68 68 70 69 69 69 70 70 70 70 70 70 70 70 69 69 68 67 67 67 66 65 64 64 64 64 65
34 30 25 23 18 20 19 20 21 21 31 44 46 42 50 55 59 62 62 63 65 64 66 67 67 67 67 67 68 69 70 69 69 69 70 69 69 69 68 67 66 66 66 66 64 64 64 64 64
32 27 22 20 19 19 21 20 24 34 39 42 47 41 47 57 61 60 62 63 64 65 66 66 66 66 66 65 64 64 68 68 68 69 68 68 68 68 67 67 66 67 67 67 66 64 63 63 63
29 27 22 16 17 19 20 22 38 42 42 44 43 43 45 57 57 60 64 64 65 65 65 65 66 66 65 64 63 64 66 67 68 67 68 67 67 67 67 66 65 65 66 66 66 64 63 62 62
28 24 19 19 18 19 18 37 39 40 40 39 45 41 46 53 58 63 62 63 65 64 64 64 65 65 64 64 64 64 66 66 67 67 66 66 66 66 66 65 64 65 66 66 65 64 62 62 61
27 24 21 20 18 17 18 38 42 40 36 49 47 40 43 51 60 62 62 62 62 62 62 63 63 63 62 63 62 63 65 66 66 66 66 65 65 66 64 63 65 66 66 65 64 62 62 62 61
24 23 20 20 19 17 19 29 43 48 44 47 49 50 54 59 61 61 61 61 61 61 61 62 62 61 62 62 62 63 66 65 66 66 65 63 63 62 60 61 64 65 64 63 62 62 61 61 60
24 23 21 21 20 19 20 25 28 42 43 44 48 55 58 59 60 59 59 59 59 59 60 61 62 61 61 60 62 63 63 65 65 64 63 61 61 59 57 60 62 64 63 62 62 62 61 57 54
23 21 22 20 20 20 21 30 39 41 35 39 40 49 55 57 58 58 59 59 60 60 61 61 60 60 60 59 60 63 64 63 64 63 62 59 58 58 57 57 58 61 62 58 58 57 53 55 53
22 22 22 20 21 24 24 35 40 43 35 46 44 52 55 56 56 57 58 59 60 60 60 61 60 60 60 58 59 62 61 62 62 61 59 58 56 55 54 53 54 56 59 59 57 55 55 55 53
22 20 20 21 22 25 31 32 33 40 45 48 52 54 54 55 56 56 56 57 58 59 60 60 60 59 59 58 59 61 61 60 60 60 57 55 53 52 51 51 50 49 53 55 53 53 52 52 52
22 21 21 25 24 25 27 31 41 39 43 48 52 54 55 54 55 56 55 55 57 59 59 60 59 59 58 57 59 61 61 60 60 59 56 55 51 50 49 50 49 48 49 50 52 52 52 51 51
24 23 23 22 21 22 35 30 37 41 48 49 51 53 56 55 55 54 54 54 55 58 59 59 60 59 58 58 59 60 61 60 59 58 57 54 51 50 51 51 50 49 47 48 48 51 51 50 49
24 23 19 18 26 31 32 22 28 35 44 45 52 53 55 55 55 55 54 53 54 56 58 59 59 59 58 58 59 60 61 61 59 56 55 54 51 51 52 51 51 51 50 48 46 47 46 46 47
24 14 18 17 22 32 31 24 27 43 44 44 47 52 54 54 54 54 54 53 53 54 57 58 59 58 57 58 60 59 59 59 58 57 53 53 52 52 52 52 53 54 53 51 46 45 44 43 42
18 20 20 18 24 26 26 24 25 31 40 41 44 49 53 53 53 53 53 53 52 55 57 57 58 57 58 58 58 58 59 59 58 56 53 52 51 52 52 52 53 54 52 50 49 48 48 44 43
21 20 17 21 23 23 20 20 23 28 40 41 44 47 51 53 54 53 53 53 53 55 56 57 57 57 57 57 57 57 57 58 58 57 54 53 51 53 52 52 54 55 53 52 53 52 51 49 48
23 21 20 21 24 24 21 21 23 28 33 36 39 44 48 52 52 52 52 53 53 53 54 56 56 56 56 56 56 57 57 58 58 57 55 54 53 53 53 54 56 55 56 54 54 53 53 53 50
25 24 22 19 23 23 24 22 26 27 34 38 41 42 44 50 51 51 52 50 53 51 52 53 55 56 55 55 55 55 55 56 56 56 56 54 54 53 54 55 57 57 57 56 55 54 53 51 51
25 25 23 22 21 13 26 18 25 25 25 31 34 43 43 47 51 51 50 50 51 52 53 55 55 55 55 55 54 54 53 53 55 55 55 55 54 55 54 57 57 58 58 57 57 54 54 54 52
22 26 24 23 21 22 19 21 23 25 24 25 28 37 44 46 50 51 51 50 50 52 53 53 54 54 54 55 54 53 54 54 56 55 55 55 55 54 56 57 58 58 58 59 58 56 56 56 55
27 26 27 29 26 23 24 23 22 23 25 26 29 33 42 47 49 51 52 52 50 51 53 53 53 53 53 54 54 53 53 53 51 52 52 52 54 55 56 56 58 58 59 59 59 58 57 57 54
26 26 22 24 25 21 25 24 24 26 26 27 29 29 34 46 49 50 51 51 50 50 52 51 52 52 53 52 53 53 53 52 51 51 52 51 52 53 54 56 57 58 58 59 59 59 58 57 57
27 26 24 16 22 22 25 22 22 29 31 30 32 33 33 43 49 50 51 51 51 51 51 51 51 52 52 52 52 53 52 51 51 51 50 52 52 53 54 56 56 56 57 58 59 59 59 59 58
28 26 28 25 28 27 24 26 26 27 28 29 30 31 35 38 46 49 51 51 51 51 52 52 52 52 52 53 52 52 53 52 52 52 53 54 54 54 54 55 55 56 57 57 58 59 58 59 58
27 29 26 27 20 18 22 25 22 26 26 29 31 31 31 41 45 49 50 51 51 52 52 52 52 52 52 53 52 52 52 53 53 54 54 54 55 54 54 54 54 54 56 57 58 58 58 57 55
26 26 27 27 27 21 19 23 32 30 30 31 34 34 33 38 45 49 50 51 51 52 52 52 52 52 52 52 53 53 53 53 53 53 53 53 55 54 55 55 55 55 56 57 57 58 57 57 56
27 27 28 26 23 29 27 23 29 33 32 35 34 34 36 34 43 47 50 51 51 51 51 51 51 52 54 53 53 53 53 53 53 53 53 54 54 54 55 54 55 55 55 56 56 56 55 54 52

GFSSGP_sfc_dewp_078.txt.gz
Dewpoint
48 36 34 33 19 10 3 7 16 16 18 21 32 34 36 42 36 37 62 65 66 67 67 68 71 71 72 72 72 72 72 72 71 71 71 71 71 71 71 70 70 69 69 68 67 67 66 66 66
37 39 37 26 14 7 7 15 16 17 20 29 36 44 43 37 50 55 61 64 65 68 67 66 71 71 71 72 72 71 72 71 71 71 71 71 71 71 70 70 69 69 68 67 67 66 66 65 65
42 41 29 21 16 9 12 16 18 21 22 27 38 44 44 40 53 57 62 63 66 67 68 67 70 70 70 70 71 71 71 70 70 71 71 71 70 70 69 68 68 67 68 66 66 66 65 65 65
35 29 26 18 13 16 16 19 21 25 25 33 38 38 48 53 56 59 62 63 64 65 69 68 69 69 69 69 70 68 70 70 70 70 70 70 70 69 69 67 67 67 67 66 65 65 65 65 64
32 27 17 12 14 17 19 20 23 31 31 37 42 33 42 52 60 61 61 62 63 67 68 68 67 67 67 68 68 68 68 69 69 69 69 69 69 69 68 67 66 66 66 66 64 65 64 64 63
27 26 13 7 14 16 18 23 30 34 34 38 38 37 41 54 57 59 62 62 65 66 68 68 67 67 67 68 67 67 67 67 69 67 68 69 68 68 67 66 66 67 66 65 65 64 63 63 63
25 19 13 10 13 16 18 27 28 26 29 32 39 36 41 49 55 61 62 63 65 67 67 68 68 66 65 64 65 66 66 67 67 67 66 67 67 67 67 66 67 67 67 65 64 64 63 62 62
24 20 16 13 12 14 18 24 31 31 26 45 41 29 36 49 57 60 62 63 64 64 65 65 67 66 65 65 62 64 66 65 66 66 66 66 66 66 65 65 66 67 66 65 63 63 62 62 61
26 17 13 11 14 16 19 21 27 37 33 40 43 42 49 54 58 58 61 61 62 62 62 63 63 65 65 64 63 63 64 65 65 66 66 65 65 63 62 63 66 66 65 64 63 63 62 61 60
21 15 14 15 17 18 20 22 24 29 26 35 43 50 55 56 56 56 58 58 61 61 61 61 62 62 63 62 63 64 64 64 65 65 65 64 63 62 61 65 65 65 63 63 63 62 61 57 52
20 15 16 18 18 19 19 20 25 27 22 24 29 35 52 54 54 55 56 58 59 61 61 62 62 62 62 62 62 64 65 65 65 64 63 63 63 62 63 64 62 61 60 54 56 56 51 51 50
17 18 16 17 19 20 19 20 25 24 29 40 36 42 49 51 53 54 55 57 59 60 61 62 61 61 61 60 61 63 64 64 65 63 62 61 61 60 61 61 59 58 55 55 54 51 53 52 51
22 16 19 20 20 20 22 22 22 24 29 42 43 47 48 50 52 54 54 57 59 60 61 62 62 61 61 61 61 62 62 63 61 61 60 59 57 56 57 60 59 58 56 55 54 53 52 52 51
20 20 18 18 18 21 22 18 31 23 35 43 47 46 48 50 52 53 55 56 57 58 59 61 61 61 60 59 61 62 61 60 60 59 58 57 55 55 54 54 55 58 58 55 54 53 49 47 48
21 20 17 17 18 17 20 19 23 28 41 40 44 46 50 52 52 53 55 55 56 56 58 60 61 60 59 59 61 61 61 60 58 57 56 55 55 55 53 51 52 54 55 55 54 52 49 47 46
20 21 18 18 16 17 27 15 24 30 38 38 44 46 51 53 53 53 55 55 55 55 57 59 60 60 59 59 61 61 60 60 58 56 53 54 53 53 52 50 51 52 53 53 52 51 49 48 46
22 16 19 16 18 23 27 17 23 34 34 34 41 45 48 51 54 54 55 55 54 53 57 58 59 59 58 59 60 60 59 58 58 56 52 52 52 53 51 50 51 51 49 50 50 49 48 46 45
18 18 18 17 16 19 21 21 18 23 29 32 37 42 46 49 52 54 55 54 53 54 55 58 59 58 58 59 60 60 58 58 58 55 51 49 48 53 51 48 51 49 47 47 45 47 45 44 43
20 19 17 15 17 20 18 17 16 18 26 32 35 40 43 47 51 54 55 55 53 54 55 57 58 58 58 58 58 58 57 57 56 55 52 51 49 51 54 54 53 51 50 51 51 48 49 46 46
23 19 18 17 20 21 16 14 15 19 24 28 28 37 41 46 50 54 54 54 54 54 55 57 57 57 57 57 56 58 58 58 56 55 52 52 52 53 55 54 54 54 55 54 54 52 51 52 49
24 21 20 18 19 20 18 16 12 15 25 29 33 35 38 45 49 52 54 54 54 53 54 55 57 57 57 57 56 58 58 58 56 56 54 53 53 53 54 55 55 56 55 54 55 54 53 51 54
21 21 22 22 20 16 20 12 13 19 22 23 27 35 39 41 48 51 53 53 54 53 54 55 56 56 56 57 56 57 56 55 56 54 54 54 53 53 53 55 56 57 56 55 56 54 55 54 52
22 21 22 21 21 21 18 15 14 21 22 23 24 27 37 41 46 49 52 52 52 53 53 55 56 56 56 56 56 55 55 56 57 56 55 54 54 54 54 55 55 55 56 56 57 57 57 55 54
24 24 24 24 22 21 21 15 16 15 21 22 22 24 33 41 45 48 51 52 52 53 55 54 54 55 56 56 55 56 55 55 56 55 54 54 53 53 54 53 57 56 58 57 58 60 59 58 57
23 24 22 24 23 20 20 19 19 23 24 24 25 26 31 40 45 48 50 51 52 52 53 53 54 54 55 56 55 56 56 55 55 55 54 53 53 52 53 54 55 57 58 58 58 59 60 59 58
25 25 23 18 21 21 23 20 20 24 26 28 29 29 32 37 45 47 49 51 52 52 53 53 53 53 54 54 56 56 56 55 56 57 55 54 53 53 54 55 55 56 56 56 57 59 58 58 59
28 26 26 23 26 24 20 24 24 24 23 24 28 30 31 35 42 46 48 51 52 52 53 53 52 52 54 55 55 56 56 56 55 56 56 55 54 53 55 57 56 56 56 55 56 57 57 57 58
26 26 26 26 23 21 19 20 20 23 23 25 28 31 31 36 39 45 47 50 52 52 54 54 53 52 53 54 55 54 54 55 55 56 56 56 56 55 56 56 56 56 55 55 55 55 55 56 58
25 25 26 24 25 22 20 20 25 24 25 26 29 30 33 36 43 44 47 49 51 52 53 53 52 51 52 53 54 54 54 55 56 56 56 56 56 55 54 54 54 53 53 53 55 55 55 55 57
25 25 25 24 23 25 25 22 24 29 32 32 32 32 32 34 40 45 47 49 50 52 52 53 53 52 52 53 54 56 55 54 56 57 57 58 56 56 54 53 52 52 52 54 54 55 56 56 57

GFSSGP_sfc_dewp_081.txt.gz
Dewpoint
49 37 29 28 20 14 7 2 7 11 14 18 25 29 29 33 27 36 60 63 66 66 68 67 71 72 72 73 72 72 72 72 72 71 71 71 71 72 71 70 70 69 69 69 68 68 67 67 66
36 27 30 26 13 10 8 9 12 14 17 21 29 31 30 29 39 47 56 63 64 67 65 66 71 71 72 72 72 72 72 72 71 71 71 71 71 72 71 70 69 69 68 68 68 67 67 66 67
41 33 30 21 16 11 11 13 14 18 20 21 27 34 34 34 47 53 61 63 65 66 68 68 70 70 71 72 72 72 71 71 71 70 71 71 72 71 70 69 68 68 68 67 67 66 66 66 66
34 29 23 12 13 15 15 15 19 19 20 24 26 25 38 48 52 56 61 62 63 67 68 69 69 70 71 71 70 70 69 69 70 70 71 71 71 71 70 69 68 68 68 67 66 66 65 65 64
33 25 18 16 12 14 16 17 21 21 23 27 30 25 32 48 57 59 60 61 62 66 68 69 68 69 69 69 67 67 68 68 69 70 70 70 70 70 68 68 67 67 67 67 66 64 64 64 63
24 21 17 11 11 15 17 19 22 25 24 28 28 27 30 52 54 58 62 62 64 66 68 69 68 68 67 66 65 66 66 62 68 68 68 69 69 68 68 67 67 66 66 66 66 65 64 64 63
24 22 17 13 11 14 16 21 23 23 22 23 29 29 33 45 54 60 61 63 64 66 68 69 68 66 66 64 64 66 65 63 67 66 67 67 67 67 67 66 66 66 66 65 65 64 64 63 62
23 21 16 14 12 11 16 19 23 24 21 35 28 23 29 48 55 58 61 62 64 65 67 68 67 67 66 66 65 65 66 66 65 66 67 67 66 66 66 65 66 66 65 65 64 64 63 62 61
24 17 15 13 13 12 17 18 19 24 23 24 31 34 41 50 55 56 60 60 62 63 64 65 66 66 66 66 63 63 63 66 66 66 66 65 66 64 64 63 65 65 65 64 64 63 62 61 60
21 16 14 14 14 13 16 18 19 19 20 25 32 40 49 50 52 53 55 58 59 61 63 63 64 64 64 64 63 63 63 64 65 66 66 65 65 64 63 65 65 65 64 63 63 62 61 57 52
21 18 16 14 15 14 15 16 17 18 20 20 27 28 36 49 50 51 53 56 58 60 62 63 62 63 64 63 63 63 66 67 68 66 66 64 65 65 62 66 65 63 61 56 57 57 50 50 48
18 19 16 15 14 15 16 17 16 18 22 24 29 32 35 45 47 48 51 54 58 59 61 61 62 62 63 63 62 62 63 65 65 66 64 64 63 63 63 63 62 60 54 54 53 51 54 52 49
18 17 15 16 15 16 17 16 18 19 22 23 31 37 38 42 45 48 50 53 57 57 61 62 62 61 61 62 61 61 63 63 65 65 64 63 62 62 61 61 61 56 54 54 52 51 50 51 50
20 18 19 17 17 16 15 16 17 17 21 28 36 39 40 43 45 47 51 54 55 56 57 62 62 62 60 61 62 63 63 64 65 63 63 62 61 61 60 61 59 56 55 54 52 52 50 50 50
20 18 18 19 17 16 16 15 15 19 22 29 36 41 41 44 46 48 51 53 55 55 55 59 61 61 60 59 61 61 61 60 59 59 60 59 59 60 60 60 59 60 57 57 57 54 50 48 48
20 21 18 20 18 17 16 12 15 16 31 31 34 39 42 45 47 48 51 53 54 54 53 58 60 60 60 59 61 60 59 58 58 58 57 57 56 56 56 58 59 60 58 56 55 53 50 47 47
22 18 19 19 18 15 15 14 18 25 28 30 31 37 40 45 48 49 52 53 54 54 53 57 60 60 60 60 61 60 58 57 57 57 56 56 56 56 55 55 56 58 55 57 56 55 54 48 47
18 17 19 19 18 17 18 21 20 23 25 27 27 32 38 43 47 50 52 53 53 53 54 56 59 59 60 60 60 59 58 57 57 55 54 55 55 55 53 52 54 53 52 53 53 54 53 51 47
20 19 18 19 18 18 19 16 16 19 18 21 25 27 34 40 44 50 53 54 54 54 54 56 58 59 59 58 58 57 56 56 55 52 52 53 52 52 51 51 52 51 50 51 54 52 52 48 48
22 21 20 20 19 20 19 17 16 15 15 17 22 24 31 35 41 49 53 54 55 54 54 55 57 58 58 58 58 57 56 56 55 52 49 50 51 49 50 53 54 51 50 53 53 52 51 49 50
24 24 23 21 20 19 20 19 19 19 18 18 21 25 26 33 39 49 52 54 55 54 54 54 57 57 57 57 58 57 56 56 54 54 48 49 53 53 54 56 55 54 55 54 56 56 54 51 51
25 25 23 21 21 18 20 16 18 16 14 15 24 26 28 30 38 46 52 53 54 54 54 55 56 57 57 58 58 56 54 52 53 52 52 50 53 55 55 56 56 57 57 57 57 55 56 55 53
25 24 22 21 22 23 20 17 19 20 16 18 22 24 26 32 36 44 50 52 53 54 54 55 56 56 56 57 57 57 55 54 54 54 51 50 52 52 53 55 57 56 56 58 58 56 56 56 57
25 22 23 23 22 20 21 20 19 18 19 21 22 22 25 31 36 43 49 52 52 54 54 55 56 56 56 57 57 57 56 56 55 53 52 52 51 53 55 54 56 56 56 58 58 59 58 58 58
24 23 21 22 22 21 21 20 21 20 21 22 23 24 25 30 37 42 47 50 51 53 54 54 55 54 56 56 56 57 57 56 55 54 52 52 52 52 54 54 56 56 56 57 59 59 59 59 59
23 23 21 20 24 23 22 19 19 21 23 23 23 25 27 31 36 39 45 49 50 52 54 53 54 54 55 56 56 56 57 57 56 55 53 53 52 51 52 53 52 54 55 55 58 59 58 61 60
27 23 23 27 27 25 24 23 24 23 22 23 25 27 27 28 32 39 44 49 50 52 53 53 53 53 55 56 56 57 57 57 56 56 56 54 53 51 53 53 53 54 55 56 57 58 57 58 57
27 27 25 25 24 22 21 21 22 23 23 24 26 29 30 30 33 39 42 48 50 52 54 54 52 52 54 55 56 56 57 57 57 58 57 57 56 56 54 55 54 54 54 55 56 56 57 57 58
25 24 30 30 27 25 25 24 27 25 24 25 28 29 31 34 37 39 43 46 50 52 53 54 53 50 52 54 55 56 57 57 58 58 59 58 58 57 55 55 55 54 55 56 56 56 56 56 57
24 24 26 28 27 27 27 26 25 28 31 31 31 29 30 31 34 41 42 46 48 50 52 53 53 51 53 53 55 57 58 57 58 57 58 59 58 57 55 55 55 55 55 56 55 56 55 55 55

GFSSGP_sfc_dewp_084.txt.gz
Dewpoint
53 40 34 30 23 20 14 9 4 10 12 17 20 24 26 27 24 43 59 64 66 68 68 68 71 72 72 72 72 72 72 72 72 71 71 71 72 71 71 70 70 70 70 69 69 68 68 68 69
38 30 28 25 23 13 11 9 11 13 17 21 21 23 25 25 39 52 60 62 64 66 68 68 71 72 73 72 72 72 72 72 71 71 71 71 72 71 71 70 69 69 70 69 68 68 67 68 68
44 36 27 28 23 15 13 14 13 16 19 18 19 28 28 38 48 53 60 62 64 65 67 69 70 71 72 72 72 71 71 71 71 70 71 72 72 71 70 70 69 69 70 68 68 67 67 67 67
35 31 28 21 15 12 15 15 17 17 19 19 20 21 35 46 47 55 61 60 63 66 68 69 69 70 71 71 72 71 70 70 70 70 71 71 71 71 70 69 68 68 69 68 68 66 66 66 65
31 28 23 20 17 16 16 16 18 18 20 23 25 25 33 49 56 58 59 61 63 67 69 69 68 69 70 70 70 68 67 66 64 67 70 71 71 70 69 68 68 68 68 68 66 65 65 64 64
27 25 19 16 16 12 16 18 19 21 21 25 26 26 36 52 54 59 62 62 66 68 70 70 68 68 68 67 66 64 64 65 63 62 66 70 70 69 68 68 68 67 67 66 66 65 64 64 63
26 22 19 19 18 14 16 19 20 22 21 20 27 27 37 49 56 62 62 64 66 68 68 68 69 67 65 65 65 65 65 63 63 62 62 68 68 68 67 67 67 67 67 66 65 64 64 63 62
23 22 19 18 16 14 14 19 20 22 21 30 26 20 33 52 57 59 61 63 64 65 67 68 68 68 66 65 64 66 65 64 64 64 66 66 66 66 66 66 66 66 66 65 64 64 63 62 61
22 19 18 18 15 14 16 17 17 19 21 21 25 27 32 51 55 56 61 60 62 62 64 66 66 66 66 66 64 64 66 66 65 64 65 65 65 66 64 65 65 65 65 65 64 63 62 61 60
20 20 19 17 16 15 14 17 17 17 19 21 26 32 43 46 52 52 57 59 59 61 62 64 66 65 66 66 64 64 64 66 65 63 65 65 65 64 63 65 65 65 64 64 63 62 61 58 54
20 20 20 17 17 15 13 14 17 16 16 19 22 28 36 47 48 49 50 57 59 60 62 62 63 65 64 63 65 66 65 66 66 65 65 64 65 65 64 64 64 63 63 61 60 59 53 51 51
18 18 20 19 17 15 14 14 15 16 20 24 21 26 31 32 45 46 49 54 58 59 59 62 62 63 65 65 63 65 65 65 65 65 64 64 64 63 63 63 63 60 58 57 56 54 53 52 51
18 17 17 18 17 15 15 15 16 17 25 20 20 28 33 34 40 46 48 56 57 58 61 61 62 62 62 63 64 63 64 65 64 65 64 64 63 62 63 63 62 58 54 54 52 52 50 51 50
19 17 17 17 17 16 16 16 16 17 17 19 22 30 34 37 41 44 48 52 56 57 61 62 62 62 62 62 62 63 63 64 64 64 64 64 63 61 62 62 61 54 53 51 51 53 52 51 51
20 18 19 18 18 18 18 17 16 19 20 17 23 32 38 39 41 44 50 53 55 55 61 62 63 62 61 62 62 62 62 63 64 64 64 63 62 61 61 61 60 55 54 52 55 54 53 52 51
21 21 18 20 18 18 18 16 19 18 16 17 23 32 38 40 42 45 49 51 54 54 57 61 61 60 61 61 61 60 59 59 59 60 63 61 61 60 59 59 59 60 59 56 54 52 52 52 52
22 18 19 18 19 18 19 17 18 18 17 24 30 30 35 39 43 46 50 52 53 54 56 59 61 60 60 61 60 58 58 58 58 58 58 59 59 58 58 59 59 60 59 57 54 54 52 50 51
22 20 19 19 19 19 18 16 17 19 24 28 27 29 32 38 42 47 50 52 53 54 56 60 60 60 61 61 59 58 57 57 57 56 56 56 57 58 57 57 58 57 57 55 54 52 52 50 50
23 21 19 19 20 21 20 17 17 20 22 26 26 27 28 35 42 48 52 54 55 56 55 58 59 59 59 59 57 56 55 56 55 55 55 55 55 55 56 57 57 56 54 54 53 52 50 48 49
24 22 21 23 21 21 19 18 19 19 19 20 20 23 27 32 37 48 52 54 55 55 55 58 57 58 58 58 58 57 55 55 54 54 53 54 53 54 54 54 53 53 52 53 53 51 51 50 52
19 23 22 21 22 21 20 19 20 21 21 21 20 20 23 28 35 48 52 54 56 55 55 57 57 58 58 58 57 56 55 54 53 52 52 53 53 52 51 52 50 51 51 51 52 52 51 50 51
23 23 22 23 23 22 22 18 21 21 22 22 23 24 25 28 35 46 52 53 55 55 56 55 56 57 57 58 56 55 53 51 50 49 50 51 52 52 49 50 51 53 52 53 52 54 52 54 50
30 27 28 29 26 25 20 19 20 20 19 19 20 22 29 31 34 43 52 53 54 56 55 55 55 57 57 58 56 55 53 50 51 49 48 49 52 53 54 53 54 53 57 56 55 55 55 57 56
35 33 31 30 27 23 21 21 21 20 22 20 20 24 29 30 34 38 52 53 53 55 55 55 55 56 57 58 56 55 53 51 52 49 47 48 51 53 53 55 56 56 57 56 57 56 56 56 56
27 29 29 27 25 23 21 20 22 23 23 22 23 25 29 34 37 39 50 51 52 54 55 55 55 55 56 57 56 55 53 52 52 50 49 48 50 51 52 54 56 55 55 57 57 57 57 57 56
28 25 29 24 26 24 21 19 20 24 24 24 23 29 35 31 39 40 47 51 52 54 54 54 54 54 56 56 57 57 55 53 52 52 51 49 49 49 52 53 54 54 55 56 57 56 55 57 57
32 27 26 27 29 31 31 22 23 23 23 23 24 28 30 33 35 38 44 51 52 53 55 54 54 54 55 55 56 56 56 55 54 53 52 51 50 49 50 53 53 52 54 54 54 56 55 55 56
30 31 29 31 26 29 25 23 22 25 24 26 28 32 33 34 32 35 39 51 51 53 55 55 54 54 54 55 55 56 56 56 55 55 53 52 51 50 51 52 52 53 53 53 53 54 55 55 56
28 32 35 34 30 33 31 28 34 31 30 31 33 32 35 37 39 40 41 49 51 53 54 55 53 53 54 56 55 55 56 57 57 56 55 53 52 52 51 51 51 52 52 52 52 52 52 54 54
30 30 32 34 34 32 34 32 33 36 31 32 34 31 34 35 37 42 43 46 50 52 53 54 54 52 54 55 56 56 56 56 57 57 56 55 53 52 51 51 50 51 51 52 52 51 50 51 53

GFSSGP_sfc_dewp_087.txt.gz
Dewpoint
56 51 43 32 25 24 19 16 12 12 18 23 25 25 26 26 35 48 63 65 67 68 69 70 71 72 72 72 72 72 72 72 71 72 72 72 71 71 70 70 70 70 70 69 69 67 68 68 70
46 40 32 27 23 21 21 17 14 19 22 23 23 27 28 42 55 59 61 65 68 67 68 69 70 71 72 72 72 72 72 72 71 72 72 72 71 71 71 70 70 70 70 69 69 69 68 69 68
45 40 28 26 25 21 17 15 17 20 21 18 21 23 30 48 54 59 62 65 66 67 67 69 70 71 72 72 71 71 71 71 71 71 72 72 71 71 71 70 69 69 70 68 69 68 69 68 67
38 36 29 24 23 22 21 17 19 19 19 18 22 27 43 51 54 60 62 65 65 67 68 68 69 70 72 72 72 71 71 71 69 67 70 72 71 71 70 69 69 69 69 69 68 68 68 68 67
31 31 25 25 21 20 20 18 19 21 21 21 23 27 46 56 59 61 61 63 65 67 68 68 68 69 71 72 72 71 70 66 63 62 62 67 70 70 70 69 69 68 69 69 68 67 66 66 66
28 28 23 20 20 19 18 19 21 25 25 28 26 28 47 56 58 61 62 64 65 67 68 68 69 69 69 70 69 68 66 65 66 64 62 64 68 69 69 68 68 68 68 67 67 66 66 65 64
28 26 22 20 19 19 19 21 20 22 22 27 29 30 50 55 61 62 62 62 63 65 65 68 68 67 67 66 66 65 65 65 64 63 62 62 64 67 68 68 68 68 67 66 66 65 65 63 62
27 25 22 21 19 18 19 21 23 22 25 32 26 23 46 56 60 61 61 62 62 62 65 67 67 64 62 63 65 65 65 64 64 64 63 63 63 66 66 66 67 67 66 66 65 64 64 62 61
27 22 19 18 18 18 20 19 20 23 22 24 28 24 43 58 59 60 59 60 60 61 61 65 66 65 63 63 64 66 65 64 64 64 64 63 66 66 65 66 66 66 65 65 64 64 62 61 60
23 20 20 20 20 19 18 20 19 19 21 26 28 37 54 56 57 59 59 58 59 59 60 64 65 64 64 65 63 63 64 65 64 62 64 63 65 65 66 65 65 65 65 64 63 62 61 57 53
22 20 20 20 20 22 18 15 18 16 15 17 21 35 51 53 53 54 59 59 58 60 61 63 64 64 64 64 62 63 63 64 64 62 64 65 65 64 64 64 64 63 63 61 60 59 55 52 53
21 21 20 19 20 20 17 15 16 16 20 29 22 26 44 46 49 50 51 58 59 60 61 61 62 62 63 63 63 63 63 64 65 62 64 64 64 63 64 63 62 61 60 59 57 54 52 51 52
22 20 20 19 20 20 19 16 16 18 25 23 22 25 31 33 43 46 53 58 59 59 60 61 61 61 63 62 61 62 62 63 64 64 64 64 63 62 62 63 62 60 58 57 54 53 50 50 51
24 22 21 19 18 18 18 17 18 17 20 20 21 22 32 34 36 45 56 56 57 59 60 60 61 61 60 60 60 61 62 62 63 64 63 63 62 62 61 62 61 58 55 54 52 52 49 50 49
26 23 21 20 19 19 19 18 18 21 22 19 19 25 32 37 38 43 51 56 56 60 61 61 61 61 60 61 61 61 60 61 62 63 63 63 62 62 61 62 60 55 53 51 51 52 52 50 51
26 24 19 23 21 20 19 16 21 21 19 19 18 25 36 38 40 43 51 53 54 60 61 61 62 60 61 60 59 58 58 58 61 62 64 63 62 61 62 61 59 55 53 49 52 52 51 51 51
28 23 21 20 20 19 18 16 18 20 19 19 18 26 34 39 40 45 51 53 53 59 61 60 59 59 59 60 59 58 58 58 59 59 63 62 62 61 61 61 59 57 55 53 53 52 51 50 51
25 24 21 20 21 20 18 17 18 19 20 23 28 28 31 37 40 46 50 53 53 59 60 60 59 59 60 59 58 58 57 57 57 57 60 61 61 61 61 59 59 59 57 54 52 51 51 51 50
27 27 24 22 22 21 20 21 18 17 21 25 27 29 29 36 40 46 50 52 53 56 59 59 58 58 59 58 56 56 55 55 55 56 57 59 59 59 58 58 57 57 55 53 51 50 49 49 49
26 29 30 26 25 24 22 23 19 18 20 23 26 27 27 31 41 48 51 52 53 57 58 58 58 58 58 57 56 56 55 55 55 55 56 57 58 58 58 57 57 56 54 52 50 49 50 48 50
27 23 24 24 24 25 26 21 24 21 22 22 22 23 26 26 40 49 51 52 53 55 57 57 57 57 57 58 56 56 55 54 53 53 53 55 57 58 57 57 57 55 54 52 50 49 48 46 50
25 27 25 30 33 31 29 23 23 22 21 21 21 22 20 23 43 50 51 52 53 54 57 57 57 57 57 58 56 54 52 52 52 52 52 52 54 55 55 54 54 53 53 51 51 51 50 51 47
28 32 33 36 34 32 29 26 24 23 22 22 22 22 23 25 48 50 52 53 53 54 55 56 57 57 57 57 56 54 52 52 51 51 51 52 52 51 51 52 51 51 52 53 51 53 53 53 52
36 39 38 35 35 32 32 28 24 21 21 23 24 23 23 28 47 51 52 54 53 54 54 55 56 56 57 57 55 54 52 51 50 49 50 50 51 52 51 50 49 53 53 54 53 53 53 55 55
40 37 33 31 31 27 28 27 26 25 24 24 25 23 24 28 42 50 52 53 53 53 54 54 55 56 57 57 55 54 52 50 50 47 48 49 50 50 51 52 50 53 54 56 55 55 55 55 56
34 37 32 25 27 29 26 23 21 24 24 25 24 25 28 32 46 51 51 52 53 53 53 54 54 54 56 57 55 55 53 51 50 48 47 48 50 49 52 54 55 54 55 56 56 56 56 56 56
35 34 33 33 32 33 32 32 25 24 23 24 23 24 26 35 46 50 51 52 53 53 53 53 54 54 55 57 56 55 54 52 51 50 48 48 49 50 51 53 55 55 55 55 56 55 55 55 55
35 39 32 35 26 27 29 29 27 27 25 26 28 30 32 32 36 48 50 51 52 53 54 54 54 54 55 55 57 56 54 53 52 51 50 49 48 50 50 52 53 53 54 54 54 55 55 54 54
32 36 37 35 33 32 30 34 40 36 31 33 31 31 33 35 37 39 50 50 52 53 53 53 54 54 54 54 56 56 56 54 53 52 51 51 50 50 49 50 52 52 52 53 53 52 53 54 53
36 35 37 34 30 34 35 34 42 42 37 31 29 28 32 31 37 40 49 50 51 53 53 52 53 53 55 54 54 55 55 56 55 54 53 52 51 50 49 50 51 52 52 52 52 52 51 52 53

GFSSGP_sfc_dewp_090.txt.gz
Dewpoint
56 49 40 32 23 23 21 18 18 14 21 23 26 23 28 38 33 38 61 67 68 69 70 71 71 72 72 72 72 72 72 71 72 72 71 71 71 71 71 71 70 70 71 69 69 69 69 69 70
46 41 31 27 22 21 20 22 19 18 22 24 25 26 44 51 58 61 63 67 67 68 69 70 71 71 72 72 72 72 72 71 72 72 71 71 71 71 71 70 70 70 70 69 67 69 69 69 69
41 40 31 23 23 21 21 18 18 20 21 19 21 24 41 49 60 61 63 67 67 67 68 69 70 71 71 71 71 72 72 71 71 71 71 71 71 71 70 70 70 70 70 69 68 68 69 68 68
37 36 32 25 25 26 22 23 21 20 21 19 19 37 46 53 60 61 65 67 67 67 68 68 69 71 71 71 71 71 71 71 71 71 71 71 71 70 70 70 69 70 69 69 69 69 68 67 67
31 30 26 25 23 23 22 20 19 19 20 19 24 30 50 58 60 62 65 65 67 67 68 68 68 70 71 72 71 71 71 69 68 67 67 66 66 68 69 69 69 69 69 69 68 68 67 67 66
26 29 24 23 23 23 21 21 21 23 23 25 25 42 50 59 60 61 64 66 68 67 67 67 68 69 70 71 71 70 68 66 66 64 64 64 65 67 67 68 68 68 68 68 67 67 67 66 64
28 26 23 22 22 23 23 22 20 22 22 25 28 40 53 56 61 62 62 63 65 67 67 68 68 68 68 68 68 67 67 65 65 65 64 64 64 63 66 67 67 67 67 67 67 66 66 64 63
27 26 29 23 22 21 21 22 24 22 25 35 27 45 50 55 61 61 62 62 62 63 64 65 66 66 64 64 66 66 66 65 65 65 64 63 63 62 61 66 67 67 67 66 66 65 64 63 62
28 24 22 22 21 21 21 19 20 23 22 26 28 38 46 60 60 60 60 58 59 60 62 65 64 64 63 63 64 65 65 65 64 64 63 63 62 62 62 65 66 66 66 65 65 64 62 61 61
26 23 24 23 21 20 21 21 21 20 22 24 28 55 59 59 59 59 59 58 57 58 59 63 64 64 62 63 62 63 64 63 63 63 63 62 62 62 64 64 65 66 65 65 64 62 61 58 56
24 24 24 22 22 21 21 22 18 16 17 19 23 53 57 58 58 57 58 59 58 59 60 62 63 64 64 63 62 61 62 64 62 63 63 64 63 65 65 64 64 64 63 61 60 59 55 52 53
25 24 22 22 22 21 19 20 17 16 19 24 21 53 56 55 57 57 58 58 58 58 59 60 63 64 64 64 62 61 62 64 62 63 63 64 64 64 64 64 63 62 60 59 57 55 53 51 53
26 26 25 24 22 21 20 20 20 18 24 23 22 48 53 53 54 55 57 58 59 59 59 60 61 62 62 63 63 62 61 63 62 63 63 64 64 62 63 63 62 61 60 57 55 53 51 50 52
27 26 25 23 22 21 19 18 19 18 19 21 22 23 46 48 49 50 57 58 59 59 60 60 60 60 61 60 60 60 61 62 63 63 63 64 63 62 62 62 61 60 58 56 54 52 50 50 51
28 26 26 26 23 21 20 18 18 21 24 19 19 19 28 34 42 51 56 58 58 59 60 60 60 60 60 60 59 59 59 62 63 63 64 63 63 62 62 61 60 58 56 54 52 52 50 49 51
28 27 24 26 23 22 19 18 21 21 21 21 19 19 26 33 38 53 56 57 59 59 59 60 60 59 58 59 60 60 58 59 62 63 63 63 62 61 62 61 58 56 54 52 51 51 49 49 51
28 24 24 25 23 22 19 18 19 21 20 21 20 19 25 34 38 48 56 56 58 60 60 60 60 59 58 59 59 58 58 57 59 62 63 62 62 61 62 61 58 56 53 50 52 51 49 49 51
25 25 25 23 22 23 21 20 20 20 21 20 19 19 22 34 37 46 54 55 59 60 60 60 59 58 59 58 58 58 57 57 57 57 61 63 62 62 61 61 58 55 52 50 53 51 51 51 51
27 26 26 28 30 31 27 24 24 24 24 22 20 22 22 32 37 48 53 53 60 60 60 59 58 58 58 57 56 56 55 55 56 56 58 61 62 61 61 60 58 56 49 51 52 51 50 51 51
24 25 27 29 29 29 29 28 30 30 28 21 22 28 27 30 40 49 53 54 58 59 59 58 58 58 57 56 57 56 55 55 55 56 57 60 60 61 61 59 58 58 51 53 51 50 50 50 50
24 24 25 25 29 30 33 30 29 30 28 23 24 26 28 30 40 49 52 53 57 58 58 57 57 57 57 57 56 56 55 54 54 54 55 58 59 59 59 58 58 57 54 52 50 49 49 48 49
24 27 26 25 35 30 33 28 31 31 30 29 23 23 26 28 38 49 51 52 56 57 57 57 57 57 57 57 55 54 53 52 53 53 54 57 58 58 58 58 57 56 55 52 49 49 49 50 48
30 28 28 31 35 34 33 33 31 31 28 27 27 25 24 23 39 48 50 52 55 57 57 57 57 56 57 56 55 54 53 53 53 52 52 53 56 57 58 57 57 56 56 53 51 50 51 51 51
35 32 35 34 36 30 29 31 30 29 28 28 26 25 26 25 39 49 50 52 54 56 56 56 56 55 57 56 55 53 53 51 51 51 52 52 52 53 55 55 55 56 55 54 54 52 52 53 52
37 37 31 29 30 24 28 30 30 30 29 27 26 25 26 34 45 49 51 52 54 55 55 56 55 55 56 56 55 54 53 51 51 50 51 51 51 51 52 52 52 54 54 55 53 54 53 54 53
33 37 33 23 26 26 28 25 26 31 31 30 27 26 26 32 47 50 52 52 53 54 55 55 55 55 56 56 55 54 53 51 50 50 51 51 51 51 51 51 50 51 53 53 53 53 54 53 55
34 34 37 34 35 30 29 31 31 31 31 31 25 25 29 37 49 51 52 53 53 53 54 54 54 55 56 55 55 54 53 51 51 50 50 51 51 51 52 53 51 52 53 55 55 54 53 53 54
34 40 34 35 26 26 28 29 34 37 37 29 29 32 33 46 49 51 53 53 53 53 54 54 54 54 56 55 55 55 54 52 51 51 48 49 50 51 51 53 53 53 53 54 55 54 54 54 54
36 36 36 36 34 29 28 35 42 41 41 39 37 31 35 39 49 51 52 53 53 53 53 54 53 53 54 56 56 55 55 53 52 51 49 48 49 50 50 51 53 54 54 54 54 54 54 54 53
35 37 37 34 30 34 35 32 46 44 42 40 39 35 32 32 37 46 51 52 53 53 53 53 53 53 54 55 56 56 55 54 53 51 51 50 48 49 49 50 51 52 53 53 53 52 52 53 53

GFSSGP_sfc_dewp_093.txt.gz
Dewpoint
56 46 37 31 24 24 22 19 18 17 18 22 25 24 26 38 29 30 60 65 68 69 71 71 71 72 72 71 71 71 72 72 72 71 72 72 72 72 71 71 71 71 69 69 70 71 70 70 70
45 39 30 26 21 19 17 22 20 19 20 26 28 41 45 48 58 60 63 67 67 69 71 70 71 71 72 71 72 72 71 71 72 71 71 71 71 71 71 71 71 70 70 70 69 69 69 69 69
41 38 30 23 22 19 18 20 19 20 22 22 20 31 47 49 59 62 63 67 67 68 70 71 70 71 71 71 71 71 71 71 71 71 71 71 71 71 71 70 70 70 70 70 69 69 69 69 68
35 35 31 25 23 24 22 21 25 21 20 19 26 39 48 56 61 62 66 67 67 67 68 69 70 70 71 71 71 71 71 71 71 71 71 71 71 71 70 70 70 70 69 69 70 69 68 67 67
31 31 26 24 24 25 26 24 24 22 21 20 26 37 49 57 61 65 67 67 66 66 67 68 69 70 71 71 71 71 71 71 71 71 70 70 70 70 70 69 69 69 69 69 69 68 68 67 66
25 29 25 23 21 24 24 24 23 25 23 23 28 48 52 59 62 64 66 67 67 66 66 67 69 70 71 71 71 70 70 69 69 68 67 67 67 67 66 67 68 68 68 67 67 67 67 66 66
26 26 25 23 22 23 23 25 21 22 21 24 32 46 53 58 61 64 64 66 66 66 66 66 67 68 69 69 69 69 68 67 66 66 66 67 66 66 66 66 67 67 67 67 67 66 66 65 64
27 27 27 24 22 22 23 22 22 22 21 33 46 47 51 57 62 62 63 63 64 65 65 65 66 66 66 66 68 67 66 65 65 65 65 66 66 66 67 66 66 66 66 67 66 66 64 63 64
27 24 23 23 22 22 22 20 21 21 23 28 30 50 49 60 61 60 59 59 59 61 63 63 63 63 63 65 67 66 66 66 66 66 65 64 63 62 64 65 66 66 66 66 66 65 62 62 62
29 25 23 24 23 22 23 22 24 19 20 23 29 55 59 60 60 60 59 58 58 59 60 64 62 61 62 64 64 63 64 64 63 63 63 62 62 62 62 63 64 66 66 65 64 63 62 61 59
28 24 25 24 24 23 22 22 23 19 17 20 23 49 58 59 58 58 58 57 57 58 59 62 62 61 61 61 62 63 62 61 61 62 62 62 62 62 62 63 64 65 65 63 62 58 57 57 57
26 25 26 25 25 24 21 22 20 18 20 23 21 49 58 58 57 57 57 58 57 57 58 60 62 62 62 63 60 60 61 62 61 62 62 63 61 62 63 63 64 63 62 61 59 55 54 53 54
28 28 27 26 25 23 22 21 21 21 27 23 25 54 56 57 57 57 57 58 58 57 58 60 61 61 62 63 61 60 60 62 62 62 62 64 63 61 63 63 63 62 60 58 57 53 52 53 53
28 28 28 28 26 24 22 21 21 21 22 22 26 50 54 55 56 55 57 57 58 58 58 59 60 60 60 60 62 62 62 63 62 62 63 63 63 62 62 63 62 61 59 57 55 52 51 52 53
28 25 26 26 25 24 22 21 19 22 23 21 20 28 50 53 54 53 55 58 58 58 59 59 60 60 60 59 59 61 61 63 62 61 62 63 63 62 62 62 62 60 58 56 54 51 50 52 53
28 28 25 27 26 25 22 21 23 22 21 22 21 21 28 43 49 51 52 57 59 59 59 59 61 59 59 59 58 59 60 62 63 62 63 63 63 62 62 61 60 58 57 55 53 51 49 51 53
28 25 24 25 25 23 20 20 21 21 20 21 21 21 21 23 36 46 51 56 58 59 59 59 59 59 58 58 58 58 59 60 61 63 63 63 62 62 62 61 59 57 56 54 52 50 49 51 52
25 25 25 24 24 28 27 26 26 26 24 25 23 21 20 21 34 42 53 56 58 58 59 59 59 58 58 58 57 56 56 58 58 59 62 62 62 62 62 61 58 56 54 51 51 49 50 51 52
27 26 26 27 28 31 29 28 30 30 32 31 31 28 24 21 25 41 54 56 58 59 59 59 58 59 59 57 56 56 56 56 56 55 56 60 62 61 62 60 58 56 51 51 52 49 50 51 52
23 23 22 27 30 28 30 30 30 30 32 31 31 28 26 24 40 46 54 56 58 59 59 59 58 58 57 57 55 55 55 55 55 56 56 57 61 62 61 61 58 56 50 51 52 49 50 50 53
16 18 22 24 28 30 31 26 26 26 29 31 31 31 28 24 39 49 53 56 58 58 58 58 58 57 57 56 55 54 54 54 54 54 56 57 60 61 61 60 58 57 52 53 52 49 48 49 49
28 26 26 26 30 24 33 22 23 27 31 32 32 31 29 28 40 49 52 55 57 58 58 58 58 57 56 55 54 54 53 51 53 53 54 57 59 60 60 60 58 57 53 53 53 51 49 51 49
31 32 30 27 33 33 32 30 24 30 30 30 31 31 29 26 37 48 51 53 57 58 58 57 57 56 55 55 54 53 53 52 53 53 54 56 57 58 59 59 58 57 53 55 54 52 52 52 51
37 33 33 35 34 27 27 30 26 26 29 30 31 31 31 26 28 46 50 53 56 57 57 57 55 55 55 55 54 53 53 52 52 52 53 53 55 56 57 58 57 56 54 55 54 52 53 53 52
37 33 24 27 27 24 28 29 28 30 29 31 31 30 29 28 28 44 50 52 55 56 56 56 55 55 55 55 54 53 53 52 51 52 53 52 53 54 55 57 55 55 53 55 55 54 53 52 52
35 33 28 21 24 26 26 24 27 32 32 33 32 31 30 29 33 46 50 52 55 55 55 55 55 54 55 55 54 54 53 52 52 52 53 53 53 53 54 54 55 55 55 55 54 54 53 54 53
33 32 37 33 34 30 29 30 32 40 40 40 38 36 31 28 30 46 50 52 54 55 55 55 55 55 54 53 54 54 53 52 51 51 52 53 53 52 52 52 52 54 54 55 55 54 53 53 53
35 39 33 34 26 26 27 28 33 40 42 41 40 33 33 40 45 47 51 52 53 54 55 55 55 55 54 53 54 54 53 52 51 50 51 51 51 51 51 51 51 51 53 54 55 54 53 53 53
34 34 35 36 34 29 27 31 43 43 43 43 43 41 37 37 49 51 51 52 53 54 54 54 54 55 55 54 53 54 53 52 51 51 50 50 51 51 51 51 51 51 51 53 53 52 53 52 51
36 34 36 31 31 33 33 30 46 45 44 42 43 43 40 41 46 52 52 53 53 53 53 54 54 54 55 55 54 54 54 53 52 51 50 49 50 50 50 51 51 51 52 52 52 52 53 52 51

GFSSGP_sfc_dewp_096.txt.gz
Dewpoint
57 42 35 30 22 24 23 19 19 17 17 21 25 27 26 34 39 28 57 65 67 68 69 71 71 72 71 71 71 71 72 73 73 73 72 72 72 72 72 72 71 71 71 71 71 71 70 70 70
49 35 29 26 20 16 14 22 21 20 20 26 37 44 41 43 57 58 62 65 68 68 69 70 71 71 71 71 71 72 72 72 72 72 72 72 72 72 72 71 71 70 71 71 70 70 70 70 70
41 36 28 23 21 16 12 21 18 22 22 23 22 33 43 46 58 59 63 67 68 69 69 70 70 71 71 71 71 71 71 71 71 71 72 72 72 72 71 71 70 69 70 71 70 69 70 70 69
36 34 30 24 21 23 19 20 26 23 23 21 23 31 47 57 59 62 66 67 67 67 69 69 69 70 71 71 71 71 71 71 71 71 71 71 71 71 71 70 70 70 70 70 69 70 69 68 68
31 31 24 24 23 24 26 26 26 24 23 22 31 33 45 57 62 65 66 66 66 66 67 68 69 70 71 71 71 71 71 71 71 71 70 70 68 67 69 69 68 68 69 69 69 69 68 68 67
27 29 25 17 14 24 24 25 26 26 24 25 24 41 48 59 62 65 67 66 66 65 66 67 70 70 70 71 71 70 69 70 70 70 70 69 67 67 67 68 67 67 67 68 68 68 68 67 66
21 27 26 25 21 22 23 24 23 23 22 23 34 41 49 58 62 65 65 66 65 65 65 66 67 69 70 69 69 69 69 69 69 68 68 68 67 66 66 66 66 66 67 67 68 67 67 66 65
28 27 26 24 18 20 23 23 23 22 22 35 45 39 43 57 62 63 64 64 64 64 64 65 65 66 67 67 68 68 68 67 67 67 67 65 64 65 64 64 65 66 67 67 67 67 66 65 64
28 23 22 23 22 21 23 21 22 23 21 22 33 45 49 61 62 61 61 63 64 63 63 63 64 64 64 65 67 67 67 66 66 66 66 64 64 64 64 64 64 66 65 65 67 66 64 64 63
26 24 19 23 22 22 23 24 25 21 21 23 26 54 59 61 61 61 60 61 62 62 62 64 62 62 62 64 66 66 65 65 65 64 64 64 63 62 64 64 65 64 65 65 65 64 63 62 60
30 24 24 25 25 24 23 23 23 22 20 20 21 29 57 59 60 60 60 61 61 61 60 64 62 61 61 62 64 64 65 64 64 63 63 63 62 62 62 62 64 64 64 64 64 61 60 59 58
28 27 26 25 25 26 24 24 21 21 22 25 22 30 57 57 59 59 59 59 57 57 59 62 62 60 60 60 61 63 63 62 62 61 62 62 62 62 61 62 62 63 64 64 60 59 58 57 56
29 29 27 27 26 24 24 23 23 22 26 25 25 42 55 57 58 59 59 58 57 56 58 60 62 62 61 60 60 61 62 62 61 61 61 62 61 61 61 62 63 62 64 63 58 56 56 55 54
25 28 28 28 28 28 25 25 24 24 23 24 25 33 50 56 57 57 56 57 57 57 57 59 62 62 62 61 60 60 60 62 62 62 62 62 62 62 62 62 62 61 62 61 57 55 54 54 54
26 23 23 26 26 25 24 23 22 25 26 24 23 24 40 54 55 57 57 56 57 57 58 58 60 60 61 59 60 61 61 62 62 62 62 63 63 62 62 61 61 61 61 60 56 54 53 53 53
29 28 25 27 26 26 24 21 25 24 23 22 22 22 27 47 53 55 56 57 57 58 58 59 61 60 59 59 58 59 62 63 62 62 62 63 62 62 62 62 61 61 59 57 54 52 53 53 53
27 24 25 25 26 24 23 22 21 24 25 24 22 23 22 24 42 51 53 54 58 58 58 58 60 60 59 58 57 57 58 62 63 62 62 62 63 61 61 62 61 59 58 56 54 51 52 53 53
23 25 25 24 24 26 23 22 27 28 28 26 31 31 29 24 22 30 46 52 57 59 59 58 60 59 57 58 57 57 57 57 59 62 62 62 63 62 62 61 59 59 56 54 53 50 52 53 53
25 26 25 26 28 30 29 29 29 32 31 32 32 32 31 30 28 26 34 50 57 58 58 58 59 59 59 58 57 57 57 57 55 56 59 62 62 62 62 61 58 58 56 54 52 50 51 53 53
19 20 21 24 27 28 27 27 28 29 29 29 31 30 31 29 29 29 41 55 57 57 58 58 58 59 59 59 57 56 56 56 54 54 56 57 60 62 62 60 58 57 55 54 51 50 51 52 53
15 15 17 19 24 27 28 20 18 24 26 29 32 32 32 32 30 35 50 55 57 57 58 58 58 58 58 57 56 55 55 54 53 54 53 54 57 60 62 60 58 57 55 54 52 50 50 51 53
24 25 24 25 25 23 32 20 20 21 22 24 26 32 33 32 30 34 48 54 57 57 58 58 58 58 57 56 55 53 53 52 52 52 53 56 56 59 60 60 58 57 56 55 53 50 50 51 51
30 34 32 31 26 32 31 26 22 25 26 28 28 31 32 32 30 42 48 53 56 58 58 58 57 57 57 55 55 53 51 53 53 52 54 56 57 58 61 60 58 57 54 55 54 51 50 52 52
37 33 33 34 32 25 26 26 21 21 23 27 29 31 33 32 29 41 49 52 56 58 57 57 57 57 56 55 53 52 51 52 52 53 53 55 57 58 59 59 59 57 55 54 54 53 51 53 52
35 30 21 23 25 20 26 26 25 27 28 31 33 31 32 32 29 35 49 52 56 57 56 56 56 56 56 55 53 52 52 52 52 52 53 53 54 55 57 58 58 57 55 55 54 54 54 54 53
34 30 24 21 23 26 29 25 28 37 42 43 43 38 34 33 30 30 46 51 55 56 56 56 55 55 55 55 53 53 52 52 52 52 53 54 54 55 57 57 56 55 55 55 55 53 54 54 54
33 31 34 32 28 28 28 28 30 42 42 42 42 43 43 42 37 33 43 50 54 55 55 55 55 55 55 54 54 53 52 52 52 51 52 54 54 54 54 55 54 53 53 55 54 54 53 54 54
34 37 32 33 25 22 26 27 30 40 42 42 40 41 43 43 41 42 44 50 54 55 55 56 55 54 55 55 54 53 53 52 51 52 51 52 53 53 53 53 54 54 53 54 54 54 53 53 53
33 31 34 36 33 28 25 27 43 43 43 42 41 40 44 45 45 50 51 52 54 55 54 54 54 54 54 54 54 53 52 52 51 51 50 51 51 51 53 53 52 53 53 54 54 54 54 52 52
35 33 32 31 29 33 32 28 44 45 45 42 41 41 44 48 52 52 52 53 53 54 53 53 54 54 54 54 54 54 53 52 51 50 50 50 51 51 51 52 52 51 52 53 54 54 54 54 52

GFSSGP_sfc_dewp_099.txt.gz
Dewpoint
57 41 35 31 22 25 19 18 21 18 18 23 25 28 32 37 43 31 57 66 67 68 69 70 70 71 72 71 72 72 73 73 73 73 73 73 72 72 72 72 72 71 72 72 71 71 71 70 71
48 32 31 28 18 12 9 22 20 21 21 24 37 43 41 34 51 54 60 65 67 68 69 69 71 71 71 71 71 72 73 73 73 73 73 73 72 72 72 72 71 71 71 72 71 70 70 70 70
40 35 28 25 22 9 6 18 22 22 24 22 23 33 40 40 56 54 62 66 67 67 69 69 71 71 71 71 71 72 72 71 72 72 73 73 72 72 72 71 70 71 71 71 71 70 71 70 69
37 35 30 22 17 21 16 21 22 24 23 22 22 24 46 54 58 59 63 66 67 68 68 70 70 70 71 71 71 71 71 71 70 72 72 72 72 72 71 69 68 70 70 70 70 70 70 69 68
33 31 21 22 19 22 24 24 26 24 24 22 30 26 44 56 61 64 66 67 67 69 69 69 69 70 71 71 71 71 71 71 71 71 71 71 68 69 68 67 67 68 69 69 69 69 69 68 67
27 30 22 10 7 23 24 25 24 25 24 25 24 30 42 58 62 65 67 67 68 69 70 70 69 70 70 70 70 70 70 70 70 70 69 69 69 68 68 68 68 68 67 68 68 68 68 67 67
25 28 20 20 16 19 21 24 21 23 23 23 28 28 44 56 62 66 66 67 68 69 69 70 71 70 69 69 69 69 69 69 69 69 68 68 68 67 67 67 67 67 67 67 67 68 67 67 66
24 28 24 24 13 13 22 24 24 22 21 31 43 31 34 54 64 66 67 67 67 68 68 68 71 71 71 71 68 68 68 68 68 68 67 67 66 67 67 67 67 66 67 67 67 67 66 66 65
29 20 18 17 18 15 23 21 22 23 21 22 28 40 53 61 64 65 65 65 66 67 68 68 69 69 71 71 70 69 68 68 67 67 67 66 66 65 66 65 66 66 66 66 67 66 65 64 64
26 22 19 23 20 19 22 23 22 21 21 22 24 51 59 61 63 63 63 64 64 66 66 67 68 68 68 68 68 69 68 67 66 67 67 68 66 66 64 64 64 65 65 66 66 65 64 63 62
28 22 23 22 21 23 21 21 24 21 19 21 23 25 54 60 62 62 62 63 64 64 65 66 66 67 67 66 66 67 67 66 66 66 66 65 64 65 65 66 65 66 65 65 65 64 64 63 62
27 29 25 23 24 25 24 24 23 23 24 27 25 25 42 54 59 61 61 62 63 63 64 64 65 66 66 66 64 65 66 66 65 65 64 64 64 64 64 65 65 66 66 64 63 64 64 62 61
30 28 28 27 26 26 26 25 24 25 28 26 26 27 32 42 53 58 60 61 61 62 63 64 64 65 65 65 65 65 65 65 64 64 64 64 64 64 64 64 64 64 65 63 61 61 61 60 59
24 26 25 28 28 28 26 25 26 25 27 27 28 26 29 40 48 54 59 59 60 60 62 64 63 64 64 64 64 64 65 64 63 63 63 64 63 63 62 63 62 63 64 62 60 60 60 58 58
23 21 21 21 23 23 27 23 25 28 29 27 27 28 28 32 44 53 55 58 59 59 60 62 63 63 63 63 64 63 63 64 62 62 63 63 63 63 62 62 61 62 63 60 59 59 59 57 57
27 29 25 28 25 24 22 18 24 25 26 26 26 26 27 27 40 48 54 56 58 58 58 60 62 62 62 62 63 63 63 63 63 63 64 63 64 63 63 62 62 62 60 58 58 57 57 57 56
26 22 25 25 27 25 24 19 22 26 25 26 28 27 28 30 30 35 51 56 57 58 58 59 62 62 62 64 64 64 62 62 62 64 63 63 63 64 63 62 61 61 58 57 57 57 57 55 55
16 23 25 24 24 26 24 24 25 26 30 31 31 32 33 34 33 34 34 48 55 58 59 59 61 61 61 63 63 63 62 62 63 63 63 63 63 63 63 62 61 60 58 56 56 56 57 56 55
22 24 24 26 27 27 27 27 27 30 30 31 31 32 32 33 34 35 37 38 52 58 59 59 60 60 60 61 60 60 60 61 61 61 62 63 63 62 62 61 60 60 58 57 56 56 55 56 56
20 19 19 22 24 25 24 24 25 28 29 29 29 29 31 33 33 34 34 38 50 56 58 59 60 59 60 60 60 59 59 59 59 60 59 62 63 63 62 60 59 59 58 56 55 55 54 55 55
17 17 18 17 18 25 24 21 19 20 21 24 26 30 30 31 32 34 37 42 49 54 58 58 59 59 60 60 59 57 57 56 56 57 58 58 59 61 62 61 60 59 58 56 54 54 54 53 55
17 18 16 19 23 20 30 19 19 22 22 24 25 27 31 32 34 34 36 41 51 55 58 58 59 59 60 59 57 57 55 55 55 56 57 57 58 60 61 61 60 58 58 56 55 53 54 54 53
24 31 26 28 28 29 27 24 18 20 17 25 30 33 35 32 33 34 36 39 48 55 58 59 59 58 59 58 58 56 55 55 56 56 56 57 58 58 59 60 59 58 57 57 55 54 54 54 54
36 32 32 33 31 24 25 22 19 23 25 33 38 43 41 36 36 36 37 42 51 57 58 59 59 58 58 57 57 56 55 55 54 54 54 55 56 57 58 60 60 58 58 57 56 55 53 53 54
33 28 24 23 25 18 24 25 24 28 35 41 41 42 44 45 44 40 36 47 54 57 58 58 58 57 57 57 56 56 56 55 54 54 54 54 56 57 58 60 59 58 58 57 56 55 54 55 55
31 28 22 14 21 24 29 24 25 41 43 42 41 42 43 46 47 45 40 49 54 57 58 57 57 57 56 56 55 56 56 55 54 54 53 55 55 55 58 59 59 58 57 57 56 55 55 54 55
33 29 33 29 28 26 23 27 30 41 42 42 41 42 44 47 49 49 46 44 54 56 57 57 57 56 56 55 55 56 55 55 54 55 55 55 56 56 58 57 57 57 56 56 55 54 53 54 55
33 36 30 31 23 21 24 26 27 37 40 42 40 41 45 48 51 49 48 44 53 56 57 57 56 55 55 55 55 56 55 55 55 55 55 55 55 56 56 56 55 55 55 55 55 54 53 53 54
33 32 33 31 31 26 24 27 40 40 42 43 41 42 46 47 51 52 52 53 54 55 56 56 55 55 55 55 55 56 55 55 55 55 55 55 55 55 55 55 55 54 54 55 55 53 53 52 51
33 31 31 28 29 30 31 24 43 42 42 44 42 45 46 46 49 53 53 54 54 54 55 54 55 54 55 55 56 56 55 54 54 54 54 55 55 54 55 55 54 54 54 55 55 54 53 52 51

GFSSGP_sfc_dewp_102.txt.gz
Dewpoint
53 44 32 29 17 14 8 4 15 16 18 21 22 28 28 30 30 26 53 62 66 66 67 68 69 72 72 72 72 73 73 73 73 73 73 73 73 73 72 72 72 72 72 71 71 71 71 71 71
41 33 27 25 10 5 3 8 16 16 21 25 25 29 28 25 39 44 56 62 64 64 67 68 69 71 71 72 73 73 73 73 73 73 73 73 73 72 72 72 72 72 72 72 71 71 71 71 71
39 29 20 14 10 3 1 6 12 21 22 22 26 32 29 29 43 45 54 62 64 64 65 68 70 71 71 71 72 73 73 73 73 73 73 73 73 72 72 71 71 71 71 71 70 70 70 71 70
31 24 21 12 6 10 10 12 19 22 22 22 21 22 37 46 45 48 57 62 63 64 65 70 70 71 71 71 71 72 72 71 72 72 73 73 72 71 70 69 69 68 69 70 70 70 71 69 69
30 22 12 11 6 6 16 18 24 23 21 21 21 21 33 48 54 55 59 63 63 66 67 70 69 70 71 71 71 71 71 71 71 72 72 72 71 70 68 68 68 68 68 69 69 69 69 69 68
21 21 10 3 4 9 15 14 22 22 18 19 21 22 28 50 56 57 61 63 66 69 69 70 70 70 70 71 71 70 70 70 70 71 71 69 69 69 68 68 68 67 67 68 68 67 68 68 67
23 16 7 3 3 5 11 15 16 14 14 19 22 23 29 46 55 61 62 65 68 70 71 71 71 70 69 69 69 69 70 70 70 70 69 68 68 68 68 68 68 66 67 67 69 68 68 67 66
22 16 11 6 8 7 12 16 16 14 17 28 28 24 29 48 59 62 63 65 68 70 70 70 70 70 71 71 68 68 69 69 69 69 68 67 67 68 68 67 67 68 67 66 67 67 67 67 65
26 18 12 9 11 8 17 18 20 21 21 22 25 29 44 53 60 62 62 62 65 67 68 70 69 69 69 69 69 69 69 68 68 68 67 66 67 67 66 65 67 67 67 67 67 67 65 65 64
25 21 16 14 14 13 14 16 18 19 17 21 23 41 46 51 57 59 60 59 62 66 67 67 68 68 69 67 70 70 70 70 69 68 68 66 66 65 62 64 66 66 66 66 64 64 65 65 64
25 20 21 19 19 17 15 14 16 16 12 18 19 23 24 37 46 53 57 56 59 62 65 66 68 68 68 66 68 69 70 70 70 68 69 69 68 66 64 64 63 64 65 66 64 64 65 64 66
25 22 22 20 20 18 18 17 16 17 19 17 18 21 23 24 34 45 50 56 58 61 64 66 67 68 68 65 67 67 68 68 68 68 68 68 67 66 66 65 63 65 64 65 64 64 64 64 64
27 25 23 23 22 20 19 19 18 19 21 21 21 22 25 23 27 35 43 50 56 60 63 66 67 67 66 66 65 66 66 67 66 67 66 67 65 65 64 64 65 64 67 65 64 64 63 64 63
26 26 24 23 23 23 21 22 22 23 25 24 25 25 23 23 26 31 39 47 54 58 61 65 66 67 66 65 65 64 65 66 66 66 66 66 65 65 65 65 64 66 66 66 64 63 63 64 63
23 21 21 21 23 23 24 22 23 25 26 25 24 25 24 23 24 30 37 44 51 55 59 64 66 66 66 65 65 63 61 65 65 65 65 65 65 65 64 64 64 65 66 62 62 62 62 62 61
21 23 23 24 24 22 21 20 22 23 24 26 26 26 27 26 24 28 36 42 46 51 57 62 64 65 65 65 64 62 61 63 64 64 64 65 65 64 64 64 64 64 64 62 61 60 60 61 61
25 22 25 24 26 24 23 21 21 23 23 23 24 26 26 27 28 30 33 40 46 50 55 60 64 64 64 64 64 63 64 63 64 63 64 64 64 63 63 63 63 63 60 61 60 59 59 60 60
20 20 22 23 24 25 24 23 23 24 25 26 27 29 29 30 30 31 33 35 40 50 56 59 61 64 64 64 64 62 63 63 63 63 63 64 63 63 63 63 61 60 58 58 59 58 59 59 58
18 16 17 19 23 26 24 23 24 25 27 29 28 29 29 29 30 31 34 38 39 47 55 58 61 63 62 63 62 62 62 62 63 63 63 63 64 63 63 62 61 59 58 57 57 57 57 58 59
17 16 17 17 19 21 20 19 20 22 23 25 27 28 29 30 30 32 33 36 41 44 53 57 58 61 62 62 61 61 61 61 61 62 63 63 64 64 63 62 61 60 58 57 57 57 56 57 58
17 16 17 17 17 17 19 17 17 18 21 22 23 25 26 27 29 31 33 35 39 44 51 55 57 60 61 61 60 60 61 61 61 61 61 62 63 63 62 62 61 59 59 57 58 58 58 56 57
15 18 19 17 16 14 25 9 16 17 19 21 24 27 28 28 30 30 31 34 37 43 49 53 56 59 61 61 60 60 57 57 58 59 59 60 62 62 62 62 61 60 59 57 58 58 57 56 54
18 22 19 19 20 23 21 21 16 17 16 27 36 39 41 42 41 38 35 34 35 39 49 54 56 57 60 61 60 59 58 57 57 58 58 59 59 61 61 61 61 61 59 58 57 58 58 57 55
30 29 29 29 26 23 20 19 14 20 26 32 39 40 42 43 44 44 41 38 37 38 48 56 56 57 59 60 60 60 59 58 56 57 57 57 57 57 58 60 61 60 60 59 57 56 57 57 57
30 28 27 27 26 19 21 20 19 29 38 39 39 40 43 45 46 46 44 40 38 41 53 56 56 57 59 59 59 60 59 59 57 56 55 55 55 56 57 59 61 59 59 59 57 56 56 57 56
29 26 22 12 16 17 26 21 24 38 40 39 39 41 43 45 49 50 48 45 40 48 54 56 56 56 58 58 59 59 59 58 57 56 54 55 55 56 57 59 60 60 59 58 57 56 56 56 56
29 29 30 28 28 26 17 22 29 35 37 38 38 41 44 46 48 51 51 48 43 50 55 57 56 56 57 57 57 58 59 58 56 56 57 56 56 55 57 59 59 59 59 59 59 58 56 56 56
30 32 29 30 23 20 18 21 24 34 36 38 39 40 44 46 47 49 53 50 44 52 56 58 57 57 57 57 57 58 58 58 57 57 56 57 57 57 58 58 58 58 57 57 57 56 55 55 55
32 30 31 30 31 25 22 27 37 34 34 37 38 40 44 46 45 46 51 53 50 52 56 57 57 56 56 56 57 58 58 58 57 56 57 56 57 57 57 57 57 56 56 56 55 55 54 54 54
30 28 29 29 27 28 30 23 37 32 32 37 39 43 44 44 42 43 46 52 53 53 55 56 56 56 56 57 57 57 58 57 56 56 57 56 55 56 56 56 56 55 56 56 56 55 54 53 53

GFSSGP_sfc_dewp_105.txt.gz
Dewpoint
54 46 35 23 17 13 4 4 2 12 15 17 19 22 23 25 27 32 48 60 62 62 66 68 71 72 72 72 73 73 73 73 73 73 73 73 73 73 73 73 73 72 73 72 71 71 71 71 71
41 37 27 19 14 3 3 3 6 10 19 22 22 26 24 25 31 43 50 58 57 58 66 67 71 72 72 72 73 73 73 73 73 73 73 72 73 73 73 72 72 71 71 71 71 71 71 71 71
47 31 20 13 11 2 -0 3 5 10 19 21 23 24 24 25 34 38 50 54 54 56 62 67 70 71 72 72 73 73 73 73 73 73 73 73 73 72 71 72 71 70 71 70 70 70 71 71 70
36 27 21 15 9 7 4 5 6 14 20 20 21 22 28 37 39 42 50 53 54 56 59 69 69 71 71 72 72 73 73 72 72 72 72 73 72 71 71 70 71 71 70 71 71 70 70 70 69
31 21 13 7 6 4 5 8 17 16 17 18 19 21 27 39 42 46 52 54 56 59 62 70 69 70 71 71 72 72 72 72 72 72 72 72 71 71 70 70 69 70 70 70 70 70 70 69 69
26 20 12 6 5 4 2 10 13 21 18 18 20 20 25 37 47 50 55 57 60 63 66 70 70 70 71 71 71 71 71 70 71 72 71 71 70 70 69 69 69 69 69 69 69 69 69 69 67
24 16 10 8 4 3 4 13 10 16 17 16 18 21 26 36 45 51 55 60 64 67 69 71 70 70 70 70 69 69 70 70 70 71 70 69 69 68 69 68 68 68 68 69 69 68 68 68 67
24 19 15 11 6 3 3 9 13 9 11 23 22 20 25 46 50 57 56 60 65 68 70 70 70 70 70 70 69 69 69 69 69 69 69 68 68 68 68 67 67 67 67 68 68 67 67 66 66
26 20 15 12 10 8 7 10 13 12 8 18 24 25 40 42 48 57 57 59 63 66 68 69 68 68 69 69 69 69 69 69 69 69 67 67 68 68 67 65 66 67 67 67 67 66 66 65 65
26 23 20 16 14 11 12 14 13 15 15 17 23 29 36 41 47 54 55 57 59 63 65 66 67 67 67 67 69 69 68 68 68 67 68 68 66 67 65 65 67 67 67 66 66 65 65 65 65
26 25 24 22 19 17 14 12 13 13 14 13 18 21 31 31 38 47 51 54 55 58 61 63 66 67 67 67 67 67 68 69 69 69 69 69 67 69 66 68 63 64 66 64 63 63 64 63 63
24 25 25 24 22 20 18 17 14 13 17 17 13 18 21 24 27 35 44 50 52 55 59 62 64 67 68 63 66 67 67 68 67 68 69 69 69 69 68 66 65 65 66 64 66 65 64 63 63
24 24 25 24 23 22 21 19 19 19 21 19 19 18 18 20 24 26 34 43 47 52 57 62 63 66 66 67 65 65 65 67 67 67 67 68 67 67 67 66 65 64 66 65 65 65 63 63 62
27 25 26 25 24 24 23 22 21 21 23 23 22 20 18 18 23 23 29 36 42 49 55 62 64 66 66 65 66 65 65 65 67 66 66 67 67 67 65 65 64 64 67 67 66 65 63 63 62
27 25 25 24 26 24 24 22 22 24 25 24 24 25 24 22 20 23 28 33 38 42 50 62 66 66 66 65 65 64 63 63 66 66 66 66 66 66 65 65 64 65 67 66 66 65 63 63 64
22 25 22 24 22 22 23 21 22 23 23 24 25 26 26 25 22 21 26 29 33 38 47 58 63 66 66 65 64 63 61 62 64 65 66 66 66 65 66 65 65 65 66 65 64 63 61 62 62
24 20 21 20 21 22 22 21 21 22 22 23 25 26 26 26 26 24 24 27 31 35 44 54 63 65 66 65 64 64 63 61 60 63 63 65 65 65 65 64 64 65 64 63 62 62 61 61 61
22 20 20 20 22 23 24 24 23 23 24 24 24 24 25 26 26 27 25 26 31 36 45 52 60 65 66 64 64 62 62 63 62 62 62 63 64 65 64 64 63 64 63 62 61 60 61 61 61
23 21 20 20 21 23 25 24 23 23 23 25 26 26 27 29 29 30 32 31 32 38 46 52 59 64 64 63 62 61 62 62 63 63 63 63 62 63 64 64 62 61 60 60 60 60 59 60 60
22 21 19 17 16 22 22 21 20 19 20 23 24 27 28 29 29 29 31 34 38 40 44 52 55 60 63 63 61 60 62 62 62 63 62 62 61 63 63 63 61 60 58 58 58 58 58 58 60
21 20 18 12 14 16 18 16 14 15 17 18 20 23 24 26 27 29 31 35 37 39 44 46 53 57 62 62 61 61 62 61 60 61 61 62 62 63 63 63 61 60 59 57 58 58 58 57 58
18 21 15 12 15 13 13 8 13 15 16 17 19 21 26 27 27 28 29 32 36 42 45 44 51 54 59 62 60 61 58 59 60 60 60 61 62 62 63 63 61 60 59 58 58 58 58 58 56
17 15 13 16 17 15 10 12 13 14 13 22 30 38 39 40 41 41 40 38 33 38 44 49 48 52 57 61 61 61 59 59 59 59 60 60 61 61 62 62 62 60 60 59 59 59 60 59 57
17 18 19 18 17 17 16 13 11 14 20 25 35 37 39 41 43 44 44 43 39 38 42 48 49 51 56 60 62 62 60 58 57 58 58 59 60 60 60 62 62 61 60 59 59 59 59 58 58
19 22 24 24 22 18 13 13 13 26 33 35 36 36 40 42 45 47 48 47 43 41 42 47 49 50 55 60 61 61 60 59 59 58 57 56 58 58 60 61 62 61 60 60 59 58 58 58 57
24 24 19 15 16 13 19 14 15 29 36 36 36 38 40 42 45 47 51 52 48 45 42 43 45 51 53 59 60 61 60 59 58 58 55 55 56 57 58 59 61 61 60 59 58 58 58 58 58
29 25 24 28 27 24 21 20 31 33 35 37 37 37 40 42 45 47 49 51 54 48 43 47 51 52 53 59 60 61 61 59 58 58 57 56 57 56 58 58 58 60 60 59 58 57 56 57 57
29 27 26 28 19 15 7 13 32 34 31 33 34 37 42 42 44 45 46 48 51 50 47 54 55 53 58 59 59 60 59 60 58 58 57 57 57 56 57 58 58 60 60 59 58 57 56 57 57
29 29 31 29 29 25 17 28 34 30 29 32 35 43 43 43 43 42 42 44 48 52 52 55 56 56 58 58 58 59 60 59 58 57 57 57 58 56 56 57 58 58 58 58 58 58 57 56 56
24 25 27 26 25 26 28 27 32 29 28 32 41 43 42 41 41 40 39 39 43 47 56 56 57 58 58 57 58 58 60 59 58 56 57 57 57 56 56 57 57 57 57 57 56 55 55 55 54

GFSSGP_sfc_dewp_108.txt.gz
Dewpoint
54 48 42 33 18 17 10 7 5 2 8 15 18 16 20 25 34 37 56 60 66 65 68 69 71 72 73 73 73 73 73 73 73 73 73 73 73 73 74 73 73 73 72 72 71 71 71 71 72
42 38 36 24 15 9 7 6 -1 4 17 22 21 22 24 24 39 45 54 59 62 64 66 69 71 72 72 73 73 74 74 73 73 73 73 73 73 73 73 73 72 72 72 71 70 71 71 71 71
45 39 29 19 13 11 10 2 4 9 20 21 20 21 21 22 34 44 55 55 58 63 64 69 71 71 72 73 73 73 73 73 73 73 73 73 73 72 73 72 72 71 72 72 70 70 71 71 70
37 39 28 16 11 8 9 10 6 7 17 19 19 20 24 40 39 47 51 52 55 60 65 69 70 71 72 72 73 73 73 72 72 73 73 73 72 72 72 71 71 71 71 71 71 71 71 70 69
36 29 20 13 8 9 11 8 11 10 12 17 17 18 28 38 38 48 51 54 58 66 70 69 69 70 71 72 73 73 72 72 72 72 72 72 72 72 71 71 71 70 71 71 71 71 70 69 69
29 27 19 12 10 7 6 6 6 17 17 17 18 18 29 38 43 51 56 59 64 70 71 69 70 70 70 71 72 71 71 71 71 70 71 72 71 71 70 70 70 70 70 70 70 70 69 69 68
30 24 18 14 10 9 7 8 6 12 16 16 17 18 29 39 46 53 58 64 68 70 72 71 70 70 70 69 70 70 70 70 69 70 71 71 70 70 70 69 69 69 69 69 69 69 68 68 67
29 25 19 16 11 7 8 6 9 10 9 19 20 17 30 41 48 51 58 64 69 71 72 71 70 70 70 70 69 69 69 69 69 70 70 68 68 68 68 68 68 68 68 68 68 68 67 67 66
30 25 21 18 15 14 12 10 8 11 10 8 20 20 39 44 52 53 57 61 66 69 70 71 70 69 70 69 69 69 69 69 69 69 68 67 69 68 67 66 67 67 66 67 68 67 66 65 65
30 27 25 23 19 16 13 13 12 11 11 12 17 29 39 41 47 54 55 57 63 66 68 69 69 69 69 66 69 69 69 69 69 69 69 69 69 68 66 65 67 66 66 67 67 66 65 64 65
28 28 27 24 23 21 18 14 12 12 12 14 18 23 24 33 40 48 51 56 61 64 65 66 69 69 69 67 69 68 68 68 68 68 69 69 68 68 67 68 65 66 66 66 65 64 63 63 64
26 27 27 25 24 24 22 21 15 13 16 18 17 21 22 31 32 39 46 51 56 59 62 64 67 69 69 67 68 68 67 69 69 69 69 68 68 67 67 67 66 65 65 65 63 63 64 62 62
25 26 25 24 24 24 24 23 20 20 24 18 17 19 19 21 26 28 35 45 51 55 60 63 66 68 68 69 67 68 68 68 68 68 68 68 68 67 67 66 66 65 66 65 64 63 63 62 62
23 25 25 25 24 24 23 22 22 21 22 22 22 21 20 21 21 24 29 33 45 52 58 63 64 68 68 67 68 67 67 68 68 67 67 68 68 67 66 66 65 65 66 65 65 64 63 62 62
21 21 25 25 24 24 25 23 22 25 25 23 23 24 24 23 22 21 26 32 40 44 54 64 65 68 67 67 68 66 66 66 66 66 66 67 67 66 65 65 65 65 66 65 64 64 63 62 62
23 24 21 25 25 25 25 23 25 24 24 24 25 26 27 27 26 26 27 28 31 38 45 64 64 66 68 67 66 65 66 65 65 66 67 65 66 66 66 65 64 64 65 64 64 63 63 62 61
23 21 23 23 25 25 22 23 25 24 23 23 25 26 26 27 28 29 29 26 28 34 45 63 66 66 67 67 66 66 66 65 65 65 65 65 65 66 65 64 64 64 64 64 63 63 62 61 61
21 21 21 21 21 23 21 21 21 22 22 23 22 25 27 28 28 30 33 28 26 34 45 62 65 66 67 66 66 65 65 64 64 63 64 65 64 65 65 64 64 64 64 63 62 61 62 61 61
20 19 19 20 21 21 22 21 21 24 25 24 25 26 26 28 30 31 38 39 39 41 46 57 64 66 66 65 64 63 63 64 64 63 63 63 63 64 65 64 63 63 62 62 61 61 61 60 61
14 19 21 24 26 23 24 24 24 25 24 25 25 26 27 29 30 31 36 39 43 42 48 54 62 66 65 64 64 63 63 64 63 63 63 63 64 64 64 63 62 61 60 60 60 60 59 59 61
11 16 24 25 24 19 18 19 21 22 22 21 22 24 26 29 30 32 34 38 47 47 51 49 55 64 64 64 63 62 63 63 62 62 62 62 63 63 63 63 61 60 59 58 59 59 58 57 59
9 15 22 22 21 13 15 11 16 17 17 18 18 22 24 29 33 33 35 38 43 48 52 48 51 59 63 64 62 61 61 60 60 61 60 61 62 62 63 63 61 59 59 58 58 58 58 58 57
9 18 22 21 19 17 14 12 14 15 14 15 24 36 38 40 41 41 42 43 43 46 48 53 49 53 60 63 61 61 61 61 60 61 60 60 62 62 63 62 61 59 58 58 58 58 58 59 57
13 19 21 20 19 16 17 14 10 11 14 22 35 36 38 42 45 46 48 49 47 48 48 50 52 51 56 63 62 61 61 60 60 60 60 60 60 61 62 62 61 59 58 58 58 58 58 58 58
16 18 23 23 24 20 16 12 13 27 29 32 34 39 42 45 46 46 47 49 52 54 54 49 46 47 53 61 62 62 62 61 60 59 59 59 59 59 61 61 61 61 59 59 59 59 59 58 58
16 19 26 15 18 18 16 18 15 28 34 35 38 39 42 43 44 45 46 48 50 52 53 54 44 45 51 59 61 61 62 61 60 60 59 58 58 59 60 61 61 61 60 59 59 59 58 58 58
20 22 26 27 27 26 21 29 35 33 34 36 37 40 41 41 43 43 44 45 46 48 51 53 53 44 50 56 61 61 62 61 60 60 59 59 59 58 59 60 61 60 60 59 59 58 58 58 58
28 28 29 31 28 27 24 29 35 37 35 35 40 41 41 41 41 41 41 41 42 46 48 52 54 45 53 58 60 61 61 61 61 60 59 59 59 57 58 58 59 60 60 59 58 58 57 57 57
35 33 32 30 27 27 22 34 39 37 36 40 41 40 40 40 40 39 39 38 39 42 45 49 56 55 59 60 61 62 60 61 61 59 59 59 58 57 57 57 58 59 59 59 58 57 56 56 56
35 34 33 30 22 27 32 33 41 42 41 41 40 40 40 39 39 38 37 37 37 40 43 45 54 58 59 60 60 60 60 60 60 59 59 58 57 57 57 58 58 58 58 58 58 57 56 56 56

GFSSGP_sfc_dewp_111.txt.gz
Dewpoint
55 52 47 38 26 19 16 14 15 11 8 19 21 27 25 33 40 47 62 64 66 68 70 71 71 72 72 73 73 73 73 73 73 73 73 73 73 73 73 73 73 73 73 72 71 71 71 71 71
46 43 39 34 18 13 12 15 13 10 18 27 22 24 25 39 48 57 62 64 66 68 69 70 71 71 72 72 73 73 73 73 73 73 73 73 73 73 73 73 72 72 73 72 71 71 71 71 71
44 41 37 28 20 14 12 12 12 14 23 24 21 21 26 38 52 54 63 65 65 66 69 70 70 71 72 72 73 73 73 73 73 73 73 73 73 73 73 72 72 72 72 72 71 71 71 71 70
35 39 38 22 17 15 13 12 11 11 20 20 21 20 34 41 51 56 61 64 63 65 68 69 70 70 72 72 73 73 71 72 72 72 73 73 73 73 72 71 71 71 72 72 72 71 71 70 69
37 36 27 19 17 15 13 12 11 10 15 21 20 24 37 43 52 53 56 62 64 67 68 69 69 70 71 73 73 72 71 71 72 72 73 73 72 72 71 71 71 71 71 71 72 71 70 69 69
31 31 23 20 19 16 14 11 9 12 18 23 19 23 35 46 48 52 58 67 68 67 68 69 70 70 71 72 72 71 71 71 71 72 72 72 71 71 71 70 70 70 70 70 70 70 69 69 68
32 27 23 21 19 17 16 14 10 9 18 19 18 23 33 45 49 55 62 68 69 69 68 68 69 69 69 70 70 70 70 70 69 69 71 71 70 70 70 70 70 70 69 69 70 69 68 68 68
35 33 29 25 19 16 15 14 12 12 17 25 20 17 34 41 53 58 63 68 70 69 68 68 68 68 68 68 69 69 69 69 68 68 69 69 69 69 69 69 69 69 69 69 69 68 68 67 67
32 29 27 27 22 18 18 16 16 11 12 15 26 23 43 50 53 59 64 66 68 70 68 68 68 68 68 67 68 69 69 69 68 69 68 67 68 68 68 67 67 68 68 68 68 68 66 66 65
30 28 28 26 24 21 20 18 17 12 12 17 21 43 43 45 52 55 61 64 66 68 69 68 68 68 68 68 67 67 68 68 67 68 67 68 67 67 67 66 66 66 66 67 67 66 65 64 63
30 28 29 29 28 27 25 23 22 12 11 13 14 36 38 41 42 53 57 62 64 67 69 68 68 68 68 67 67 68 67 67 67 67 67 67 67 67 66 65 66 65 65 66 66 65 63 62 63
20 28 28 28 30 29 26 24 24 17 16 22 17 22 25 34 39 45 52 57 63 66 66 68 68 68 68 67 67 67 67 67 67 67 67 67 66 65 66 65 64 64 65 64 63 63 62 61 62
14 19 25 28 28 28 28 25 24 24 24 23 22 23 21 28 32 37 44 53 61 63 65 66 67 67 66 66 68 67 67 67 67 67 67 66 65 64 65 65 64 64 64 64 63 62 62 60 61
21 18 17 24 26 26 25 24 24 24 24 23 24 23 21 20 21 21 27 39 52 61 63 64 65 67 66 66 67 66 66 67 67 67 67 66 65 64 64 64 64 63 64 63 63 62 61 60 61
26 24 22 20 21 24 25 23 23 26 26 23 23 24 23 24 22 22 21 23 31 52 61 62 65 67 66 66 67 66 66 66 65 65 66 67 66 65 64 63 63 63 64 63 63 61 61 60 61
20 22 22 22 21 21 25 22 24 26 24 24 24 24 25 25 25 23 25 22 24 35 58 62 64 66 66 65 66 65 65 64 64 64 64 66 66 65 64 63 63 63 63 63 62 62 61 61 61
23 21 22 22 23 21 24 23 24 27 25 24 24 24 24 25 26 26 27 26 26 27 45 61 64 65 66 65 65 64 65 64 64 64 64 64 66 65 64 64 63 64 63 62 62 61 62 60 61
19 23 22 21 23 24 23 22 24 25 26 25 23 23 23 24 26 26 28 28 26 26 42 61 63 65 65 65 65 64 64 64 64 64 64 64 64 64 64 63 62 63 62 63 62 61 61 61 61
17 21 22 21 23 23 23 23 24 23 22 22 22 24 22 26 27 27 28 30 29 28 42 62 63 65 65 65 64 63 63 64 64 64 63 63 63 64 63 63 62 62 62 62 62 61 61 60 60
11 12 13 16 19 21 25 32 30 23 22 22 23 23 25 26 28 31 34 33 34 32 36 63 63 65 64 64 63 63 62 62 62 62 63 63 63 63 63 62 61 62 61 61 61 61 59 60 61
7 8 11 13 15 25 31 31 29 28 23 25 25 24 26 26 27 28 29 32 36 37 36 61 64 65 64 64 63 63 63 62 61 60 60 62 62 63 63 62 61 61 60 60 60 60 58 57 60
4 6 9 11 13 28 33 21 16 23 22 20 21 21 25 37 38 40 43 44 41 41 44 50 64 64 64 64 62 62 61 61 61 60 60 61 62 62 62 61 60 59 58 58 59 59 59 58 58
6 9 9 19 32 30 29 19 15 16 15 17 19 37 39 44 45 46 47 49 50 52 53 53 50 64 64 63 62 61 61 61 60 60 60 61 61 61 62 60 59 58 58 58 58 58 59 59 58
11 15 30 29 28 24 20 16 17 14 16 34 39 43 44 44 45 45 46 46 47 48 49 51 53 52 63 63 62 61 61 61 59 60 59 60 61 61 62 61 59 58 58 58 57 58 58 58 58
16 25 23 22 22 20 21 17 18 27 34 39 41 43 43 43 43 43 43 43 43 44 46 48 50 52 53 62 61 60 60 61 59 59 59 59 59 60 61 61 59 59 58 57 57 57 58 58 58
19 23 23 18 21 20 18 17 17 22 41 43 42 41 41 41 41 41 41 41 40 41 43 45 47 49 52 61 61 60 60 61 60 59 60 59 59 59 60 61 60 59 58 58 57 58 58 57 58
19 20 27 29 29 27 20 34 35 38 39 42 40 39 39 39 39 39 38 38 38 39 41 43 46 49 54 55 62 60 62 61 60 60 60 59 59 58 60 60 60 60 58 58 58 58 58 57 57
22 23 25 32 25 25 23 33 34 37 42 41 39 38 38 38 37 37 37 37 37 39 40 42 46 49 58 55 61 61 62 61 61 60 59 58 58 58 58 60 59 59 59 59 58 57 58 58 57
32 30 33 34 33 27 27 32 39 37 41 39 37 36 36 36 36 36 36 36 36 38 39 41 43 47 58 59 60 61 61 60 61 60 59 59 58 57 57 57 59 59 59 59 58 58 57 57 57
37 33 32 31 30 32 32 29 41 38 37 36 35 35 34 34 34 34 35 35 36 37 38 39 41 44 48 58 58 59 60 61 60 59 58 58 57 57 56 57 57 59 59 59 58 57 57 57 56

GFSSGP_sfc_dewp_114.txt.gz
Dewpoint
54 50 46 37 22 19 16 18 17 14 13 12 20 26 27 39 39 40 63 64 68 68 70 71 71 72 73 72 72 73 73 73 73 73 73 73 73 73 73 73 73 73 73 72 72 72 72 71 72
45 44 38 33 22 14 13 17 16 15 16 20 25 28 33 46 56 61 61 66 68 69 70 70 71 71 72 72 72 73 73 73 73 73 73 73 73 73 73 73 73 73 73 72 72 72 71 71 71
42 41 34 31 23 15 13 13 13 13 14 16 20 22 34 46 60 61 63 66 68 69 70 70 70 71 72 72 72 73 73 73 73 73 73 73 73 73 73 72 71 72 73 72 72 72 71 71 70
33 39 37 30 21 18 15 10 13 13 13 15 20 22 39 51 59 63 65 66 66 68 68 69 70 70 71 72 72 73 72 72 72 72 73 73 73 73 72 71 71 72 73 72 72 72 71 69 69
37 36 30 27 25 20 19 17 17 15 14 14 18 22 40 48 60 64 64 63 65 67 68 69 69 70 71 72 72 72 70 71 72 72 72 72 73 73 72 71 71 71 72 72 72 71 70 69 69
32 32 26 24 19 20 19 18 16 18 14 15 18 31 39 53 62 63 62 63 67 67 68 68 69 70 71 72 72 70 70 70 71 72 72 72 72 71 71 71 70 70 71 71 70 70 69 69 68
30 27 24 24 21 20 20 21 17 16 14 14 19 22 40 52 58 61 64 67 67 67 67 68 68 70 70 70 70 69 70 70 70 71 71 71 70 70 70 70 70 70 70 70 70 69 68 68 68
34 32 30 23 19 20 21 20 19 16 14 21 19 18 43 45 58 66 67 67 66 66 67 67 67 68 69 70 69 69 69 68 68 70 70 69 69 69 69 69 69 69 69 69 69 68 68 68 67
32 30 27 25 28 25 25 21 20 17 14 12 26 30 44 54 63 66 67 67 67 66 66 67 67 67 66 67 69 69 69 68 67 68 68 67 68 68 68 68 68 68 68 68 68 68 67 66 65
29 29 29 30 30 29 28 25 25 18 15 13 41 45 51 58 61 63 65 66 66 66 66 67 67 66 66 67 68 67 69 68 68 67 67 67 67 67 68 67 67 67 67 67 67 67 66 65 63
30 29 30 30 30 29 28 27 27 24 22 13 32 42 50 56 59 61 63 65 66 67 67 67 67 67 66 66 66 67 67 67 67 67 67 66 66 66 66 65 66 65 66 66 66 65 63 62 62
9 18 28 30 30 29 29 29 28 23 23 22 18 41 44 49 55 59 61 63 65 68 67 67 67 67 67 67 66 66 66 66 67 67 66 66 66 65 64 64 64 64 63 65 65 64 61 61 61
15 11 13 16 24 29 29 28 28 28 30 27 25 27 31 38 48 56 60 62 64 66 68 68 67 67 67 67 66 66 66 66 66 66 66 67 66 65 65 64 64 63 63 63 63 61 61 60 61
29 26 20 17 16 17 25 27 28 28 27 27 27 22 20 22 33 35 47 59 63 65 67 68 67 67 67 67 67 66 66 66 66 66 66 66 66 65 65 64 63 63 63 63 62 62 61 60 59
20 25 28 26 23 20 20 20 25 28 28 25 25 24 24 22 22 21 24 38 60 64 65 67 67 67 67 66 67 67 67 67 67 66 66 66 65 64 64 64 63 64 63 62 62 60 59 59 59
12 16 17 22 24 25 20 17 20 24 26 25 25 25 26 25 25 22 22 22 40 61 63 65 67 67 66 65 66 66 66 67 66 66 66 66 65 65 63 63 63 63 63 63 61 61 61 60 60
14 9 13 18 24 24 21 19 20 22 25 25 25 24 24 25 25 26 25 24 24 39 60 63 65 66 66 65 66 66 65 66 65 65 66 66 65 65 64 63 62 63 62 62 62 62 61 60 60
7 12 16 21 23 23 22 21 22 24 26 25 25 24 24 25 25 26 27 27 27 27 50 61 64 65 66 65 66 65 64 64 65 64 64 64 65 65 64 63 62 63 63 62 62 61 61 61 60
12 10 11 16 21 20 22 22 23 23 24 25 26 26 24 25 25 26 27 27 29 29 41 60 62 64 65 65 64 64 63 63 63 64 64 63 64 64 64 63 62 62 63 62 62 62 61 60 61
15 12 9 11 15 16 18 31 33 33 32 27 24 24 24 25 25 27 28 29 32 33 42 58 61 64 65 65 64 64 63 62 63 63 63 63 63 63 63 62 62 62 62 62 62 61 60 60 61
20 13 10 7 7 9 18 29 31 33 32 31 28 24 24 24 27 42 48 50 50 52 52 58 61 64 64 64 64 63 61 61 60 61 62 62 63 63 63 62 62 61 61 61 61 61 60 58 60
27 20 12 8 9 11 32 26 29 25 23 29 24 24 35 45 47 47 47 47 47 48 50 52 57 64 64 64 63 63 62 61 61 62 62 62 63 63 63 62 61 61 61 61 60 61 60 58 57
24 29 16 9 9 25 25 31 28 19 17 23 36 44 44 44 43 43 43 44 43 45 47 48 51 55 64 64 63 63 62 62 60 61 60 61 62 62 62 61 60 59 58 58 58 59 59 59 58
25 28 25 30 31 23 25 29 18 24 29 37 43 42 41 41 40 40 40 40 41 42 43 45 47 49 54 58 63 63 62 61 60 60 60 60 61 60 61 61 60 58 57 56 57 58 58 58 58
29 28 18 20 22 19 23 27 24 36 41 41 40 39 39 38 37 37 37 37 38 39 41 43 44 46 49 51 58 63 62 61 60 60 60 60 60 60 61 60 59 58 58 57 57 57 58 58 58
24 23 18 13 19 21 21 19 21 43 42 40 39 38 37 37 36 36 36 36 36 38 39 41 42 45 48 50 52 62 62 61 61 60 60 60 60 60 60 61 60 58 57 58 57 56 57 58 58
28 24 25 26 30 24 19 33 38 38 38 38 37 37 36 36 36 36 36 36 36 37 38 40 41 43 46 51 57 58 62 61 60 60 60 60 60 60 60 61 59 58 57 57 57 56 57 58 58
33 27 23 27 18 16 24 30 31 35 35 36 35 35 35 34 34 34 35 36 36 36 38 39 40 41 45 48 56 58 61 61 61 60 60 59 59 59 59 60 59 59 58 58 57 56 57 57 57
28 28 32 29 29 22 26 25 34 32 35 33 36 34 34 33 33 34 34 35 36 37 37 38 39 40 42 45 54 60 61 61 60 60 60 59 59 59 59 59 60 59 57 58 57 57 57 57 57
36 32 31 23 26 32 30 25 34 32 34 34 34 34 34 33 33 34 34 35 35 36 37 38 39 40 41 44 49 58 59 59 60 60 59 59 59 59 59 59 59 59 58 58 57 57 57 57 57

GFSSGP_sfc_dewp_117.txt.gz
Dewpoint
52 48 44 34 18 20 18 17 17 13 9 14 18 19 25 39 42 37 62 65 67 68 71 71 71 72 72 72 72 72 73 73 73 73 73 73 73 73 73 73 73 73 73 72 72 72 71 71 71
43 44 37 31 15 9 10 17 15 15 17 18 19 24 29 44 56 61 62 66 66 69 70 71 71 72 72 72 72 72 73 73 73 73 73 73 73 73 73 73 73 73 73 72 72 72 71 71 71
42 40 32 30 23 10 5 13 12 14 16 14 13 21 34 46 61 61 64 67 67 68 70 70 71 71 72 72 72 72 72 72 72 72 73 73 73 73 73 73 73 73 73 72 71 71 71 71 70
33 37 35 30 24 23 14 13 14 14 16 15 17 13 35 54 60 62 66 68 67 68 69 69 70 71 72 72 72 72 72 71 71 72 73 73 73 73 73 71 72 73 72 72 71 71 70 70 69
37 36 27 29 28 26 21 18 19 17 16 16 16 14 39 58 62 64 66 67 67 68 69 69 69 70 71 72 72 72 71 71 71 72 72 72 73 73 72 71 71 71 72 72 72 71 70 69 69
29 33 29 21 13 20 21 23 22 21 18 18 13 20 44 56 62 62 64 65 66 67 68 69 70 70 70 71 71 71 70 71 71 71 71 72 72 71 71 71 70 71 71 71 71 70 69 68 68
28 29 26 25 21 22 21 22 21 19 18 17 15 19 41 61 61 63 62 65 66 67 68 68 69 70 70 70 70 69 69 70 70 70 70 71 70 70 70 70 70 70 70 70 70 69 68 68 68
34 30 30 22 17 18 21 22 22 17 16 23 21 18 44 53 62 65 66 65 65 66 67 67 68 69 69 70 68 68 68 69 69 70 70 69 69 69 70 69 69 70 70 70 69 68 68 68 67
33 30 25 23 23 22 25 25 22 20 17 20 20 25 43 58 65 65 65 64 64 65 66 66 67 68 68 69 69 69 69 69 69 69 69 68 68 68 69 68 68 69 69 69 69 68 67 66 65
28 28 27 28 26 27 30 29 29 24 24 21 25 41 56 63 63 64 63 63 63 64 65 66 66 66 66 68 69 69 69 68 67 68 68 68 67 67 68 68 68 68 68 68 68 67 67 65 63
31 27 28 29 30 32 29 29 28 26 26 26 25 27 56 60 62 62 63 63 62 63 64 65 66 66 66 67 68 67 68 68 66 66 66 67 66 66 66 65 67 66 67 66 66 66 64 62 62
8 16 23 27 27 27 29 30 30 28 29 29 23 24 44 58 61 61 62 63 64 64 63 65 66 66 66 66 66 66 66 67 67 67 66 67 66 65 64 64 64 64 64 64 64 64 62 61 61
12 8 9 13 13 12 15 19 28 29 31 31 30 30 26 41 58 60 61 62 65 64 64 65 65 65 65 65 65 66 66 66 66 67 66 67 66 66 64 63 63 62 62 65 64 63 61 60 60
22 14 14 15 19 23 17 15 17 19 27 30 30 29 25 35 38 50 58 61 64 65 66 65 65 65 65 65 64 65 65 65 65 65 66 66 66 66 64 63 63 62 62 62 63 62 61 60 60
16 11 11 11 16 24 22 19 17 18 24 28 28 28 26 24 32 38 48 59 63 65 66 66 65 65 65 65 65 64 65 65 65 65 64 66 65 64 64 64 63 63 62 61 60 59 59 58 59
12 12 9 12 16 19 25 21 23 23 21 22 26 26 27 25 23 26 40 53 58 63 65 67 67 66 66 65 66 66 65 65 65 65 65 65 65 64 64 64 63 63 62 62 61 61 60 58 58
12 8 9 9 10 17 19 21 23 24 23 21 22 26 26 26 26 25 23 28 48 61 63 66 67 67 66 66 66 66 66 66 66 66 66 65 65 64 63 63 63 62 63 62 62 62 61 60 60
13 8 6 8 10 18 19 21 23 24 23 23 22 23 25 26 25 26 27 25 24 49 61 64 66 66 67 66 65 65 64 65 66 66 66 65 65 64 63 63 62 62 62 62 62 61 61 61 60
18 17 15 13 13 12 10 13 16 19 28 25 23 23 26 26 26 27 28 28 29 28 40 62 64 66 66 65 65 65 64 64 64 65 65 65 65 64 63 63 62 62 63 62 62 62 61 60 61
14 19 18 18 17 16 10 8 13 16 23 28 31 26 26 27 26 39 49 50 51 51 44 52 62 64 65 65 65 65 65 63 64 62 63 64 64 64 63 63 62 62 63 62 62 61 60 61 60
11 9 17 22 21 14 9 6 4 11 25 30 33 33 30 26 45 46 45 44 46 47 49 53 60 62 64 65 65 62 62 62 61 62 63 63 63 63 63 62 62 62 62 62 62 62 60 59 60
17 17 16 25 24 14 23 14 24 26 27 28 26 41 43 44 43 43 42 42 43 43 45 48 51 59 64 64 64 62 62 62 62 62 63 62 63 62 62 62 62 61 62 61 62 61 61 60 58
24 19 20 24 26 16 9 22 20 27 24 36 40 39 38 38 38 38 39 40 41 41 43 45 47 50 53 59 64 63 62 62 60 61 62 62 62 62 62 62 61 61 62 62 61 60 60 59 58
23 27 28 28 23 14 10 20 25 35 39 38 37 36 36 36 36 36 37 37 38 39 41 43 45 47 50 53 55 63 63 61 60 60 61 61 61 61 62 62 61 61 61 59 59 59 60 59 58
25 25 20 14 16 18 21 24 25 38 38 37 36 35 35 35 35 35 36 36 37 38 39 41 43 44 46 50 52 54 63 62 61 61 61 61 61 61 61 61 61 61 59 58 58 59 59 58 58
19 24 22 12 16 18 25 26 33 38 38 37 36 35 34 34 34 34 35 36 36 37 38 39 41 42 44 46 49 52 55 63 62 61 61 61 61 61 61 61 61 60 58 58 58 58 57 58 58
26 22 22 22 25 24 24 34 35 35 35 34 35 35 35 34 34 34 35 36 36 37 38 39 40 41 42 44 46 49 56 60 61 61 61 61 61 60 60 61 61 59 58 59 57 57 56 57 57
29 32 24 25 18 17 26 25 26 30 32 33 33 34 35 34 34 35 35 35 36 36 37 38 39 39 41 42 44 48 55 58 62 61 60 60 60 60 59 61 60 59 58 58 57 56 56 56 57
31 30 29 27 27 24 22 24 33 30 33 31 32 33 34 35 34 34 34 35 36 36 36 37 38 39 39 41 44 47 50 59 62 61 60 60 60 59 59 60 59 58 58 57 57 56 56 56 56
36 29 28 21 23 30 25 23 34 32 33 34 32 33 34 34 32 33 33 34 35 35 36 36 37 38 39 40 42 44 46 50 61 60 60 59 59 59 59 60 60 59 58 57 57 56 56 56 55

GFSSGP_sfc_dewp_120.txt.gz
Dewpoint
50 46 42 30 17 18 13 9 18 13 12 14 18 16 17 31 44 40 61 64 67 68 70 71 72 72 72 72 72 72 73 73 73 73 73 73 73 73 73 73 73 73 73 72 72 72 71 71 72
42 42 36 29 9 1 0 17 14 14 14 18 17 21 30 35 53 60 62 65 67 69 70 70 72 72 72 72 72 72 72 73 73 73 73 73 73 73 73 73 73 73 73 72 72 72 71 71 71
41 39 29 26 18 3 -4 7 14 13 14 15 12 18 23 43 58 61 63 66 67 69 70 70 71 71 72 72 72 72 72 72 72 72 73 73 73 73 73 73 72 73 73 72 70 71 71 71 70
35 36 33 26 21 21 7 11 12 14 16 16 16 12 19 49 59 61 66 67 67 69 70 70 70 71 72 72 72 72 72 71 71 72 73 73 73 73 73 72 72 72 72 71 70 70 71 70 69
37 34 18 26 27 26 22 20 21 18 18 19 17 15 20 53 62 66 66 66 66 68 69 70 69 70 71 72 72 72 71 71 71 72 72 72 73 73 72 72 72 72 72 72 71 71 70 69 69
21 32 25 16 14 22 21 23 24 24 21 20 15 16 34 58 62 65 66 66 67 67 68 69 70 70 70 71 71 70 70 70 71 71 72 72 72 72 71 71 71 71 71 71 71 69 69 68 68
22 29 24 25 21 22 20 23 20 20 18 18 16 16 23 54 61 64 64 65 66 67 67 68 69 70 69 69 70 69 69 70 70 70 70 71 70 70 70 70 70 71 71 71 70 69 68 68 68
33 29 27 22 18 18 21 22 22 20 18 24 19 18 20 48 63 64 64 64 65 66 67 67 68 68 68 70 68 68 69 69 69 70 69 69 69 69 70 69 70 70 70 70 69 68 68 68 67
36 29 25 23 23 22 23 26 27 25 21 22 23 26 33 54 64 63 63 63 64 65 66 67 68 68 69 69 69 68 69 69 68 69 69 68 69 69 69 69 68 69 69 69 68 68 67 66 66
29 28 27 27 26 26 29 30 30 28 28 27 27 31 51 63 62 61 61 61 62 63 65 66 67 67 67 67 68 69 69 69 69 69 68 67 66 67 68 68 68 68 68 68 68 67 66 65 65
31 26 27 28 30 31 30 29 30 29 28 27 28 27 53 59 62 60 59 59 60 62 64 66 66 66 66 66 67 68 67 68 67 67 67 67 66 66 66 66 67 66 67 66 66 66 65 63 62
8 13 19 19 16 16 14 25 24 20 24 31 30 31 37 53 58 61 60 59 59 62 63 65 66 66 66 66 66 66 66 67 67 66 66 68 67 66 64 65 65 65 65 64 64 65 63 62 62
24 18 17 16 14 15 20 20 16 17 20 22 29 31 30 31 52 59 61 62 62 61 62 64 65 65 66 65 65 65 65 67 66 66 66 68 67 66 64 63 64 64 63 64 64 64 61 61 61
18 14 13 12 12 12 12 15 23 22 20 21 26 30 29 30 32 52 59 60 63 63 62 63 64 64 65 65 65 64 65 65 65 66 66 67 66 66 65 63 63 62 64 65 64 63 61 60 60
15 13 12 10 11 12 21 19 18 18 23 22 21 21 28 29 29 40 55 58 61 64 63 64 64 64 64 64 64 64 65 65 64 64 65 65 66 65 65 64 63 62 62 63 63 61 59 59 59
12 12 8 9 10 10 12 5 13 24 25 24 23 21 25 27 28 29 48 55 60 63 65 65 64 64 64 64 64 64 64 64 64 64 65 65 65 65 64 64 63 62 62 61 61 61 60 58 58
13 9 8 8 10 9 12 9 14 17 22 23 24 23 24 25 27 27 28 45 54 62 64 66 65 64 64 64 64 64 63 64 64 64 64 65 65 64 64 64 63 62 62 62 61 61 61 60 59
15 11 13 12 15 18 16 14 12 11 11 20 20 23 23 22 23 26 27 25 42 57 63 65 66 66 65 64 64 64 64 64 64 64 64 64 65 64 64 63 62 63 63 62 62 61 61 61 60
15 15 15 15 18 19 19 16 14 15 14 12 23 26 28 26 26 34 47 48 38 38 33 61 65 66 66 65 64 64 63 64 65 65 64 64 64 64 63 63 62 63 63 62 61 62 61 60 61
13 12 12 13 17 17 19 20 16 15 12 10 15 14 25 29 35 45 45 45 45 46 47 49 59 65 66 66 65 64 64 65 65 65 65 65 65 64 64 63 62 63 63 63 62 62 60 60 61
19 17 15 11 11 13 21 21 17 14 12 9 8 26 38 41 43 42 42 42 42 43 44 46 50 61 65 66 66 63 63 62 63 63 64 64 65 64 64 63 63 63 63 63 62 62 61 59 60
21 20 19 17 16 18 24 19 19 15 16 37 37 36 36 36 37 37 38 40 40 40 42 44 47 52 60 65 65 63 63 62 63 63 64 64 64 64 64 63 63 63 63 63 62 62 62 60 58
22 25 23 22 20 21 22 20 13 20 35 35 34 36 36 35 36 36 36 37 38 39 40 43 46 50 52 55 64 63 63 63 61 62 63 64 63 63 63 63 62 62 62 62 61 62 61 61 59
26 25 24 24 24 19 19 16 17 32 36 35 36 35 35 35 35 36 36 37 37 38 39 41 43 45 49 52 54 58 62 60 60 61 62 62 62 62 62 62 62 62 62 62 62 61 61 60 60
25 23 16 14 14 16 19 13 26 33 36 36 35 35 35 34 35 35 36 36 37 37 38 40 42 44 45 47 50 52 55 59 61 61 62 61 61 61 62 62 62 62 62 62 61 61 60 60 59
22 22 17 12 14 21 25 22 28 35 36 35 36 36 35 35 35 36 36 36 36 37 38 38 39 41 42 44 45 48 51 55 59 62 61 61 61 61 62 62 62 62 61 61 60 60 60 60 59
20 21 20 20 22 20 27 30 30 31 32 33 33 34 35 34 35 35 36 36 36 36 37 38 38 39 40 41 44 46 49 52 56 60 61 61 60 58 59 61 61 61 61 60 59 60 59 58 58
25 30 25 24 18 16 25 24 23 27 29 31 30 32 34 35 34 34 35 35 36 36 36 36 37 38 39 40 41 44 46 48 51 57 62 60 60 60 61 61 61 61 60 59 59 59 58 57 57
30 28 30 29 26 22 20 21 31 28 30 29 30 32 32 33 33 34 34 34 35 35 35 35 36 37 37 38 41 42 43 45 48 58 60 61 59 60 60 60 60 60 59 59 59 58 57 56 56
36 29 28 22 19 27 21 20 33 31 31 31 31 32 32 33 32 33 33 33 33 34 34 34 35 35 37 38 39 40 42 43 45 47 53 60 59 59 59 59 60 59 59 59 58 57 56 55 55

GFSSGP_sfc_dewp_123.txt.gz
Dewpoint
48 44 41 30 13 16 9 2 16 12 16 16 16 13 12 23 42 34 62 64 66 68 69 71 71 72 72 72 72 72 73 73 73 73 73 73 73 74 74 73 73 73 73 72 71 72 71 71 72
41 41 36 28 6 -4 -6 12 9 10 13 16 17 17 22 24 37 50 61 64 66 68 69 70 71 72 72 72 72 72 73 73 73 73 73 73 73 73 73 73 73 73 73 72 72 71 71 71 71
41 37 27 24 12 -5 -6 -0 7 12 14 14 13 16 16 29 53 59 63 65 67 67 68 70 71 71 72 72 72 72 72 72 72 73 73 73 73 73 73 72 72 73 73 72 71 71 71 71 70
37 37 33 18 12 14 4 10 12 14 14 16 15 12 20 37 56 61 65 66 67 68 68 70 70 71 71 72 72 72 71 71 71 72 73 73 73 73 73 72 72 72 73 71 70 71 71 70 70
36 31 14 23 19 22 23 20 21 18 18 18 18 13 18 27 62 65 66 66 67 68 69 71 69 70 71 72 72 71 71 71 71 72 72 73 73 73 72 72 71 72 71 71 71 71 70 69 69
21 31 17 12 12 20 19 20 21 21 19 20 17 17 23 48 60 65 67 67 68 69 70 71 70 70 71 71 71 70 70 70 71 71 72 72 72 72 72 71 71 71 71 71 71 70 69 69 69
15 23 16 19 18 19 19 23 20 21 20 20 17 16 23 34 60 66 66 68 69 69 70 71 71 71 70 70 70 69 69 70 70 71 71 71 71 70 71 71 71 71 71 70 69 69 68 68 68
31 28 24 21 19 20 21 22 22 21 21 24 20 18 25 34 54 64 66 67 68 69 70 70 71 71 71 72 69 68 68 69 69 70 70 69 69 70 70 70 70 70 71 70 69 68 68 68 67
35 28 25 23 23 24 24 29 29 30 29 28 28 28 32 60 63 63 64 65 66 67 68 70 70 70 71 70 70 69 69 68 68 69 69 68 70 70 70 68 69 70 70 69 68 68 67 67 66
28 29 26 28 26 27 30 28 26 28 29 29 31 32 35 46 62 61 61 62 64 65 67 68 69 69 69 68 69 70 70 70 70 70 70 70 70 70 69 68 68 68 68 68 68 67 66 66 68
28 23 28 28 28 18 18 17 22 20 22 28 27 28 28 30 35 52 59 61 61 63 65 66 68 68 68 67 67 69 69 69 69 70 71 71 70 71 70 71 69 69 68 68 67 67 67 67 66
8 14 15 14 15 12 12 16 17 18 20 22 21 22 22 22 25 31 50 60 60 60 63 65 67 67 67 67 66 67 67 67 68 68 69 69 69 70 70 70 70 69 68 69 67 67 67 67 66
23 23 15 14 13 11 11 9 11 13 18 20 21 23 23 25 29 32 41 52 61 60 61 64 66 66 65 66 66 66 66 67 67 67 68 68 68 68 69 69 70 69 70 68 67 66 67 66 66
14 14 14 13 13 12 10 8 10 10 13 18 18 18 20 23 24 26 32 46 60 61 61 64 65 66 66 66 66 65 66 67 67 67 68 68 68 67 68 68 69 68 69 68 67 66 66 66 65
17 14 12 8 10 10 11 2 6 17 13 18 22 24 26 27 26 28 31 34 49 58 62 63 65 66 66 66 66 65 65 65 65 66 67 68 68 67 67 66 67 68 68 68 67 65 65 65 64
13 15 9 9 9 9 10 3 5 9 16 17 17 21 25 24 26 27 31 32 39 52 63 63 63 65 66 66 66 65 65 65 64 65 65 66 66 67 66 65 66 67 66 66 64 63 63 65 64
15 8 10 10 12 13 12 10 13 16 18 19 19 17 15 24 24 27 31 32 36 52 61 64 64 64 65 66 65 66 66 64 64 65 65 65 66 66 65 65 65 66 66 65 63 63 63 62 62
8 10 11 12 13 14 13 14 16 17 18 20 20 19 18 15 22 29 31 32 32 43 61 64 65 65 65 64 65 65 65 65 66 65 65 66 64 65 66 65 65 65 64 64 64 63 63 62 62
13 13 12 12 13 14 14 14 16 17 19 19 21 20 18 16 23 36 47 48 41 47 54 63 66 66 64 63 64 63 63 64 65 64 65 65 66 65 66 65 64 64 64 64 64 63 62 62 62
16 16 15 16 16 16 15 14 15 16 18 23 22 19 18 18 21 39 44 45 46 47 48 50 60 66 66 64 64 64 64 64 66 65 64 65 65 66 66 65 64 64 64 64 64 62 61 62 62
17 19 19 18 17 17 18 14 17 21 23 34 36 36 37 37 38 39 40 42 43 44 46 48 51 56 66 66 66 66 66 66 65 65 64 64 65 66 66 65 64 64 64 63 62 62 62 60 62
18 22 20 19 19 16 19 12 17 25 28 35 35 35 36 36 37 38 38 39 41 42 44 47 52 55 58 65 66 65 64 63 64 64 64 64 65 65 66 65 64 64 64 64 63 64 64 63 60
23 23 22 22 21 21 14 18 16 28 28 35 36 34 35 35 37 37 38 39 39 40 42 46 50 51 53 58 62 65 64 66 65 65 64 65 65 66 66 65 65 65 64 64 63 63 64 63 61
23 24 24 25 23 18 19 22 21 27 31 33 35 36 36 35 36 37 37 37 38 39 41 44 46 46 49 51 53 56 63 64 64 65 64 63 65 65 65 64 64 64 64 64 63 64 64 63 62
25 23 16 16 21 14 19 19 28 32 33 33 33 34 36 37 36 37 36 37 37 37 39 40 42 43 45 47 48 50 52 55 59 64 64 64 64 63 64 64 64 64 64 63 64 63 64 63 62
25 22 13 6 7 10 15 25 27 34 35 34 33 34 34 35 36 36 37 36 36 37 37 38 40 41 42 44 45 47 50 52 54 57 61 63 63 64 63 63 64 64 63 63 63 63 63 63 62
21 20 20 17 17 17 23 29 33 30 31 32 32 32 32 33 34 35 35 36 37 38 38 38 39 39 41 42 44 45 47 48 49 52 56 61 64 64 64 64 63 64 63 63 62 62 62 61 61
27 26 24 23 18 19 24 24 22 25 28 30 30 30 31 32 32 33 34 34 35 36 37 37 38 36 38 39 41 42 43 45 47 50 53 58 62 63 63 63 63 63 63 62 61 60 61 60 61
30 28 27 27 27 22 20 21 30 28 29 29 30 30 30 31 32 32 33 34 32 33 34 35 35 35 36 37 39 40 40 42 44 46 47 50 59 62 61 61 61 61 62 61 60 59 60 60 59
33 31 29 25 22 27 26 21 32 31 31 30 29 30 31 31 31 32 32 33 33 31 32 33 34 35 36 36 37 39 39 40 41 42 44 45 48 61 61 61 61 61 61 60 59 59 59 59 58